[[{"header":{"parameterUnit":"m.s-1","parameterCategory":1,"la1":30.6,"la2":28.766,"lo1":-90.7593,"lo2":-88.6598,"dx":0.0162,"dy":0.0183,"nx":116,"ny":114,"refTime":"2022-11-17T18:00:00:Z","depth":0,"parameterNumber":2,"parameterNumberName":"U-component_of_WINDS"},"data":[0.0,0.0,0.0,0.0,0.0,0.0,0.0,0.0,0.0,0.0,0.0,0.0,0.0,0.0,0.0,0.0,0.0,0.0,0.0,0.0,0.0,0.0,0.0,0.0,0.0,0.0,0.0,0.0,0.0,0.0,0.0,0.0,0.0,0.0,0.0,0.0,0.0,0.0,0.0,0.0,0.0,0.0,0.0,0.0,0.0,0.0,0.0,0.0,0.0,0.0,0.0,0.0,0.0,0.0,0.0,0.0,0.0,0.0,0.0,0.0,0.0,0.0,0.0,0.0,0.0,0.0,0.0,0.0,0.0,0.0,0.0,0.0,0.0,0.0,0.0,0.0,0.0,0.0,0.0,0.0,0.0,0.0,0.0,0.0,0.0,0.0,0.0,0.0,0.0,0.0,0.0,0.0,0.0,0.0,0.0,0.0,0.0,0.0,0.0,0.0,0.0,0.0,0.0,0.0,0.0,0.0,0.0,0.0,0.0,0.0,0.0,0.0,0.0,0.0,0.0,0.0,0.0,0.0,0.0,0.0,0.0,0.0,0.0,0.0,0.0,0.0,0.0,0.0,0.0,0.0,0.0,0.0,0.0,0.0,0.0,0.0,0.0,0.0,0.0,0.0,0.0,0.0,0.0,0.0,0.0,0.0,0.0,0.0,0.0,0.0,0.0,0.0,0.0,0.0,0.0,0.0,0.0,0.0,0.0,0.0,0.0,0.0,0.0,0.0,0.0,0.0,0.0,0.0,0.0,0.0,0.0,0.0,0.0,0.0,0.0,0.0,0.0,0.0,0.0,0.0,0.0,0.0,0.0,0.0,0.0,0.0,0.0,0.0,0.0,0.0,0.0,0.0,0.0,0.0,0.0,0.0,0.0,0.0,0.0,0.0,0.0,0.0,0.0,0.0,0.0,0.0,0.0,0.0,0.0,0.0,0.0,0.0,0.0,0.0,0.0,0.0,0.0,0.0,0.0,0.0,0.0,0.0,0.0,0.0,0.0,0.0,0.0,0.0,0.0,0.0,0.0,0.0,0.0,0.0,0.0,0.0,0.0,0.0,0.0,0.0,0.0,0.0,0.0,0.0,0.0,0.0,0.0,0.0,0.0,0.0,0.0,0.0,0.0,0.0,0.0,0.0,0.0,0.0,0.0,0.0,0.0,0.0,0.0,0.0,0.0,0.0,0.0,0.0,0.0,0.0,0.0,0.0,0.0,0.0,0.0,0.0,0.0,0.0,0.0,0.0,0.0,0.0,0.0,0.0,0.0,0.0,0.0,0.0,0.0,0.0,0.0,0.0,0.0,0.0,0.0,0.0,0.0,0.0,0.0,0.0,0.0,0.0,0.0,0.0,0.0,0.0,0.0,0.0,0.0,0.0,0.0,0.0,0.0,0.0,0.0,0.0,0.0,0.0,0.0,0.0,0.0,0.0,0.0,0.0,0.0,0.0,0.0,0.0,0.0,0.0,0.0,0.0,0.0,0.0,0.0,0.0,0.0,0.0,0.0,0.0,0.0,0.0,0.0,0.0,0.0,0.0,0.0,0.0,0.0,0.0,0.0,0.0,0.0,0.0,0.0,0.0,0.0,0.0,0.0,0.0,0.0,0.0,0.0,0.0,0.0,0.0,0.0,0.0,0.0,0.0,0.0,0.0,0.0,0.0,0.0,0.0,0.0,0.0,0.0,0.0,0.0,0.0,0.0,0.0,0.0,0.0,0.0,0.0,0.0,0.0,0.0,0.0,0.0,0.0,0.0,0.0,0.0,0.0,0.0,0.0,0.0,0.0,0.0,0.0,0.0,0.0,0.0,0.0,0.0,0.0,0.0,0.0,0.0,0.0,0.0,0.0,0.0,0.0,0.0,0.0,0.0,0.0,0.0,0.0,0.0,0.0,0.0,0.0,0.0,0.0,0.0,0.0,0.0,0.0,0.0,0.0,0.0,0.0,0.0,0.0,0.0,0.0,0.0,0.0,0.0,0.0,0.0,0.0,0.0,0.0,0.0,0.0,0.0,0.0,0.0,0.0,0.0,0.0,0.0,0.0,0.0,0.0,0.0,0.0,0.0,0.0,0.0,0.0,0.0,0.0,0.0,0.0,0.0,0.0,0.0,0.0,0.0,0.0,0.0,0.0,0.0,0.0,0.0,0.0,0.0,0.0,0.0,0.0,0.0,0.0,0.0,0.0,0.0,0.0,0.0,0.0,0.0,0.0,0.0,0.0,0.0,0.0,0.0,0.0,0.0,0.0,0.0,0.0,0.0,0.0,0.0,0.0,0.0,0.0,0.0,0.0,0.0,0.0,0.0,0.0,0.0,0.0,0.0,0.0,0.0,0.0,0.0,0.0,0.0,0.0,0.0,0.0,0.0,0.0,0.0,0.0,0.0,0.0,0.0,0.0,0.0,0.0,0.0,0.0,0.0,0.0,0.0,0.0,0.0,0.0,0.0,0.0,0.0,0.0,0.0,0.0,0.0,0.0,0.0,0.0,0.0,0.0,0.0,0.0,0.0,0.0,0.0,0.0,0.0,0.0,0.0,0.0,0.0,0.0,0.0,0.0,0.0,0.0,0.0,0.0,0.0,0.0,0.0,0.0,0.0,0.0,0.0,0.0,0.0,0.0,0.0,0.0,0.0,0.0,0.0,0.0,0.0,0.0,0.0,0.0,0.0,0.0,0.0,0.0,0.0,0.0,0.0,0.0,0.0,0.0,0.0,0.0,0.0,0.0,0.0,0.0,0.0,0.0,0.0,0.0,0.0,0.0,0.0,0.0,0.0,0.0,0.0,0.0,0.0,0.0,0.0,0.0,0.0,0.0,0.0,0.0,0.0,0.0,0.0,0.0,0.0,0.0,0.0,0.0,0.0,0.0,0.0,0.0,0.0,0.0,0.0,0.0,0.0,0.0,0.0,0.0,0.0,0.0,0.0,0.0,0.0,0.0,0.0,0.0,0.0,0.0,0.0,0.0,0.0,0.0,0.0,0.0,0.0,0.0,0.0,0.0,0.0,0.0,0.0,0.0,0.0,0.0,0.0,0.0,0.0,0.0,0.0,0.0,0.0,0.0,0.0,0.0,0.0,0.0,0.0,0.0,0.0,0.0,0.0,0.0,0.0,0.0,0.0,0.0,0.0,0.0,0.0,0.0,0.0,0.0,0.0,0.0,0.0,0.0,0.0,0.0,0.0,0.0,0.0,0.0,0.0,0.0,0.0,0.0,0.0,0.0,0.0,0.0,0.0,0.0,0.0,0.0,0.0,0.0,0.0,0.0,0.0,0.0,0.0,0.0,0.0,0.0,0.0,0.0,0.0,0.0,0.0,0.0,0.0,0.0,0.0,0.0,0.0,0.0,0.0,0.0,0.0,0.0,0.0,0.0,0.0,0.0,0.0,0.0,0.0,0.0,0.0,0.0,0.0,0.0,0.0,0.0,0.0,0.0,0.0,0.0,0.0,0.0,0.0,0.0,0.0,0.0,0.0,0.0,0.0,0.0,0.0,0.0,0.0,0.0,0.0,0.0,0.0,0.0,0.0,0.0,0.0,0.0,0.0,0.0,0.0,0.0,0.0,0.0,0.0,0.0,0.0,0.0,0.0,0.0,0.0,0.0,0.0,0.0,0.0,0.0,0.0,0.0,0.0,0.0,0.0,0.0,0.0,0.0,0.0,0.0,0.0,0.0,0.0,0.0,0.0,0.0,0.0,0.0,0.0,0.0,0.0,0.0,0.0,0.0,0.0,0.0,0.0,0.0,0.0,0.0,0.0,0.0,0.0,0.0,0.0,0.0,0.0,0.0,0.0,0.0,0.0,0.0,0.0,0.0,0.0,0.0,0.0,0.0,0.0,0.0,0.0,0.0,0.0,0.0,0.0,0.0,0.0,0.0,0.0,0.0,0.0,0.0,0.0,0.0,0.0,0.0,0.0,0.0,0.0,0.0,0.0,0.0,0.0,0.0,0.0,0.0,0.0,0.0,0.0,0.0,0.0,0.0,0.0,0.0,0.0,0.0,0.0,0.0,0.0,0.0,0.0,0.0,0.0,0.0,0.0,0.0,0.0,0.0,0.0,0.0,0.0,0.0,0.0,0.0,0.0,0.0,0.0,0.0,0.0,0.0,0.0,0.0,0.0,0.0,0.0,0.0,0.0,0.0,0.0,0.0,0.0,0.0,0.0,0.0,0.0,0.0,0.0,0.0,0.0,0.0,0.0,0.0,0.0,0.0,0.0,0.0,0.0,0.0,0.0,0.0,0.0,0.0,0.0,0.0,0.0,0.0,0.0,0.0,0.0,0.0,0.0,0.0,0.0,0.0,0.0,0.0,0.0,0.0,0.0,0.0,0.0,0.0,0.0,0.0,0.0,0.0,0.0,0.0,0.0,0.0,0.0,0.0,0.0,0.0,0.0,0.0,0.0,0.0,0.0,0.0,0.0,0.0,0.0,0.0,0.0,0.0,0.0,0.0,0.0,0.0,0.0,0.0,0.0,0.0,0.0,0.0,0.0,0.0,0.0,0.0,0.0,0.0,0.0,0.0,0.0,0.0,0.0,0.0,0.0,0.0,0.0,0.0,0.0,0.0,0.0,0.0,0.0,0.0,0.0,0.0,0.0,0.0,0.0,0.0,0.0,0.0,0.0,0.0,0.0,0.0,0.0,0.0,0.0,0.0,0.0,0.0,0.0,0.0,0.0,0.0,0.0,0.0,0.0,0.0,0.0,0.0,0.0,0.0,0.0,0.0,0.0,0.0,0.0,0.0,0.0,0.0,0.0,0.0,0.0,0.0,0.0,0.0,0.0,0.0,0.0,0.0,0.0,0.0,0.0,0.0,0.0,0.0,0.0,0.0,0.0,0.0,0.0,0.0,0.0,0.0,0.0,0.0,0.0,0.0,0.0,0.0,0.0,0.0,0.0,0.0,0.0,0.0,0.0,0.0,0.0,0.0,0.0,0.0,0.0,0.0,0.0,0.0,0.0,0.0,0.0,0.0,0.0,0.0,0.0,0.0,0.0,0.0,0.0,0.0,0.0,0.0,0.0,0.0,0.0,0.0,0.0,0.0,0.0,0.0,0.0,0.0,0.0,0.0,0.0,0.0,0.0,0.0,0.0,0.0,0.0,0.0,0.0,0.0,0.0,0.0,0.0,0.0,0.0,0.0,0.0,0.0,0.0,0.0,0.0,0.0,0.0,0.0,0.0,0.0,0.0,0.0,0.0,0.0,0.0,0.0,0.0,0.0,0.0,0.0,0.0,0.0,0.0,0.0,0.0,0.0,0.0,0.0,0.0,0.0,0.0,0.0,0.0,0.0,0.0,0.0,0.0,0.0,0.0,0.0,0.0,0.0,0.0,0.0,0.0,0.0,0.0,0.0,0.0,0.0,0.0,0.0,0.0,0.0,0.0,0.0,0.0,0.0,0.0,0.0,0.0,0.0,0.0,0.0,0.0,0.0,0.0,0.0,0.0,0.0,0.0,0.0,0.0,0.0,0.0,0.0,0.0,0.0,0.0,0.0,0.0,0.0,0.0,0.0,0.0,0.0,0.0,0.0,0.0,0.0,0.0,0.0,0.0,0.0,0.0,0.0,0.0,0.0,0.0,0.0,0.0,0.0,0.0,0.0,0.0,0.0,0.0,0.0,0.0,0.0,0.0,0.0,0.0,0.0,0.0,0.0,0.0,0.0,0.0,0.0,0.0,0.0,0.0,0.0,0.0,0.0,0.0,0.0,0.0,0.0,0.0,0.0,0.0,0.0,0.0,0.0,0.0,0.0,0.0,0.0,0.0,0.0,0.0,0.0,0.0,0.0,0.0,0.0,0.0,0.0,0.0,0.0,0.0,0.0,0.0,0.0,0.0,0.0,0.0,0.0,0.0,0.0,0.0,0.0,0.0,0.0,0.0,0.0,0.0,0.0,0.0,0.0,0.0,0.0,0.0,0.0,0.0,0.0,0.0,0.0,0.0,0.0,0.0,0.0,0.0,0.0,0.0,0.0,0.0,0.0,0.0,0.0,0.0,0.0,0.0,0.0,0.0,0.0,0.0,0.0,0.0,0.0,0.0,0.0,0.0,0.0,0.0,0.0,0.0,0.0,0.0,0.0,0.0,0.0,0.0,0.0,0.0,0.0,0.0,0.0,3.975,0.0,0.0,0.0,0.0,0.0,0.0,0.0,0.0,0.0,0.0,0.0,0.0,0.0,0.0,0.0,0.0,0.0,0.0,0.0,0.0,0.0,0.0,0.0,0.0,1.9172,1.9444,2.0079,1.9825,0.0,0.0,0.0,0.0,0.0,0.0,0.0,0.0,0.0,2.259,2.3664,2.472,2.5866,2.7061,2.5468,2.4629,2.4464,0.0,0.0,0.0,0.0,0.0,0.0,0.0,0.0,0.0,0.0,0.0,0.0,0.0,0.0,0.0,0.0,0.0,0.0,0.0,0.0,0.0,0.0,0.0,0.0,0.0,0.0,0.0,0.0,0.0,0.0,0.0,0.0,0.0,0.0,0.0,0.0,0.0,0.0,0.0,0.0,0.0,0.0,0.0,0.0,0.0,0.0,0.0,0.0,0.0,0.0,0.0,0.0,0.0,0.0,0.0,0.0,0.0,0.0,0.0,0.0,0.0,0.0,0.0,0.0,0.0,0.0,0.0,0.0,0.0,0.0,0.0,4.0427,0.0,0.0,0.0,0.0,0.0,0.0,0.0,0.0,0.0,0.0,0.0,0.0,0.0,0.0,0.0,0.0,0.0,0.0,0.0,0.0,0.0,1.8816,2.0381,2.0349,2.0431,2.0926,2.0817,2.079,2.093,2.0265,0.0,0.0,0.0,0.0,2.243,2.2195,2.3334,2.5983,2.6535,2.7545,2.8915,2.8863,2.8733,2.8508,2.7167,0.0,0.0,0.0,0.0,0.0,0.0,0.0,0.0,0.0,0.0,0.0,0.0,0.0,0.0,0.0,0.0,0.0,0.0,0.0,0.0,0.0,0.0,0.0,0.0,0.0,0.0,0.0,0.0,0.0,0.0,0.0,0.0,0.0,0.0,0.0,0.0,0.0,0.0,0.0,0.0,0.0,0.0,0.0,0.0,0.0,0.0,0.0,0.0,0.0,0.0,0.0,0.0,0.0,0.0,0.0,0.0,0.0,0.0,0.0,0.0,0.0,0.0,0.0,4.5185,4.5873,4.6014,4.6591,4.713,4.7489,4.4786,4.3708,4.3678,0.0,0.0,0.0,0.0,0.0,0.0,0.0,0.0,0.0,0.0,0.0,0.0,0.0,0.0,0.0,0.0,0.0,0.0,0.0,0.0,2.0225,1.9953,2.1361,2.2329,2.2413,2.1417,2.1181,2.2192,2.113,0.0,0.0,0.0,0.0,2.2416,2.39,2.5069,2.5827,2.8626,3.034,3.1019,3.1452,3.1639,3.1534,2.9634,2.8469,2.7974,0.0,0.0,0.0,0.0,0.0,0.0,0.0,0.0,0.0,0.0,0.0,0.0,0.0,0.0,0.0,0.0,0.0,0.0,0.0,0.0,0.0,0.0,0.0,0.0,0.0,0.0,0.0,0.0,0.0,0.0,0.0,0.0,0.0,0.0,0.0,0.0,0.0,0.0,0.0,0.0,0.0,3.7554,3.7751,0.0,0.0,0.0,0.0,0.0,0.0,0.0,0.0,0.0,0.0,0.0,0.0,0.0,4.3429,4.2921,4.4984,4.6001,4.5912,4.7249,4.8199,4.8768,4.8858,4.8947,4.9007,4.8558,0.0,4.5882,4.5642,0.0,0.0,0.0,0.0,0.0,0.0,0.0,0.0,0.0,0.0,0.0,0.0,0.0,0.0,0.0,0.0,0.0,0.0,0.0,0.0,0.0,2.3078,2.38,2.4436,2.46,2.4723,2.4843,2.4065,0.0,0.0,0.0,2.4079,2.4805,2.5844,2.7074,2.85,3.115,3.2566,3.2817,3.3348,3.3599,3.3571,3.2696,3.1281,2.9613,2.9495,0.0,0.0,0.0,0.0,0.0,0.0,0.0,0.0,0.0,0.0,0.0,0.0,0.0,0.0,0.0,0.0,0.0,0.0,0.0,0.0,0.0,0.0,0.0,0.0,0.0,0.0,0.0,0.0,0.0,0.0,0.0,0.0,0.0,0.0,0.0,0.0,0.0,0.0,0.0,3.6746,3.8392,3.9906,3.9738,3.9649,0.0,0.0,0.0,0.0,0.0,0.0,0.0,0.0,0.0,4.5493,4.5463,4.5822,4.6651,4.7886,4.8484,4.8514,4.9471,5.0092,5.0361,5.0361,5.0361,5.0361,5.0361,5.0092,4.9553,4.8446,4.7459,4.6672,0.0,0.0,0.0,0.0,0.0,4.3075,0.0,0.0,0.0,0.0,0.0,0.0,0.0,0.0,0.0,0.0,0.0,0.0,2.3703,2.4459,2.5176,2.6022,2.6743,2.7094,2.6889,2.6492,2.6731,2.7846,2.6453,2.6155,2.7254,2.7974,2.9371,3.1441,3.3244,3.4248,3.4572,3.4951,3.513,3.513,3.513,3.3771,3.1406,3.0964,3.0246,2.9328,0.0,0.0,0.0,0.0,0.0,0.0,0.0,0.0,0.0,0.0,0.0,0.0,0.0,0.0,0.0,0.0,0.0,0.0,0.0,0.0,0.0,0.0,0.0,0.0,0.0,0.0,0.0,0.0,0.0,0.0,0.0,0.0,0.0,0.0,0.0,0.0,0.0,3.9032,4.0427,4.2402,4.2372,4.2432,0.0,0.0,0.0,0.0,0.0,0.0,4.4566,4.5214,4.6352,4.7975,4.7886,4.8446,4.9786,5.0398,5.0727,5.0727,5.1206,5.1535,5.1708,5.1708,5.1518,5.1154,5.1154,5.1227,5.1253,5.0203,4.955,4.9163,4.8488,4.7906,4.7209,4.5504,4.4645,4.4422,0.0,0.0,0.0,0.0,0.0,0.0,0.0,0.0,0.0,0.0,0.0,2.4197,2.2593,2.4905,2.6563,2.6582,2.6039,2.6179,2.7276,2.7275,2.7483,2.8055,2.7982,2.8197,2.8787,3.0376,3.2014,3.3721,3.4374,3.5203,3.6279,3.6281,3.6329,3.6329,3.6329,3.5351,3.3696,3.3183,3.2579,3.1825,2.9731,0.0,0.0,0.0,0.0,0.0,0.0,0.0,0.0,0.0,0.0,0.0,0.0,0.0,0.0,0.0,0.0,0.0,0.0,0.0,0.0,0.0,0.0,0.0,0.0,0.0,0.0,0.0,0.0,0.0,0.0,0.0,0.0,0.0,0.0,0.0,0.0,0.0,0.0,4.6031,4.6591,0.0,0.0,0.0,0.0,4.701,4.707,4.7369,4.7997,4.8678,4.9344,5.0016,5.1236,5.1648,5.1116,5.1768,5.2097,5.2097,5.2127,5.2486,5.3109,5.3109,5.2339,5.1001,5.1001,5.0231,4.9072,5.051,5.027,4.894,4.8282,4.6756,4.5109,4.623,4.5814,4.4861,0.0,0.0,0.0,1.6052,1.5814,1.6252,1.8399,1.9113,2.0041,2.1728,2.3388,2.4419,2.4425,2.6316,2.7725,2.8053,2.9158,2.9876,2.9974,3.064,3.0803,3.0256,3.0557,3.1009,3.1587,3.2867,3.3975,3.4929,3.5855,3.6508,3.6909,3.7286,3.7412,3.7412,3.7412,3.6909,3.5931,3.4675,3.3822,3.3194,3.2064,3.0758,0.0,0.0,0.0,0.0,0.0,0.0,0.0,0.0,0.0,0.0,0.0,0.0,0.0,0.0,0.0,0.0,0.0,0.0,0.0,0.0,0.0,0.0,0.0,0.0,0.0,0.0,0.0,0.0,0.0,0.0,0.0,0.0,0.0,0.0,0.0,0.0,0.0,4.6869,4.7908,0.0,4.8917,4.8738,4.8745,4.9142,4.9172,4.965,5.075,5.0631,5.102,5.2097,5.2187,5.2276,5.2486,5.3144,5.3503,5.3503,5.3922,5.4251,5.4486,5.4486,5.3672,5.2329,5.2653,5.1969,5.0685,5.1587,5.0765,4.8858,4.8608,4.8048,4.7336,4.6894,4.6404,4.5984,0.0,0.0,0.0,1.6724,1.648,1.7005,1.934,1.9941,2.091,2.3146,2.4287,2.5294,2.6315,2.8097,2.9528,3.0256,3.1838,3.2616,3.2265,3.3119,3.3294,3.2541,3.3219,3.3796,3.4195,3.5077,3.5707,3.6083,3.701,3.7462,3.7462,3.804,3.8191,3.8015,3.8216,3.799,3.7387,3.6282,3.5403,3.4698,3.3922,3.2867,3.1642,0.0,0.0,0.0,0.0,0.0,0.0,0.0,0.0,0.0,0.0,0.0,0.0,0.0,0.0,0.0,0.0,0.0,0.0,0.0,0.0,0.0,0.0,0.0,0.0,0.0,0.0,0.0,0.0,0.0,0.0,0.0,0.0,0.0,0.0,0.0,4.7549,4.8185,4.9464,5.0354,5.0594,5.0624,5.0803,5.1176,5.1206,5.1618,5.2486,5.2336,5.2636,5.3503,5.3533,5.3767,5.4216,5.485,5.4926,5.441,5.4849,5.4766,5.4237,5.4237,5.3462,5.2071,5.2436,5.1757,5.0372,5.0744,4.9937,4.8575,4.9054,4.8942,4.8377,4.7435,4.7088,4.7047,0.0,0.0,1.756,1.7194,1.76,1.8447,1.9723,2.0388,2.1542,2.3835,2.5521,2.6909,2.8021,3.0105,3.1884,3.2989,3.3621,3.3972,3.3947,3.4502,3.4828,3.4803,3.5854,3.6455,3.6455,3.6984,3.7286,3.7286,3.7814,3.809,3.809,3.8693,3.8642,3.8115,3.8668,3.8592,3.804,3.804,3.7436,3.6331,3.5228,3.5079,3.5257,0.0,0.0,0.0,0.0,0.0,0.0,0.0,0.0,0.0,0.0,0.0,0.0,0.0,0.0,0.0,0.0,0.0,0.0,0.0,0.0,0.0,0.0,0.0,0.0,0.0,0.0,0.0,0.0,0.0,0.0,0.0,0.0,0.0,4.7608,4.8558,4.9636,5.0219,5.1415,5.2486,5.3139,5.3198,5.3228,5.3228,5.3258,5.3234,5.3215,5.3898,5.4261,5.4132,5.5462,5.6145,5.6093,5.6665,5.619,5.4725,5.4725,5.3893,5.242,5.242,5.1636,5.0213,5.0266,4.9386,4.7983,4.8008,4.8008,4.8164,4.9577,4.9243,4.7908,4.7908,4.7908,4.7983,1.8424,1.7811,1.7352,1.7643,1.7942,1.8653,2.019,2.09,2.2232,2.4836,2.5946,2.7228,2.9126,3.0909,3.229,3.304,3.4698,3.5529,3.5104,3.6759,3.7538,3.7111,3.7387,3.7563,3.7563,3.8492,3.8994,3.8994,3.9546,3.9797,3.9823,3.9998,3.9973,3.9797,3.9572,3.917,3.8668,3.8668,3.824,3.7487,3.6784,3.6108,3.5483,0.0,0.0,0.0,0.0,0.0,0.0,0.0,0.0,0.0,0.0,0.0,0.0,0.0,0.0,0.0,0.0,0.0,0.0,0.0,0.0,0.0,0.0,0.0,0.0,0.0,0.0,0.0,0.0,0.0,0.0,0.0,0.0,5.0571,5.0159,5.087,5.1648,5.2306,5.2695,5.3019,5.3198,5.3198,5.3408,5.3892,5.4371,5.4336,5.3661,5.533,5.5263,5.2963,5.4376,5.4603,5.3444,5.3613,5.3473,5.3077,5.3077,5.2849,5.242,5.2803,5.2201,5.0812,5.1623,5.1077,4.9766,5.0167,5.0368,5.0258,4.9013,4.8255,4.7908,4.7908,4.7908,4.7933,1.9121,1.8452,1.7949,1.827,1.8614,1.9266,2.0414,2.1305,2.2824,2.5603,2.6474,2.7763,3.0206,3.1738,3.2893,3.3696,3.5152,3.6081,3.6183,3.7663,3.8492,3.8366,3.8592,3.8718,3.8718,3.9798,4.0349,4.0349,4.0927,4.1329,4.1555,4.1555,4.1555,4.153,4.1004,4.0577,4.025,3.9998,3.9446,3.8693,3.8366,3.7713,3.691,3.6532,3.613,3.5629,3.46,3.4048,3.39,3.4739,0.0,0.0,0.0,0.0,0.0,0.0,0.0,0.0,0.0,0.0,0.0,0.0,0.0,0.0,0.0,0.0,0.0,0.0,0.0,0.0,0.0,0.0,0.0,0.0,5.0129,5.152,5.3063,5.2857,5.2916,5.3933,5.2922,5.2756,5.4301,5.3282,5.3341,5.5257,5.455,5.4075,5.4205,5.4797,5.4283,5.2477,5.378,5.4088,5.3164,5.3659,5.3551,5.2893,5.2893,5.2557,5.194,5.2284,5.1946,0.0,5.2014,5.1897,5.1172,5.1724,5.1975,0.0,0.0,0.0,0.0,0.0,4.9314,4.9314,1.9729,1.9277,1.8902,1.8902,1.9467,2.0046,2.0544,2.156,2.3301,2.6122,2.6909,2.8291,3.1105,3.2411,3.352,3.4603,3.5232,3.6108,3.7287,3.7839,3.8391,3.9044,3.9521,3.9848,3.9973,4.0976,4.1528,4.1578,4.2185,4.2713,4.319,4.314,4.309,4.3065,4.2512,4.2313,4.2235,4.1731,4.0927,3.9973,3.9973,3.9522,3.8642,3.721,3.6984,3.721,3.5705,3.5205,3.5466,3.6852,0.0,0.0,0.0,0.0,0.0,0.0,0.0,0.0,0.0,0.0,0.0,0.0,0.0,0.0,0.0,0.0,0.0,0.0,0.0,0.0,0.0,0.0,0.0,0.0,5.1561,5.1958,5.5272,5.4091,5.3473,5.5044,5.2657,5.2176,5.5555,5.3348,5.3049,5.632,5.4062,5.3074,5.44,0.0,0.0,0.0,0.0,5.4044,5.3863,5.4927,5.4755,5.3345,5.3345,5.262,5.1306,5.1348,5.1398,5.1498,5.2051,5.2327,5.2427,5.2904,5.3071,5.3005,5.1825,5.1423,5.1448,5.1398,5.1423,0.0,1.9908,1.9277,1.8902,1.8902,1.9751,2.0492,2.0584,2.156,2.3301,2.6122,2.6575,2.7882,3.1055,3.2411,3.352,3.4603,3.5629,3.6884,3.8467,3.8668,3.9145,4.0149,4.03,4.0777,4.1683,4.2336,4.2886,4.3338,4.389,4.4192,4.4292,4.384,4.3639,4.3614,4.309,4.2838,4.2838,4.2738,4.2311,4.1708,4.1708,4.0301,3.8191,3.8341,3.8467,3.8517,3.8215,3.8391,3.8693,3.8589,3.8132,3.7601,3.7484,3.7828,0.0,0.0,0.0,0.0,0.0,0.0,0.0,0.0,0.0,0.0,0.0,0.0,0.0,0.0,0.0,0.0,0.0,0.0,0.0,4.8544,5.0427,5.2246,5.275,5.2476,5.3036,5.5268,5.3501,5.2511,5.3693,5.2875,5.2539,5.3247,5.3265,5.2947,5.2416,5.3842,5.3693,5.1581,5.2964,5.3133,5.1881,5.2086,5.205,5.1745,0.0,0.0,5.1297,5.1749,5.2176,5.2594,5.3155,5.3658,5.412,5.4245,5.427,5.412,5.2553,5.2226,5.2519,5.2101,5.2226,5.2569,2.0401,2.003,1.9694,1.9062,2.0142,2.1003,2.0707,2.1812,2.3411,2.5385,2.6147,2.7412,2.988,3.1411,3.2792,3.4198,3.6081,3.7688,3.8818,3.9145,3.9647,4.0449,4.075,4.1304,4.2187,4.2989,4.3664,4.4217,4.4769,4.5196,4.5417,4.5196,4.5045,4.502,4.4468,4.4271,4.4245,4.3915,4.3489,4.3014,4.3014,4.2009,4.0425,3.9898,3.9521,3.9346,3.9597,3.9697,3.9747,4.0023,3.9897,3.9546,3.9019,3.9043,3.9149,0.0,0.0,0.0,0.0,0.0,0.0,0.0,0.0,0.0,0.0,0.0,0.0,0.0,0.0,4.9063,4.9541,0.0,4.9665,5.0238,5.0684,5.1591,5.3362,5.2486,5.2554,5.5032,5.2767,5.1816,5.3917,5.2731,5.2619,5.4443,5.3722,5.3281,5.3544,5.3602,5.3173,5.211,5.2611,5.2746,5.2477,5.2503,5.2779,5.3331,5.3089,5.324,5.3758,5.3758,5.4059,5.4576,5.5103,5.5541,5.5817,5.6118,5.6244,5.6118,5.5013,5.4235,5.3708,5.3432,5.3683,5.416,2.1202,2.1178,2.0823,1.94,2.0505,2.142,2.092,2.2042,2.3396,2.4641,2.5603,2.6834,2.8555,3.0256,3.1964,3.3746,3.6307,3.804,3.8542,3.9195,3.9823,4.0474,4.0926,4.148,4.2187,4.3338,4.4192,4.4589,4.5321,4.5874,4.6301,4.6301,4.6301,4.6301,4.5849,4.5648,4.5623,4.5146,4.4644,4.4141,4.4141,4.379,4.3137,4.1706,4.0752,4.0224,4.0551,4.045,4.03,4.1051,4.1378,4.1378,4.0826,4.045,4.0181,4.0119,4.1464,0.0,0.0,0.0,0.0,0.0,0.0,0.0,0.0,4.8398,4.8288,4.8863,4.9459,5.0029,5.0458,4.9636,4.9752,5.2377,5.1184,5.1062,5.4297,5.2939,5.2444,5.466,5.2064,5.1306,5.4454,5.2847,5.2833,5.5815,5.4074,5.3512,5.4924,5.3351,5.2729,5.3347,5.298,5.3206,5.4185,5.4185,5.4662,5.5541,5.5125,5.534,5.6194,5.5742,5.5842,5.6394,5.6935,5.7111,5.7035,5.765,5.7826,5.77,5.7311,5.6394,5.5225,5.5125,5.539,5.5867,2.2605,2.2493,2.1896,2.0037,2.076,2.1563,2.142,2.198,2.2985,2.4591,2.4917,2.5795,2.7971,2.9704,3.1562,3.3721,3.5981,3.7336,3.7386,3.8391,3.9421,4.0475,4.0549,4.1078,4.2187,4.3714,4.4539,4.4589,4.5668,4.625,4.6301,4.6301,4.6301,4.6301,4.625,4.6225,4.6225,4.615,4.5799,4.5296,4.5296,4.4945,4.4338,4.3689,4.2785,4.1858,4.1378,4.153,4.1858,4.1428,4.1656,4.1984,4.1403,4.153,4.181,4.1288,4.2474,4.3956,4.4007,4.5425,4.7514,5.0037,4.8692,4.7554,0.0,4.9358,4.8179,5.0569,5.0594,5.0309,5.0846,5.1189,5.1267,5.0812,5.0958,5.1582,5.2962,5.2918,5.3218,5.4483,5.2968,5.2337,5.3723,5.3161,5.2891,5.3292,5.3085,5.3199,5.3835,5.3662,5.4009,5.5089,5.5039,5.5315,5.5917,5.5917,5.5993,5.6118,5.6068,5.6093,5.6219,5.6143,5.642,5.6935,5.7549,5.7499,5.7035,5.765,5.76,5.7136,5.7625,5.77,5.7474,5.6947,5.7123,5.7625,2.2819,2.2694,2.2215,2.0661,2.1332,2.1929,2.1553,2.2214,2.302,2.3722,2.4114,2.4808,2.6046,2.8806,3.1386,3.3266,3.5452,3.6859,3.7185,3.8266,3.9245,3.9998,4.035,4.0877,4.1656,4.2986,4.3815,4.4141,4.5271,4.5824,4.5849,4.615,4.6301,4.6301,4.6301,4.6301,4.6301,4.6301,4.6175,4.5974,4.5974,4.5623,4.507,4.4464,4.3991,4.3438,4.2233,4.1756,0.0,4.1781,4.221,4.2612,4.2359,4.2459,4.2487,4.1578,4.2649,4.4466,4.6001,4.7133,4.8315,4.9885,4.9277,4.8735,5.0373,4.9926,4.9383,5.0175,5.0782,5.1031,5.0689,5.112,5.1379,5.097,5.1674,5.2402,5.282,5.3482,5.416,5.4974,5.4436,5.4059,5.4185,5.431,5.4361,5.4361,5.4928,5.5379,5.5616,5.5605,5.6018,5.6821,5.6219,5.6118,5.6659,5.6369,5.6369,5.6659,5.6369,5.657,5.7173,5.6846,5.696,5.7549,5.7801,5.775,5.7549,5.7801,5.775,5.7549,5.7801,5.8102,5.8303,5.775,5.7901,5.8378,2.3031,2.2672,2.2182,2.144,2.1786,2.1982,2.1577,2.2408,2.3095,2.3095,2.3487,2.4079,2.4917,2.7802,3.0357,3.2035,3.407,3.5602,3.6433,3.7587,3.8592,3.9421,3.9998,4.0524,4.1076,4.2333,4.319,4.3564,4.4694,4.5246,4.5246,4.5648,4.5819,4.5819,4.5819,4.5819,4.5819,4.5819,4.5819,4.5819,4.5819,4.5598,4.5196,4.4618,4.4292,4.4016,4.2838,4.2233,4.203,4.2336,4.2688,4.3014,4.3014,4.3115,4.3037,4.2231,4.3343,4.5262,4.7244,4.811,4.8762,4.9831,4.9548,4.9209,5.0078,5.0091,4.9917,4.9837,5.0666,5.1266,5.0741,5.1122,5.1498,5.1498,5.2427,5.3206,5.3356,5.421,5.5024,5.5541,5.5742,5.5691,5.529,5.5616,5.5842,5.5842,5.6721,5.7161,5.701,5.6985,5.7186,5.765,5.6872,5.6684,5.7236,5.6872,5.6872,5.7236,5.6872,5.7097,5.7876,5.7474,5.7499,5.7901,5.7901,5.7801,5.7675,5.7826,5.7801,5.7675,5.7826,5.8152,5.8453,5.8052,5.8328,5.893,2.3588,2.2569,2.1904,2.245,2.1996,2.1521,2.1507,2.2408,2.3095,2.3095,2.312,2.3747,2.5385,2.6683,2.809,2.9754,3.1386,3.3022,3.4678,3.5854,3.7209,3.8843,3.9446,3.9973,4.0499,4.2133,4.3014,4.3039,4.4116,4.4614,4.4614,4.464,4.464,4.464,4.464,4.464,4.464,4.464,4.464,4.464,4.464,4.464,4.4564,4.4041,4.3489,4.3039,4.2989,4.3288,4.3639,4.314,4.2989,4.3014,4.3014,4.3338,4.3765,4.374,4.5007,4.6565,4.731,4.7858,4.8726,5.0837,4.9627,4.8486,5.0503,4.9858,4.914,5.0167,5.0426,5.0602,5.118,5.1699,5.2076,5.2076,5.298,5.3884,5.4471,5.5049,5.5566,5.6118,5.6609,5.6935,5.6935,5.6935,5.6935,5.6935,5.7524,5.7625,5.7035,5.6985,5.701,5.7035,5.6985,5.7236,5.7876,5.7851,5.7851,5.7876,5.7851,5.7876,5.7901,5.7876,5.7876,5.7901,5.7901,5.7575,5.706,5.7675,5.7575,5.7085,5.7675,5.7901,5.7926,5.7901,5.8554,5.9483,2.4197,2.3606,2.3229,2.3879,2.331,2.2772,2.2772,2.2956,2.3095,2.3095,2.3095,0.0,0.0,0.0,0.0,0.0,2.998,3.1516,3.2466,3.46,3.6232,3.7185,3.8467,3.9421,3.9948,4.0877,4.153,4.1854,4.2635,4.3014,4.3039,4.374,4.4091,4.4091,4.4439,4.4589,4.4564,4.4213,4.4091,4.4041,4.3689,4.3539,4.3514,4.3341,4.3165,4.3014,0.0,4.2635,4.2105,4.193,4.2384,4.3065,4.3413,4.4166,4.4995,4.5347,4.6121,4.6934,4.7172,4.7881,4.8769,4.9506,4.9594,4.9744,5.0442,5.0532,5.0879,5.2362,5.2024,5.1941,5.3268,5.3317,5.3155,5.3155,5.411,5.4888,5.5089,5.5591,5.6143,5.6659,5.6885,5.6985,5.6985,5.7336,5.7449,5.7035,5.7575,5.765,5.7035,5.7399,5.76,5.76,5.76,5.7524,5.7286,5.7286,5.7286,5.7286,5.7725,5.7901,5.7901,5.7901,5.7901,5.7901,5.7901,5.7775,5.7625,5.7826,5.7775,5.7625,5.7826,5.8127,5.8453,5.8453,5.888,5.9433,2.4874,2.4464,2.4235,2.49,2.4117,0.0,0.0,0.0,0.0,0.0,0.0,0.0,0.0,0.0,0.0,0.0,0.0,2.9704,3.1035,3.2946,3.4552,3.5753,3.721,3.8341,3.9069,3.9848,4.0474,4.1026,4.158,4.1884,4.1882,4.2585,4.2911,4.2908,4.3259,4.3435,4.341,4.3034,4.3137,4.3438,4.2685,4.2635,4.2964,4.2534,4.2258,0.0,4.2333,4.1806,4.1102,4.1704,4.2384,4.309,4.3639,4.4719,4.5924,4.6677,4.7405,4.7977,4.7977,4.8812,4.9698,4.9698,5.0343,5.1021,5.1021,5.1322,5.1883,5.297,5.2458,5.227,5.3712,5.3691,5.3432,5.3432,5.4536,5.5315,5.5114,5.5917,5.6609,5.696,5.7361,5.7587,5.7587,5.7976,5.7876,5.706,5.7575,5.765,5.7035,5.7361,5.7499,5.7298,5.7298,5.7223,5.6985,5.6985,5.7111,5.7349,5.7725,5.7901,5.7901,5.7901,5.7901,5.7901,5.7901,5.7901,5.7901,5.7901,5.7901,5.7901,5.7901,5.8102,5.8428,5.8428,5.8146,5.7855,2.5633,2.5188,2.4961,0.0,0.0,0.0,0.0,0.0,0.0,0.0,0.0,0.0,0.0,0.0,0.0,0.0,0.0,0.0,3.0231,3.1009,3.2315,3.4427,3.5682,3.681,3.7864,3.8969,3.9772,4.03,4.08,4.1076,4.1102,4.1127,4.1152,4.1202,4.1227,4.1227,4.1227,4.1202,4.1831,4.2738,4.1628,4.1856,4.2713,4.1628,4.0901,4.0524,4.1076,4.0926,4.0725,4.2361,4.2964,4.3165,4.3815,4.5146,4.6677,4.7757,4.8837,4.969,4.969,5.0494,5.1356,5.1356,5.1749,5.2151,5.2151,5.2176,5.221,5.2287,5.1817,5.1758,5.2882,5.3014,5.297,5.297,5.4361,5.5239,5.4723,5.6018,5.701,5.7035,5.8014,5.8691,5.8691,5.8691,5.8215,5.7085,0.0,5.76,5.6985,5.696,5.6734,5.6269,5.6244,5.652,5.7035,5.706,5.7361,5.7951,5.7976,5.7976,5.7976,5.7976,5.7976,5.7976,5.7976,5.7976,5.7976,5.7976,5.7976,5.7976,5.7976,5.7901,5.7825,5.7825,5.642,5.5009,0.0,0.0,0.0,0.0,0.0,0.0,0.0,0.0,0.0,0.0,0.0,0.0,0.0,0.0,0.0,0.0,0.0,0.0,2.7462,2.9578,3.1215,3.219,3.4123,3.5456,3.611,3.686,3.7311,3.7436,3.7587,3.7839,3.8241,3.8642,3.9094,3.9521,3.9923,4.0124,4.0099,3.9672,3.9898,4.0475,3.9772,3.9949,4.0501,4.0224,4.0023,3.9973,4.0499,4.0625,4.0549,4.1003,4.2233,4.3966,4.6175,4.7732,4.8987,5.0092,5.0619,5.0878,5.0878,5.1348,5.19,5.19,5.2302,5.2694,5.2694,5.303,5.3535,5.4378,5.3784,5.3569,5.5164,5.4747,5.4195,5.4195,5.5189,5.5817,5.5265,5.6244,5.7161,5.7625,5.8303,5.8691,5.8691,5.8691,5.8215,5.7085,5.7136,5.6985,5.6408,5.642,5.6508,5.6784,5.6784,5.706,5.7675,5.8077,5.834,5.8504,5.8905,5.9081,5.9081,5.9081,5.9081,5.9081,5.9081,5.9081,5.9081,5.9081,5.9081,5.9081,5.9081,5.8066,5.661,5.6625,5.5449,5.397,0.0,0.0,0.0,0.0,0.0,0.0,0.0,0.0,0.0,0.0,0.0,0.0,0.0,0.0,0.0,0.0,0.0,0.0,0.0,2.7939,2.9252,3.0256,3.1968,3.3398,3.4427,3.5228,3.5655,3.5655,3.6381,3.6658,3.6483,3.7513,3.8191,3.8542,3.8818,3.8944,3.8944,3.8617,3.8969,0.0,0.0,3.8969,3.9647,3.9145,3.8944,3.9019,3.9597,4.0099,4.06,4.1354,4.2911,4.4895,4.6898,4.851,4.9816,5.0979,5.1624,5.2,5.2,5.2578,5.3181,5.3181,5.3406,5.3658,5.3658,5.3683,5.386,5.4534,5.3945,5.3794,5.5289,5.481,5.422,5.422,5.4913,5.529,5.4737,5.5817,5.6759,5.7123,5.7876,5.8453,5.8704,5.8504,5.8303,5.8127,5.7412,5.686,5.6559,5.6533,5.6784,5.7399,5.7387,5.7675,5.8252,5.878,5.9056,5.9056,5.9357,5.9483,5.9483,5.9483,5.9483,5.9483,0.0,5.9483,5.9483,5.9483,5.9483,5.9483,5.9483,5.8256,5.6491,5.6508,5.4751,5.243,0.0,0.0,0.0,0.0,0.0,0.0,0.0,0.0,0.0,2.3421,2.3246,2.3095,0.0,0.0,0.0,0.0,0.0,0.0,0.0,0.0,2.7035,2.8505,2.9659,3.0984,3.2512,3.3545,3.4076,3.4151,3.5604,3.5906,3.5082,3.6635,3.7362,3.7362,3.7513,3.7538,3.7462,3.7538,3.8191,3.9069,3.8065,3.8316,3.9145,0.0,3.7839,3.799,3.8668,3.9572,4.0803,4.2656,4.4291,4.5723,4.7023,4.8535,5.0042,5.1172,5.2226,5.2995,5.2995,5.3833,5.4697,5.4622,5.4597,5.4572,5.4496,5.4135,5.3783,5.3632,5.3356,5.3432,5.4421,5.412,5.3733,5.3808,5.427,5.4421,5.3884,5.5139,5.6168,5.6294,5.7198,5.8001,5.8554,5.8303,5.8478,5.9332,5.8127,5.7286,5.7211,5.7161,5.7387,5.7976,5.8077,5.8353,5.8805,5.9282,5.9483,5.9483,5.9483,5.9483,5.9483,5.9483,5.9483,5.9483,0.0,0.0,5.9508,5.9173,5.9032,5.9056,5.8795,5.758,5.6023,5.6093,5.3727,5.0515,0.0,0.0,0.0,0.0,0.0,0.0,0.0,0.0,0.0,0.0,2.3963,2.3095,0.0,0.0,0.0,0.0,0.0,0.0,0.0,0.0,0.0,2.6876,2.7964,2.8881,2.9609,3.0306,3.0859,3.1315,3.1591,3.2093,3.2796,3.3571,3.3944,3.3994,3.4876,3.5052,3.465,3.5079,3.5656,3.621,3.6009,3.6358,3.6934,3.6758,3.6959,0.0,3.8517,3.9572,4.0937,4.3854,4.5122,4.5924,4.8385,5.0017,5.1197,5.2327,5.308,5.3557,5.3557,5.4386,5.5139,5.4723,5.4597,5.4471,5.3959,5.4135,5.4195,5.3256,5.3708,5.4371,5.4572,5.412,5.3858,5.4371,5.4522,5.4572,5.4471,5.5099,5.5867,5.6734,5.7035,5.7387,5.7976,5.8755,5.9131,5.888,5.8981,5.888,5.8403,5.7976,5.8001,5.8567,5.8981,5.9257,5.9357,5.9458,5.9483,5.9483,5.9483,5.9483,5.9483,5.9483,5.9483,5.9483,5.9483,0.0,5.9367,5.7549,5.6773,5.6646,5.5206,5.3279,5.1381,5.1788,5.0554,4.8655,0.0,0.0,0.0,0.0,0.0,0.0,0.0,2.5115,2.5017,2.6691,2.5963,2.5184,2.4908,2.4089,2.3562,0.0,0.0,0.0,0.0,0.0,0.0,2.5603,2.6683,2.7512,2.8072,2.89,2.9308,2.9283,0.0,3.0563,3.0512,3.1662,3.234,3.2641,3.3169,3.3445,3.3517,3.3746,3.4198,3.4678,3.4678,3.5027,3.5598,3.6519,3.7573,0.0,3.9197,3.9905,4.1018,4.449,4.6136,4.7322,5.097,5.227,5.2722,5.3863,5.4217,5.4195,5.4195,5.4963,5.5691,5.5139,5.4823,5.4446,5.3833,5.3708,5.3632,5.3381,5.3758,5.4245,5.4547,5.4371,5.4235,5.4547,5.4346,5.411,5.411,5.4612,5.5164,5.5691,5.6244,5.6821,5.7399,5.8428,5.9207,5.9533,6.006,6.001,5.9131,5.8855,5.8855,5.9081,5.9357,5.9483,5.9483,5.9483,5.9483,5.9483,5.9483,5.9483,5.9483,5.9483,5.9483,5.9483,5.9483,0.0,5.7731,5.6925,5.5892,5.4774,5.4156,5.2668,5.0891,5.1122,5.0071,4.8535,0.0,0.0,0.0,0.0,0.0,0.0,2.7418,2.6427,2.6272,2.8355,2.8373,2.7939,2.7278,2.5603,2.4397,0.0,0.0,0.0,0.0,0.0,0.0,0.0,0.0,0.0,2.6934,0.0,0.0,2.7921,2.9252,0.0,0.0,0.0,0.0,0.0,3.1587,3.1888,3.2236,3.2462,3.2867,0.0,0.0,3.3925,3.4712,0.0,0.0,0.0,0.0,4.0661,4.1647,4.5014,4.7015,4.8842,5.3012,5.4251,5.4304,5.5042,5.5122,5.4984,5.5086,5.5511,5.5767,5.5315,5.4924,5.4421,5.3683,5.3406,5.3281,5.3356,5.3532,5.3808,5.4195,5.4346,5.4446,5.4572,5.4084,5.3758,5.3858,5.4195,5.4547,5.4924,5.5591,5.6344,5.7111,5.8202,5.9257,6.0236,6.0964,6.0914,5.991,5.9734,5.9734,5.9859,5.9734,5.9659,5.9659,5.9659,5.9608,5.9483,5.9483,5.9483,5.9483,5.9483,5.9326,5.8933,5.8848,0.0,0.0,5.5532,5.4479,5.302,5.2949,5.2038,5.0806,5.0909,5.0091,4.8913,0.0,0.0,0.0,0.0,0.0,0.0,2.7615,2.778,2.8423,3.0136,3.0758,3.0633,2.9603,2.758,2.5669,0.0,0.0,0.0,0.0,0.0,0.0,0.0,0.0,0.0,0.0,0.0,0.0,2.7361,2.7537,0.0,0.0,0.0,0.0,0.0,0.0,2.9754,2.9358,3.0387,0.0,0.0,0.0,0.0,0.0,0.0,0.0,0.0,0.0,4.2253,4.3551,4.5578,4.7541,4.9742,5.3085,5.4966,5.5795,5.4927,5.5373,5.6258,5.6749,5.5828,5.4748,5.4697,5.4647,5.4321,5.3231,5.3733,5.4044,5.2553,5.303,5.3582,5.3155,5.3457,5.3959,5.4522,5.4084,5.3884,5.4446,5.4084,5.4361,5.5867,5.5717,5.6093,5.765,5.878,5.9659,6.0261,6.1316,6.1667,6.1065,6.0537,6.0487,6.1014,6.0512,6.0236,6.0236,6.0236,5.9985,5.9483,5.9483,5.9483,5.9483,5.9483,5.8615,5.7131,5.6693,0.0,0.0,5.1787,5.0972,5.098,4.9371,4.8644,4.8561,4.9,4.9039,4.8913,0.0,0.0,0.0,0.0,0.0,0.0,2.9882,2.9313,2.9575,3.2115,3.2286,3.1687,3.0416,2.9503,2.777,2.4741,0.0,0.0,0.0,0.0,0.0,0.0,0.0,0.0,0.0,0.0,2.6776,2.7311,2.7311,0.0,0.0,0.0,0.0,0.0,0.0,2.9339,3.0291,3.0176,0.0,0.0,0.0,0.0,0.0,0.0,0.0,0.0,0.0,0.0,4.3907,4.662,4.8296,4.9717,5.1984,5.4566,5.6763,5.6895,5.6567,5.6235,5.654,5.5864,5.4924,5.421,5.4059,5.3858,5.3071,5.3005,5.3005,5.2678,5.2678,5.2779,5.287,5.3356,5.3884,5.4496,5.4421,5.4536,5.544,5.5365,5.5591,5.6559,5.6821,5.7173,5.7826,5.9156,6.0512,6.1702,6.2245,6.2395,6.2195,6.1316,6.0939,6.1165,6.0964,6.0839,6.0839,6.0487,6.0211,5.9985,5.9985,5.9255,5.7941,5.8256,5.7261,5.526,5.5076,0.0,0.0,5.1326,5.0328,4.9257,4.8783,4.8594,4.8613,4.8835,4.8913,4.8913,0.0,0.0,0.0,0.0,0.0,2.8527,3.0877,3.016,3.0202,3.2606,3.271,3.1992,3.0516,3.0593,2.9333,2.5854,2.4757,0.0,0.0,0.0,0.0,0.0,0.0,0.0,0.0,0.0,2.6909,2.7311,2.7462,2.772,0.0,0.0,2.8304,2.8656,0.0,0.0,0.0,0.0,0.0,0.0,0.0,0.0,0.0,0.0,0.0,0.0,0.0,0.0,0.0,0.0,0.0,4.9286,5.0825,5.3466,5.6195,5.7426,5.7,5.6119,5.6252,5.5606,5.4662,5.3708,5.3708,5.3733,5.2879,5.2628,5.2603,5.2678,5.2468,5.2427,5.2594,5.3231,5.3884,5.4496,5.4597,5.4924,5.5842,5.6118,5.647,5.7161,5.7801,5.8328,5.883,6.006,6.1366,6.2681,6.2781,6.2781,6.2781,6.2094,6.1667,6.1667,6.1517,6.1441,6.1441,6.1014,6.0738,6.0563,5.9841,5.8676,5.7116,5.679,5.5458,5.3383,0.0,0.0,0.0,5.0477,4.9673,4.8437,4.8776,4.8913,4.8913,4.8913,4.8913,4.8913,0.0,0.0,0.0,0.0,0.0,0.0,2.9751,3.0086,3.038,3.0928,3.1724,3.1587,2.998,3.0533,2.9995,2.7483,2.5762,0.0,0.0,0.0,0.0,0.0,0.0,0.0,0.0,0.0,2.7286,2.7311,2.7821,2.8097,2.8097,2.8097,2.8097,2.8122,0.0,0.0,0.0,0.0,0.0,0.0,0.0,0.0,3.9794,0.0,0.0,0.0,0.0,0.0,0.0,0.0,0.0,0.0,0.0,5.1605,5.3617,5.5632,5.612,5.6041,5.6239,5.5014,5.3582,5.302,5.3758,5.417,5.2477,5.2929,5.3381,5.2327,5.2553,5.2719,5.2226,5.298,5.3884,5.4496,5.4597,5.4798,5.5315,5.5867,5.662,5.775,5.8378,5.9357,6.0989,6.1667,6.222,6.2756,6.2781,0.0,6.2781,6.2781,6.2781,6.2781,6.2295,6.1994,6.1994,6.1994,6.1718,6.1165,5.8847,5.7696,5.7614,5.5306,5.3233,0.0,0.0,0.0,0.0,4.8424,4.8503,4.8894,4.8913,4.8913,4.8913,4.8913,4.8913,4.8913,0.0,0.0,0.0,0.0,0.0,0.0,0.0,2.99,3.0028,3.1231,3.1061,3.0776,3.0646,2.9984,2.9358,2.8784,2.6869,0.0,0.0,0.0,0.0,0.0,0.0,0.0,0.0,0.0,2.8682,2.9553,3.0386,3.1187,3.198,3.198,3.1966,3.1829,3.1496,3.1778,0.0,0.0,0.0,0.0,0.0,3.9784,4.0945,0.0,0.0,0.0,0.0,0.0,0.0,0.0,0.0,0.0,0.0,0.0,0.0,5.5134,5.633,5.6852,5.6385,5.5554,5.442,5.275,5.2904,5.3206,5.2302,5.2377,5.2528,5.2176,5.2251,5.2427,5.2594,5.3231,5.3884,5.4496,5.4924,5.544,5.6394,5.6997,5.7625,5.8378,5.9218,6.0161,6.109,6.1692,6.2245,6.2756,6.2781,6.2781,6.2781,6.2781,6.2781,6.2781,6.2647,6.2571,6.2571,6.2195,6.1101,5.9363,5.8597,5.6567,5.3473,5.3123,5.1786,0.0,0.0,0.0,0.0,4.8757,4.8776,4.8913,4.8913,4.8913,4.8913,4.8913,4.8913,4.8913,0.0,0.0,0.0,0.0,0.0,0.0,0.0,2.9247,2.9261,3.0543,3.0047,2.9891,3.0761,3.0184,2.9768,2.9852,2.8085,0.0,0.0,0.0,0.0,0.0,0.0,0.0,0.0,2.9329,3.0628,3.2156,3.3211,3.4239,3.5197,3.5197,3.5038,3.4714,3.439,3.4558,0.0,0.0,0.0,0.0,3.9483,4.0576,4.1463,0.0,0.0,0.0,0.0,0.0,0.0,0.0,0.0,0.0,0.0,0.0,0.0,0.0,5.5515,5.5908,5.5367,5.5253,5.4752,5.2388,5.2377,5.2694,5.1975,5.195,5.2176,5.2377,5.2427,5.2578,5.3096,5.3658,5.421,5.4823,5.5516,5.6168,5.6609,5.7575,5.8478,5.9232,6.0286,6.109,6.1466,6.1994,6.2446,6.2756,6.2781,6.2781,6.2781,6.2781,6.2781,6.2781,6.2781,6.2388,6.1515,6.1129,5.9836,5.7503,5.663,5.465,5.1812,5.1318,5.0276,0.0,0.0,0.0,0.0,4.8913,4.8913,4.8913,4.8913,4.8913,4.8913,4.8913,4.8913,4.8913,0.0,0.0,0.0,0.0,0.0,0.0,0.0,2.8226,2.8254,2.9129,2.8737,2.8936,3.0365,3.0697,3.0743,3.0516,0.0,0.0,0.0,0.0,0.0,0.0,0.0,0.0,0.0,3.1326,3.2935,3.4891,3.6186,3.7166,3.7774,3.785,3.7534,3.6929,3.6929,3.7034,0.0,0.0,0.0,0.0,3.9242,4.0277,0.0,0.0,0.0,0.0,0.0,0.0,0.0,0.0,0.0,0.0,0.0,0.0,0.0,0.0,0.0,0.0,0.0,5.4261,5.4491,5.1932,5.2051,5.2553,5.1574,5.1724,0.0,5.277,5.292,5.3096,5.3607,5.421,5.4823,5.5265,5.6244,5.6784,5.6344,5.7675,5.9068,6.0136,6.1266,6.1969,6.1994,6.2496,6.2781,6.2781,6.2781,6.2781,6.2781,6.2659,6.2552,6.2552,6.2388,6.1325,5.9307,5.9138,5.7906,5.5617,5.3437,5.2297,5.2072,4.9865,4.8913,0.0,0.0,0.0,0.0,4.8913,4.8913,4.8913,4.8913,4.8913,4.8913,4.8913,4.8913,4.8913,0.0,0.0,0.0,0.0,0.0,0.0,0.0,0.0,0.0,0.0,2.7831,2.7928,2.9442,2.8616,2.8428,0.0,0.0,0.0,0.0,0.0,0.0,0.0,0.0,0.0,0.0,3.2857,3.4607,3.6607,3.8145,3.951,4.0658,4.1157,4.1013,4.029,4.029,3.9735,0.0,0.0,0.0,0.0,4.0457,4.1134,0.0,0.0,0.0,0.0,4.5125,4.5843,0.0,0.0,0.0,0.0,0.0,0.0,0.0,0.0,5.3627,5.3599,5.274,0.0,5.304,5.1628,5.1473,5.1699,0.0,5.2026,5.2251,5.277,5.3256,5.3557,5.3683,5.4511,5.5125,5.4848,5.5691,5.6483,5.6759,5.7888,5.8956,5.9608,6.0688,6.1542,6.1969,6.2496,6.2781,6.2781,6.2781,6.2781,6.2781,6.1118,6.0111,6.0111,5.8441,5.8077,5.9307,5.7564,5.553,5.3215,5.2634,5.1462,4.9702,4.917,4.8913,0.0,0.0,0.0,4.8913,4.8913,4.8913,4.8913,4.8913,4.8913,4.8913,4.8913,4.8913,4.8913,0.0,0.0,0.0,0.0,0.0,0.0,0.0,0.0,0.0,0.0,0.0,2.8067,2.9301,2.8683,0.0,0.0,0.0,0.0,0.0,0.0,0.0,0.0,0.0,0.0,3.3909,3.5378,3.724,3.9589,4.078,4.2005,4.3307,4.3336,4.3144,4.2701,4.2122,4.1283,0.0,0.0,0.0,3.9481,4.0516,0.0,0.0,0.0,0.0,0.0,4.5065,4.5753,0.0,4.7429,4.7758,4.7997,0.0,0.0,0.0,0.0,5.2322,5.1928,5.2203,5.255,5.2496,5.1198,5.1272,5.1724,5.2026,5.2477,5.3005,5.3557,5.411,5.4486,5.4486,5.5189,5.5666,5.5365,5.6244,5.7349,5.8365,5.8817,5.9382,6.0186,6.104,6.1667,6.1969,6.2496,6.2781,6.2781,6.1804,6.1201,6.1201,5.8992,5.7735,5.7735,5.5508,5.4917,5.6095,5.4917,5.3125,5.0803,5.0803,5.0139,4.8913,4.8913,4.8913,0.0,0.0,0.0,4.8913,4.8913,4.8913,4.8913,4.8913,4.8913,4.8913,4.8913,4.8913,4.8913,0.0,0.0,0.0,0.0,0.0,0.0,0.0,0.0,0.0,0.0,0.0,0.0,0.0,0.0,0.0,0.0,0.0,0.0,0.0,0.0,0.0,0.0,0.0,3.4681,3.6613,3.811,4.0086,4.2541,4.3319,4.4287,4.5454,4.4975,4.4655,4.4407,4.311,4.2122,0.0,0.0,3.9481,3.9481,4.0247,0.0,0.0,0.0,0.0,0.0,0.0,0.0,0.0,4.7698,4.8229,4.8409,4.9097,0.0,0.0,0.0,0.0,0.0,5.1813,5.2265,5.2022,5.0829,5.1197,5.1925,5.2176,5.2929,5.3758,5.4471,5.5049,5.539,5.539,5.5842,5.6194,5.6093,5.7097,5.8378,5.9759,5.9759,5.9985,6.0939,6.1617,6.2044,6.2119,6.2195,6.2265,6.2265,6.0111,5.8799,5.8799,5.6594,5.5355,5.5355,5.3081,5.1847,5.1847,5.1847,5.0894,4.8913,4.8913,4.8913,4.8913,4.8913,4.8913,0.0,0.0,0.0,4.8913,4.8913,4.8913,4.8913,4.8913,4.8913,4.8913,4.8913,4.8913,4.8913,0.0,0.0,0.0,0.0,0.0,0.0,0.0,0.0,0.0,0.0,0.0,0.0,0.0,0.0,0.0,0.0,0.0,0.0,0.0,0.0,0.0,0.0,0.0,0.0,3.7225,3.9697,4.1654,4.316,4.4407,4.5394,4.6151,4.6621,4.6232,4.5095,4.3758,4.2521,4.1343,4.0576,3.99,3.9511,4.0756,0.0,0.0,0.0,0.0,0.0,0.0,0.0,0.0,4.701,4.7818,4.8409,4.9097,0.0,0.0,0.0,0.0,0.0,5.1343,5.0862,5.024,5.0962,5.0921,5.1013,5.2443,5.2895,5.3331,5.4396,5.5049,5.539,5.539,5.5842,5.6068,5.5591,5.6846,5.7976,5.8227,5.9382,6.0261,6.0437,6.1366,6.2195,6.2606,6.092,5.9835,5.9835,5.7735,5.64,5.64,5.4213,5.2947,5.2947,5.0666,4.9426,4.9426,4.9426,4.9262,4.8913,4.8913,4.8913,4.8913,4.8913,4.8913,0.0,0.0,4.8913,4.8913,4.8913,4.8913,4.8913,4.8913,4.8913,4.8913,4.8913,4.8913,4.8913,0.0,0.0,0.0,0.0,0.0,0.0,0.0,0.0,0.0,0.0,0.0,0.0,0.0,0.0,0.0,0.0,0.0,0.0,0.0,0.0,0.0,0.0,0.0,0.0,0.0,4.0745,4.275,4.4356,4.5723,4.6711,4.7369,4.7339,4.6591,4.5244,4.4267,4.3309,4.2451,4.1762,4.1104,4.0576,0.0,0.0,0.0,0.0,0.0,0.0,0.0,0.0,0.0,0.0,4.8588,4.9007,5.0002,0.0,0.0,0.0,0.0,0.0,5.0727,5.0201,4.9941,5.1373,5.1749,5.2092,5.3507,5.3808,5.4034,5.4873,5.5214,5.539,5.539,5.5591,5.5792,5.5817,5.7248,5.8428,5.873,5.9935,6.0889,6.119,6.1943,6.2032,6.101,5.9919,5.8799,5.7564,5.5312,5.3992,5.3992,5.1757,5.0484,5.0484,4.9472,4.8913,4.8913,4.8913,4.8913,4.8913,4.8913,4.8913,4.8913,4.8913,4.8913,4.8913,0.0,4.8913,4.8913,4.8913,4.8913,4.8913,4.8913,4.8913,4.8913,4.8913,4.8913,4.8913,0.0,0.0,0.0,0.0,0.0,0.0,0.0,0.0,0.0,0.0,0.0,0.0,0.0,0.0,0.0,0.0,0.0,0.0,0.0,0.0,0.0,0.0,0.0,0.0,0.0,4.1972,4.3948,4.5753,4.7228,4.8177,4.8528,4.7698,4.6681,4.5514,4.4825,4.4107,4.3379,4.2661,4.2021,4.1463,0.0,0.0,0.0,0.0,0.0,0.0,0.0,0.0,0.0,0.0,0.0,0.0,0.0,0.0,0.0,5.1277,5.0909,5.0761,5.0339,4.9986,5.0193,5.1875,5.2628,5.3206,5.4346,5.4597,5.4748,5.5265,5.539,5.544,5.5566,5.5591,5.5842,5.6671,5.7775,5.8805,5.9583,6.0537,6.1391,6.1943,6.1998,6.1284,5.9475,5.8309,5.6982,5.5224,5.2902,5.1577,5.1577,4.9865,4.8913,4.8913,4.8913,4.8913,4.8913,4.8913,4.8913,4.8913,4.8913,4.8913,4.8913,4.8913,4.8913,4.8913,4.8913,4.8913,4.8913,4.8913,4.8913,4.8913,4.8913,4.8913,4.8913,4.8913,4.8913,4.8913,0.0,0.0,0.0,0.0,0.0,0.0,0.0,0.0,0.0,0.0,0.0,0.0,0.0,0.0,0.0,0.0,0.0,0.0,0.0,0.0,0.0,0.0,0.0,0.0,0.0,4.3798,4.5753,4.716,4.9052,4.9733,4.9187,4.7908,4.692,4.6211,4.5544,4.4556,0.0,0.0,4.2021,4.1463,4.2141,0.0,0.0,0.0,0.0,0.0,0.0,0.0,0.0,0.0,0.0,0.0,0.0,0.0,5.2841,5.1422,5.1245,5.1338,5.0419,5.0269,5.0737,5.2418,5.287,5.3206,5.4346,5.4597,5.4748,5.5265,5.539,5.5541,5.6068,5.6143,5.6671,5.8278,5.8202,5.8504,6.0035,6.0788,6.1391,6.1943,6.0569,5.9475,5.9307,5.542,5.2813,5.2634,5.0484,4.917,4.917,4.8986,4.8913,4.8913,4.8913,4.8913,4.8913,4.8913,4.8913,4.8913,4.8913,4.8913,4.8913,4.8913,4.8913,4.8913,4.8913,4.8913,4.8913,4.8913,4.8913,4.8913,4.8913,4.8913,4.8913,4.8913,4.8913,4.8913,0.0,0.0,0.0,0.0,0.0,0.0,0.0,0.0,0.0,0.0,0.0,0.0,0.0,0.0,0.0,0.0,0.0,0.0,0.0,0.0,0.0,0.0,0.0,3.9032,4.2502,4.4377,4.6352,4.8558,4.9284,4.9733,4.98,4.8117,4.716,4.6869,4.6211,0.0,0.0,0.0,0.0,4.2592,4.288,4.297,0.0,0.0,0.0,0.0,0.0,0.0,0.0,0.0,4.9164,5.0345,5.1176,5.2247,5.2788,5.0794,5.1099,5.1682,4.9819,5.0376,5.1699,5.2644,5.3673,5.4662,5.5415,5.4787,5.4285,5.5189,5.539,5.5666,5.6533,5.7298,5.7876,5.8152,5.8604,5.9106,5.9709,6.0588,6.0861,5.9926,5.9523,5.8181,5.5289,5.3416,5.1802,5.0322,4.938,0.0,4.8913,4.8913,4.8913,4.8913,4.8913,4.8913,4.8913,4.8913,4.8913,4.8913,4.8913,4.8913,4.8913,4.8913,4.8913,4.8913,4.8913,4.8913,4.8913,4.8913,4.8913,4.8913,4.8913,4.8913,4.8913,4.8913,4.8913,4.8913,0.0,0.0,0.0,0.0,0.0,0.0,0.0,0.0,0.0,0.0,0.0,0.0,0.0,0.0,0.0,0.0,0.0,0.0,0.0,3.2497,3.3993,0.0,0.0,3.9379,4.294,4.4526,4.6522,4.8977,4.8977,4.9284,4.986,4.8095,4.7429,0.0,0.0,0.0,0.0,0.0,0.0,0.0,4.3379,4.329,0.0,0.0,0.0,0.0,0.0,0.0,0.0,0.0,4.9164,5.0335,5.1237,5.1974,5.2076,4.9911,5.0691,5.1755,4.9645,5.077,5.2653,5.2845,5.4034,5.5315,5.6043,5.5315,5.4762,5.5717,5.6194,5.662,5.7161,5.8039,5.8654,5.8428,5.888,5.9433,5.996,6.0045,5.9772,5.8879,5.7801,5.5877,5.2724,5.1712,5.0621,4.9032,4.8913,0.0,0.0,4.8913,4.8913,4.8913,4.8913,4.8913,4.8913,4.8913,4.8913,4.8913,4.8913,4.8913,4.8913,4.8913,4.8913,4.8913,4.8913,4.8913,4.8913,4.8913,4.8913,4.8913,4.8913,4.8913,4.8913,4.8913,4.8913,4.8913,0.0,0.0,0.0,0.0,0.0,0.0,0.0,0.0,0.0,0.0,0.0,0.0,0.0,0.0,0.0,0.0,0.0,0.0,3.1451,3.2766,3.3799,3.4458,3.7002,3.9637,4.2321,4.4307,4.6313,4.8319,4.8319,4.8648,4.9247,4.7908,0.0,0.0,0.0,0.0,0.0,0.0,0.0,0.0,4.3579,4.3309,4.329,0.0,0.0,0.0,0.0,0.0,0.0,0.0,4.9134,5.0196,5.0055,5.0468,5.0675,4.8958,5.0018,5.146,5.0014,5.1599,5.3582,5.3046,5.3758,5.4898,5.5968,5.6219,5.6369,5.6885,5.7888,5.8554,5.8001,5.8353,5.8905,5.9408,5.9056,5.9269,6.0939,5.9179,5.81,5.9103,5.5202,5.2387,5.2387,5.0256,4.8913,4.8913,4.8913,0.0,0.0,4.8913,4.8913,4.8913,4.8913,4.8913,4.8913,4.8913,4.8913,4.8913,4.8913,4.8913,4.8913,4.8913,4.8913,4.8913,4.8913,4.8913,4.8913,4.8913,4.8913,4.8913,4.8913,4.8913,4.8913,4.8913,4.8913,4.8913,0.0,0.0,0.0,0.0,0.0,0.0,0.0,0.0,0.0,0.0,0.0,0.0,0.0,0.0,0.0,0.0,0.0,0.0,3.1481,3.2766,3.3799,3.4458,3.6537,3.8721,4.0954,4.3808,4.6522,4.9007,4.8528,4.8409,4.8558,4.7219,0.0,0.0,0.0,0.0,0.0,0.0,0.0,0.0,4.4087,4.3728,4.329,0.0,0.0,0.0,0.0,0.0,0.0,0.0,0.0,0.0,5.1409,5.162,5.1566,5.0849,5.0939,5.1178,5.0876,5.195,5.3306,5.3934,5.4612,5.534,5.6043,5.6219,5.6595,5.7914,5.8177,5.8328,5.8905,5.9156,5.9307,5.9458,5.9357,5.9139,5.8782,5.813,5.6912,5.4697,5.3238,5.1757,5.0094,4.9308,4.8913,4.8913,0.0,0.0,0.0,4.8913,4.8913,4.8913,4.8913,4.8913,4.8913,4.8913,4.8913,4.8913,4.8913,4.8913,4.8913,4.8913,4.8913,4.8913,4.8913,4.8913,4.8913,4.8913,4.8913,4.8913,4.8913,4.8913,4.8913,4.8913,4.8913,4.8913,0.0,0.0,0.0,0.0,0.0,0.0,0.0,0.0,0.0,0.0,2.7824,2.8321,0.0,0.0,0.0,0.0,0.0,0.0,3.1511,3.2512,3.3514,3.4458,3.5878,3.7823,4.0337,4.3629,4.6103,4.772,4.784,4.7908,4.7878,0.0,0.0,0.0,0.0,0.0,0.0,0.0,0.0,0.0,4.4796,4.4296,4.3698,0.0,0.0,0.0,0.0,0.0,0.0,0.0,0.0,0.0,5.0129,5.0334,5.072,5.053,5.0603,5.0933,5.174,5.2729,5.3733,5.4446,5.5175,5.5968,5.6972,5.7198,5.7424,5.8227,5.8654,5.893,5.9156,5.9533,5.9759,5.9533,5.8894,5.8301,5.7765,5.6262,5.4531,5.2639,5.1577,5.0439,4.9032,4.8913,4.8913,4.8913,0.0,0.0,0.0,4.8913,4.8913,4.8913,4.8913,4.8913,4.8913,4.8913,4.8913,4.8913,4.8913,4.8913,4.8913,4.8913,4.8913,4.8913,4.8913,4.8913,4.8913,4.8913,4.8913,4.8913,4.8913,4.8913,4.8913,4.8913,4.8913,4.8913,0.0,0.0,0.0,0.0,0.0,0.0,0.0,0.0,0.0,2.7585,2.8141,2.8517,0.0,0.0,0.0,3.0492,3.1092,3.1511,3.1511,3.2123,3.3066,3.4338,3.522,3.7165,4.0337,4.3449,4.5065,4.5125,4.6591,4.7309,0.0,0.0,4.8618,0.0,0.0,4.9187,0.0,0.0,0.0,0.0,0.0,4.4855,4.4207,4.4207,0.0,0.0,0.0,0.0,0.0,0.0,0.0,0.0,4.7455,4.7757,4.8735,4.8876,4.9643,5.0762,5.2443,5.3683,5.4547,5.4723,5.5516,5.6696,5.819,5.8654,5.8604,5.8152,5.9182,5.9846,5.8917,5.9583,6.0085,5.9633,5.806,5.7051,5.7408,5.4011,5.1619,5.201,5.0185,4.8913,4.8913,4.8913,4.8913,4.8913,0.0,0.0,0.0,4.8913,4.8913,4.8913,4.8913,4.8913,4.8913,4.8913,4.8913,4.8913,4.8913,4.8913,4.8913,4.8913,4.8913,4.8913,4.8913,4.8913,4.8913,4.8913,4.8913,4.8913,4.8913,4.8913,4.8913,4.8913,4.8913,4.8913,0.0,0.0,0.0,0.0,0.0,0.0,0.0,0.0,2.7585,2.7585,2.7735,2.8034,2.8547,2.9309,0.0,3.0462,3.1092,3.1511,3.1511,3.2123,3.2841,3.3679,3.5818,3.8063,4.0337,4.2122,4.3259,4.3728,4.6121,4.7309,0.0,0.0,0.0,4.8528,0.0,4.8528,0.0,0.0,0.0,0.0,0.0,4.4566,4.3519,4.3519,4.3758,0.0,0.0,0.0,0.0,0.0,0.0,0.0,4.9118,4.8648,4.8213,4.952,5.0121,5.0762,5.2443,5.3406,5.421,5.5541,5.6369,5.691,5.7286,5.8039,5.8805,5.9081,5.9106,5.9106,5.9307,5.9508,5.9784,6.0085,5.8303,5.6573,5.5699,5.3235,5.106,4.9825,4.9216,4.8913,4.8913,4.8913,4.8913,0.0,0.0,0.0,4.8913,4.8913,4.8913,4.8913,4.8913,4.8913,4.8913,4.8913,4.8913,0.0,4.8913,4.8913,4.8913,4.8913,4.8913,4.8913,4.8913,4.8913,4.8913,4.8913,4.8913,4.8913,4.8913,4.8913,4.8913,4.8913,4.8913,4.8913,0.0,0.0,0.0,0.0,0.0,0.0,0.0,0.0,2.7585,2.7585,2.7884,2.8201,2.8577,2.9445,0.0,0.0,3.1092,3.1511,3.1511,3.1839,3.2602,3.3919,3.6178,3.7883,3.8931,4.1224,4.2391,4.2382,4.5035,4.6501,0.0,0.0,0.0,4.8319,0.0,4.8768,0.0,0.0,0.0,0.0,0.0,0.0,4.4745,4.4745,4.4745,4.4855,4.5514,0.0,0.0,0.0,0.0,0.0,0.0,0.0,4.7411,4.8428,4.8966,4.969,5.1891,5.2528,5.308,5.5265,5.6244,5.6809,5.7612,5.8064,5.8554,5.9332,5.9282,5.9182,5.9433,5.9483,5.9309,5.8741,5.697,5.5066,5.3539,5.1551,4.9904,4.9012,4.8913,4.8913,4.8913,4.8913,4.8913,0.0,0.0,4.8913,4.8913,4.8913,4.8913,4.8913,4.8913,4.8913,4.8913,4.8913,4.8913,4.8913,4.8913,4.8913,4.8913,4.8913,4.8913,4.8913,4.8913,4.8913,4.8913,4.8913,4.8913,4.8913,4.8913,4.8913,4.8913,4.8913,4.8913,4.8913,0.0,0.0,0.0,0.0,0.0,0.0,0.0,0.0,0.0,2.7914,2.844,2.8757,2.8757,2.9804,3.0492,0.0,0.0,0.0,3.1511,3.16,3.2452,3.4248,3.6207,3.7298,3.7387,4.0445,4.1822,4.1403,4.3898,4.5544,0.0,0.0,0.0,4.8319,0.0,0.0,0.0,0.0,0.0,0.0,0.0,0.0,0.0,0.0,0.0,0.0,4.7369,4.7634,4.7384,4.6812,0.0,0.0,0.0,0.0,4.6427,4.6833,4.7525,4.8736,5.1272,5.19,5.2461,5.4787,5.5742,5.647,5.8039,5.8152,5.8177,5.9156,5.9433,5.9483,5.9483,5.9248,5.8625,5.7274,5.5165,5.3234,5.1848,5.008,4.8913,4.8913,4.8913,4.8913,4.8913,4.8913,4.8913,0.0,0.0,4.8913,4.8913,4.8913,4.8913,4.8913,4.8972,4.9011,4.9011,4.9089,4.9128,4.9128,4.905,4.8972,4.8913,4.8913,4.8913,4.8913,4.8913,4.8913,4.8913,4.8913,4.8913,4.8913,4.8913,4.8913,4.8913,4.8913,4.8913,4.8913,0.0,0.0,0.0,0.0,0.0,0.0,0.0,0.0,0.0,0.0,2.9398,2.9458,2.9458,3.0073,3.0492,3.0492,3.1092,3.1511,3.1511,0.0,0.0,3.3604,3.5565,3.6866,3.7404,3.9559,4.0905,4.1403,4.3449,4.5074,0.0,0.0,0.0,4.8319,0.0,0.0,0.0,0.0,0.0,0.0,0.0,0.0,0.0,0.0,0.0,0.0,0.0,4.9079,4.8172,4.8636,4.6929,0.0,0.0,0.0,4.5077,4.6135,4.7832,4.9665,5.1021,5.2763,5.4371,5.5189,5.544,5.5817,5.696,5.76,5.8077,5.8704,5.9182,5.9483,5.9483,5.828,5.7314,5.7571,5.4393,5.1957,5.2263,5.0327,4.8913,4.8913,4.8913,4.8913,4.8913,4.8913,4.8913,0.0,4.8913,4.8913,4.8913,4.8913,4.8913,4.8913,4.9238,4.9433,4.9433,4.9805,5.0047,5.0,4.9629,4.9238,4.8913,4.8913,4.8913,4.8913,4.8913,4.8913,4.8913,4.8913,4.8913,4.8913,4.8913,4.8913,4.8913,4.8913,4.8913,4.8913,0.0,0.0,0.0,0.0,0.0,0.0,0.0,0.0,0.0,0.0,0.0,3.0103,3.0103,3.0687,3.1076,3.1076,3.1331,3.1511,3.1511,3.178,3.2422,3.3455,3.507,3.6237,3.6866,3.92,4.0546,4.0816,4.2771,4.4625,0.0,4.7309,4.7938,0.0,0.0,0.0,0.0,0.0,0.0,0.0,4.9351,4.8903,0.0,0.0,0.0,0.0,0.0,0.0,0.0,4.7844,4.6597,4.5043,4.4795,0.0,0.0,0.0,4.6502,4.8134,4.9866,5.2176,5.421,5.4823,5.539,5.6068,5.6809,5.7474,5.8052,5.8604,5.8154,5.7667,5.7667,5.7229,5.6227,5.4203,5.2562,5.1263,5.056,4.9564,4.8913,4.8913,4.8913,4.8913,4.8913,4.8913,4.8913,0.0,4.8913,4.8913,4.8913,4.8913,4.8913,4.8913,4.9297,4.9484,4.9484,4.9961,5.0058,4.9805,4.9609,4.9297,4.8913,4.8913,4.8913,4.8913,4.8913,4.8913,4.8913,4.8913,4.8913,4.8913,4.8913,4.8913,4.8913,4.8913,4.8913,4.8913,0.0,0.0,0.0,0.0,0.0,0.0,0.0,0.0,0.0,0.0,0.0,3.0747,3.0747,0.0,0.0,0.0,3.1511,3.1511,3.1511,3.1511,3.1959,3.2946,3.4442,3.5549,3.6224,3.8631,4.0127,4.0636,0.0,0.0,4.63,4.701,4.7758,0.0,4.8027,0.0,0.0,0.0,0.0,0.0,5.0627,5.0218,0.0,0.0,0.0,0.0,0.0,0.0,0.0,0.0,0.0,0.0,4.4333,4.4392,0.0,0.0,0.0,4.7179,4.9238,5.1297,5.313,5.4321,5.5064,5.5792,5.6609,5.6838,5.7046,5.7553,5.6339,5.5041,5.4592,5.5007,5.4394,5.1396,5.0866,5.0396,4.9085,4.8913,4.8913,4.8913,4.8913,4.8913,4.8913,4.8913,4.8913,0.0,4.8913,4.8913,4.8913,4.8913,4.8913,4.8913,4.9297,4.959,4.9687,5.0234,5.0234,4.9687,4.9687,4.9394,4.8913,4.8913,4.8913,4.8913,4.8913,4.8913,4.8913,4.8913,4.8913,4.8913,4.8913,4.8913,4.8913,4.8913,4.8913,4.8913,0.0,0.0,0.0,0.0,0.0,0.0,0.0,0.0,0.0,0.0,0.0,3.1451,3.1451,3.1481,3.1511,3.1511,3.1511,3.1511,3.1511,3.1511,3.154,3.16,3.3484,0.0,3.5549,3.7494,3.9457,4.1343,0.0,0.0,4.63,4.701,4.7997,4.9247,4.9187,4.9217,4.9366,0.0,0.0,0.0,5.1806,5.1707,0.0,0.0,0.0,0.0,0.0,0.0,0.0,0.0,0.0,0.0,0.0,0.0,4.5447,0.0,0.0,0.0,4.9916,5.0436,5.1222,5.3944,5.4185,5.426,5.5892,5.5148,5.4229,5.4715,5.3598,5.1975,5.0251,5.0652,5.1134,5.0937,4.9833,4.9012,4.8894,4.8913,4.8913,4.8913,4.8913,4.8913,4.8913,4.8913,4.8913,0.0,4.8913,4.8913,4.8913,4.8913,4.8913,4.8913,4.9297,4.9726,5.0137,5.0957,5.0957,5.0137,5.0137,4.9734,4.8913,4.8913,4.8913,4.8913,4.8913,4.8913,4.8913,4.8913,4.8913,4.8913,4.8913,4.8913,4.8913,4.8913,4.8913,4.8913,0.0,0.0,0.0,0.0,0.0,0.0,0.0,0.0,0.0,0.0,0.0,0.0,0.0,0.0,0.0,0.0,0.0,0.0,0.0,3.1511,3.169,3.2108,3.3664,3.4817,3.5489,3.7404,3.896,0.0,0.0,4.287,4.5044,4.6121,4.7608,4.9299,4.8858,4.9366,5.0511,5.0548,0.0,0.0,0.0,0.0,0.0,0.0,0.0,0.0,0.0,0.0,0.0,0.0,0.0,0.0,0.0,0.0,0.0,4.5924,4.6677,4.7575,4.856,4.9866,5.1373,5.308,5.3884,5.4267,5.4205,5.396,5.3448,5.2391,5.1323,5.029,4.9386,5.014,5.0432,4.8993,4.8873,4.8913,4.8913,4.8913,4.8913,4.8913,4.8913,4.8913,4.8913,4.8913,4.8913,0.0,0.0,4.8913,4.8913,4.8913,4.8913,4.8913,4.9297,4.9863,5.0566,5.1152,5.1016,5.0176,5.0176,4.9754,4.8913,4.8913,4.8913,4.8913,4.8913,4.8913,4.8913,4.8913,4.8913,4.8913,4.8913,4.8913,4.8913,4.8913,4.8913,4.8913,0.0,0.0,0.0,0.0,0.0,0.0,0.0,0.0,0.0,0.0,0.0,0.0,0.0,0.0,0.0,0.0,3.2422,3.2093,3.1839,3.2049,3.2273,3.2482,3.3784,3.4907,3.5818,3.7105,0.0,0.0,0.0,0.0,0.0,4.5792,4.7219,4.8286,4.8447,4.9391,0.0,0.0,0.0,5.275,0.0,0.0,5.1752,0.0,0.0,0.0,0.0,0.0,0.0,0.0,0.0,0.0,0.0,0.0,0.0,0.0,4.6547,4.6948,4.7475,4.8862,5.0519,5.2,5.3206,5.4017,5.39,5.3129,5.2125,5.0957,4.9307,4.7951,4.7707,4.871,4.9101,4.7808,4.8346,4.8913,4.8913,4.8913,4.8913,4.8913,4.8913,4.8913,4.8913,4.8913,4.8913,0.0,0.0,0.0,4.8913,4.8913,4.8972,4.9128,4.9375,4.9941,5.0801,5.0937,5.0723,5.0176,5.0039,4.957,4.8913,4.8913,4.8913,4.8913,4.8913,4.8913,4.8913,4.8913,4.8913,4.8913,4.8913,4.8913,4.8913,4.8913,4.8913,4.8913,0.0,0.0,0.0,0.0,0.0,0.0,0.0,0.0,0.0,0.0,0.0,0.0,0.0,0.0,0.0,0.0,3.3574,3.3275,3.2602,3.3155,3.3245,3.2632,0.0,0.0,0.0,0.0,0.0,0.0,0.0,0.0,0.0,0.0,4.6889,4.6315,4.8161,4.9337,4.9968,0.0,5.1382,5.1788,0.0,5.0569,5.2234,0.0,0.0,0.0,5.1498,5.1649,0.0,0.0,0.0,0.0,0.0,0.0,0.0,0.0,0.0,0.0,0.0,0.0,0.0,5.067,5.2076,5.3271,5.4917,5.2607,5.016,5.0411,4.7629,4.5081,4.5019,4.6011,4.7051,4.75,4.8307,4.8874,4.8874,4.8894,4.8894,4.8913,4.8913,4.8913,4.8913,4.8913,4.8913,0.0,4.8913,4.8913,4.8913,4.8913,4.9062,4.9445,4.9465,4.9922,5.0762,5.0371,5.0176,5.0156,4.9726,4.9297,4.8913,4.8913,4.8913,4.8913,4.8913,4.8913,4.8913,4.8913,4.8913,4.8913,4.8913,4.8913,4.8913,4.8913,4.8913,4.8913,0.0,0.0,0.0,0.0,0.0,3.3455,3.4128,3.4218,0.0,0.0,0.0,0.0,0.0,0.0,0.0,0.0,3.522,3.4651,3.4009,3.4128,3.4368,3.4666,3.504,3.5609,3.6493,0.0,0.0,0.0,0.0,0.0,0.0,0.0,0.0,4.7655,4.8041,4.8258,4.8381,4.9136,0.0,5.0539,5.0931,5.1213,0.0,0.0,0.0,0.0,0.0,5.1975,5.2,0.0,5.077,5.0117,0.0,0.0,0.0,0.0,0.0,0.0,4.6471,0.0,0.0,0.0,0.0,0.0,5.2392,5.2285,5.1194,4.8056,4.7686,4.7207,4.4963,4.5605,4.6621,4.7031,4.7578,4.8047,4.834,4.8379,4.8496,4.8874,4.8913,4.8913,4.8913,4.8913,0.0,0.0,4.9043,4.905,4.9336,4.9089,4.8952,4.9089,4.9355,4.9601,4.9883,5.0078,5.0019,4.9707,4.9543,4.9297,4.8913,4.8913,4.8913,4.8913,4.8913,4.8913,4.8913,4.8913,4.8913,4.8913,4.8913,4.8913,4.8913,4.8913,4.8913,4.8913,0.0,0.0,3.3215,3.4173,3.4578,3.4967,3.5625,3.6178,0.0,0.0,0.0,0.0,0.0,0.0,0.0,0.0,3.7195,3.6699,3.5759,3.5985,3.6194,3.6297,3.6281,3.6596,3.7272,3.6949,0.0,0.0,0.0,0.0,0.0,0.0,0.0,0.0,4.7018,4.6913,4.6181,4.7521,0.0,0.0,4.9692,0.0,0.0,5.1819,5.2377,0.0,0.0,0.0,5.3105,5.303,5.2151,0.0,0.0,0.0,0.0,0.0,0.0,0.0,0.0,0.0,0.0,4.8962,0.0,0.0,5.1046,5.1166,5.0382,4.7121,4.6907,4.6686,4.4508,4.5019,4.5801,4.5859,4.623,4.6914,4.8047,4.8203,4.8437,4.9062,4.8808,4.8855,4.9402,4.9285,4.9316,4.9766,4.9551,4.9512,4.9785,4.9375,4.9219,4.9441,4.9492,4.9562,4.9805,4.9863,4.9785,4.9484,4.9336,4.9101,4.8913,4.8913,4.8913,4.8913,4.8913,4.8913,4.8913,4.8913,4.8913,4.8913,4.8913,4.8913,4.8913,4.8913,4.8913,4.8913,0.0,0.0,3.4143,3.5489,3.6267,3.6972,3.7734,3.8793,3.9331,0.0,0.0,0.0,0.0,0.0,0.0,0.0,0.0,3.9002,3.7722,3.8216,3.8275,3.7662,3.7531,3.7716,3.8305,3.6794,3.7168,0.0,0.0,0.0,0.0,0.0,0.0,0.0,4.5514,4.5492,4.4041,4.612,4.7564,4.8358,4.7805,4.8973,0.0,0.0,5.2904,0.0,5.4371,5.4572,5.4572,5.5039,5.3858,0.0,0.0,0.0,0.0,0.0,4.728,0.0,0.0,0.0,0.0,0.0,0.0,0.0,5.06,5.0081,4.8988,4.7221,4.6147,4.5136,4.3872,4.4355,4.4844,4.4531,4.4824,4.5781,4.7715,4.7988,4.834,4.9277,4.8691,4.8691,4.9922,4.9687,4.9648,5.0137,5.0215,5.0234,5.0176,4.9805,4.9766,5.0098,4.9726,4.9687,5.0019,4.9648,4.9406,4.9453,4.9043,4.8913,4.8913,4.8913,4.8913,4.8913,4.8913,4.8913,4.8913,4.8913,4.8913,4.8913,4.8913,4.8913,4.8913,4.8913,4.8913,4.8913,3.4158,3.4757,3.5519,3.6789,3.7584,3.8601,4.0355,4.0367,0.0,0.0,0.0,0.0,0.0,0.0,0.0,0.0,0.0,0.0,3.9218,3.9237,3.9266,3.916,3.8243,3.7758,3.7828,3.709,3.7626,3.9498,3.9788,4.075,4.2296,0.0,0.0,0.0,4.4696,4.4803,4.4514,4.5869,4.7056,4.8165,4.9819,0.0,5.1459,5.3369,5.3658,5.3171,5.4245,5.4295,5.3884,0.0,5.3457,5.2594,0.0,0.0,0.0,0.0,0.0,0.0,0.0,0.0,0.0,0.0,0.0,0.0,5.0854,5.2015,5.1681,4.779,4.8047,4.7832,4.3914,4.3926,4.4609,4.4863,4.5273,4.5801,4.6562,4.668,4.7129,4.832,4.8301,4.8437,4.9109,4.9089,4.9363,5.0117,5.0488,5.0527,5.0195,5.0098,4.9922,4.9668,4.9523,4.9394,4.9167,4.907,4.9031,4.9031,4.8952,4.8913,4.8913,4.8913,4.8913,4.8913,4.8913,4.8913,4.8913,4.8913,4.8913,4.8913,4.8913,4.8913,4.8913,4.8913,4.8913,4.8913,3.5296,3.5775,3.6507,3.8105,3.923,4.0355,4.1673,4.2132,0.0,0.0,0.0,0.0,0.0,0.0,0.0,0.0,0.0,0.0,0.0,4.049,4.0209,3.9669,3.9564,3.9082,3.8209,3.7974,3.8416,3.9551,3.9327,4.0119,4.1915,4.1791,4.2996,0.0,4.481,4.5397,4.6728,4.7305,4.8335,4.964,5.0218,0.0,5.1473,5.313,5.3758,5.3808,5.4396,5.4773,5.4963,5.4963,5.4587,0.0,0.0,5.2754,5.1875,0.0,4.964,4.8636,0.0,0.0,0.0,4.8058,0.0,0.0,0.0,5.0523,5.0102,4.5984,4.6475,4.6514,4.2823,4.3008,4.3808,4.4023,4.4609,4.5117,4.5312,4.5898,4.6777,4.8047,4.7832,4.791,4.8815,4.8913,4.9265,5.0117,5.0566,5.0723,5.0508,5.0488,5.0293,4.9863,4.9844,4.9531,4.8913,4.9082,4.9082,4.8913,4.8913,4.8913,4.8913,4.8913,4.8913,4.8913,4.8913,4.8913,4.8913,4.8913,4.8913,4.8913,4.8913,4.8913,4.8913,4.8913,4.8913,4.8913,3.6344,3.6583,3.7233,3.8941,4.0446,4.1569,4.2021,4.3156,0.0,0.0,0.0,0.0,0.0,0.0,0.0,0.0,0.0,0.0,0.0,0.0,4.1637,4.075,4.1051,4.0646,3.9402,3.9198,3.9353,3.9772,3.8915,3.9395,4.1152,4.1378,4.2958,4.5648,4.5242,4.6301,4.8391,4.912,5.01,5.1071,0.0,5.1122,5.2352,5.3457,5.431,5.4898,5.4798,5.5365,5.6219,5.6219,0.0,5.5666,5.5465,5.4536,0.0,0.0,0.0,0.0,0.0,0.0,0.0,0.0,0.0,4.8149,0.0,0.0,0.0,4.4321,4.4537,4.4509,4.1736,4.209,4.2773,4.2617,4.3398,4.3965,4.3808,4.5019,0.0,4.7578,4.7109,4.7168,4.8405,4.8913,4.9382,4.993,5.0547,5.0898,5.0801,5.0801,5.0605,5.0195,5.0254,4.9891,4.8913,4.9297,4.9297,4.8913,4.8913,4.8913,4.8913,4.8913,4.8913,4.8913,4.8913,4.8913,4.8913,4.8913,4.8913,4.8913,4.8913,4.8913,4.8913,4.8913,4.8913,4.8913,3.6703,3.6926,3.7569,3.8533,4.0193,4.1303,4.1018,4.191,0.0,0.0,0.0,0.0,0.0,0.0,0.0,0.0,0.0,0.0,4.5259,0.0,0.0,4.4309,4.2434,4.1485,4.1809,4.0814,4.0331,4.0407,4.0277,4.0324,4.06,4.1632,4.2537,4.3492,4.5799,4.6722,4.6828,5.0268,5.1247,0.0,5.2503,5.421,0.0,5.6897,5.6796,5.5968,5.5465,5.5691,5.6219,0.0,5.6495,5.6634,0.0,5.5591,5.5541,5.3984,0.0,0.0,0.0,0.0,0.0,0.0,4.912,0.0,0.0,0.0,4.9127,4.534,0.0,4.5094,4.179,0.0,0.0,0.0,0.0,4.2383,4.1641,4.332,4.4941,4.5859,4.5922,4.6172,0.0,4.8906,4.9793,4.9109,5.0469,5.1191,5.082,5.0801,5.0605,5.0195,5.0547,5.0137,4.8913,4.9297,4.9297,4.8913,4.8913,4.8913,4.8913,4.8913,4.8913,4.8913,4.8913,4.8913,4.8913,4.8913,4.8913,4.8913,4.8913,4.8913,4.8913,4.8913,4.8913,4.8913,3.7161,3.7405,0.0,3.9035,4.0215,4.1171,4.1711,4.27,0.0,0.0,0.0,0.0,0.0,0.0,0.0,0.0,0.0,4.6951,0.0,0.0,0.0,0.0,4.4073,4.3619,4.2238,4.2333,4.2108,4.1507,4.1507,4.1507,4.1507,4.2286,4.3642,4.5447,4.6898,4.836,4.9791,5.1749,5.3055,0.0,0.0,0.0,0.0,5.6143,5.5767,5.6269,5.6696,5.6771,5.6709,0.0,5.7549,0.0,0.0,0.0,0.0,0.0,0.0,0.0,0.0,0.0,0.0,0.0,0.0,0.0,5.0092,0.0,4.9471,0.0,0.0,0.0,0.0,0.0,0.0,0.0,4.1387,0.0,4.1289,4.2168,4.3398,4.4766,0.0,0.0,0.0,0.0,0.0,0.0,5.0098,5.0879,5.0469,5.0664,5.0723,5.0547,5.0469,5.0058,4.9258,4.918,4.9089,4.8913,4.8913,4.8913,4.8913,4.8913,4.8913,4.8913,4.8913,4.8913,4.8913,4.8913,4.8913,4.8913,4.8913,4.8913,4.8913,4.8913,4.8913,4.8663,3.7896,0.0,0.0,3.9043,4.0023,4.1013,4.2035,4.3089,4.3957,4.4418,0.0,0.0,4.6878,4.7179,0.0,0.0,0.0,4.8554,0.0,0.0,4.7531,0.0,4.6125,0.0,0.0,4.4066,4.3714,4.2637,4.2637,4.2637,4.2637,4.319,4.4593,4.6697,4.7707,4.9364,5.1498,5.2829,5.421,5.5566,5.6018,5.7173,5.8328,5.5968,5.5742,5.6771,5.76,5.7725,5.7512,5.7976,5.8478,0.0,5.7763,0.0,5.8629,0.0,0.0,0.0,5.3934,0.0,0.0,0.0,0.0,0.0,0.0,0.0,0.0,0.0,0.0,0.0,0.0,0.0,0.0,0.0,0.0,0.0,0.0,4.0879,4.2012,4.3516,0.0,0.0,0.0,0.0,0.0,0.0,0.0,5.0508,4.9891,5.0332,5.0644,5.0644,5.0566,5.0195,4.9484,4.9316,4.9148,4.8913,4.8913,4.8913,4.8913,4.8913,4.8913,4.8913,4.8913,4.8913,4.8913,4.8913,4.8913,4.8913,4.8913,4.8913,4.8913,4.8913,4.8913,4.8544,3.8965,3.8182,0.0,3.8017,3.9402,4.0713,4.1348,4.2337,4.3221,4.3746,0.0,0.0,0.0,0.0,0.0,0.0,0.0,5.2243,5.1222,0.0,5.026,0.0,0.0,4.7807,0.0,4.6225,4.4869,4.374,4.374,4.374,4.3765,4.4317,4.492,4.5648,4.7813,4.912,4.9891,5.3165,5.427,5.3934,5.5566,5.6244,5.647,0.0,5.8252,5.7851,5.7876,0.0,0.0,5.8641,5.9031,0.0,0.0,0.0,0.0,0.0,0.0,0.0,0.0,0.0,0.0,5.422,0.0,0.0,0.0,0.0,5.184,0.0,0.0,0.0,0.0,0.0,0.0,0.0,0.0,0.0,0.0,0.0,4.0898,4.1777,0.0,0.0,0.0,0.0,0.0,0.0,0.0,0.0,4.9011,4.9773,5.0195,5.0195,5.0976,5.0733,4.9484,4.9941,4.9754,4.8913,4.8913,4.8913,4.8913,4.8913,4.8913,4.8913,4.8913,4.8913,4.8913,4.8913,4.8913,4.8913,4.8913,4.8913,4.8913,4.8913,4.8913,4.8582,0.0,0.0,0.0,3.8576,3.9048,4.002,4.1667,4.3139,0.0,0.0,0.0,0.0,0.0,0.0,5.2619,0.0,0.0,5.313,5.2427,5.2503,0.0,0.0,0.0,4.9038,0.0,0.0,4.6376,4.492,4.5271,4.507,4.4338,4.492,4.5497,4.615,4.8711,5.0368,5.1423,5.4009,5.5842,0.0,0.0,5.8177,5.7901,0.0,0.0,5.8453,5.8453,5.8554,0.0,5.8691,5.9269,5.9885,5.8967,5.9357,5.9759,5.8102,5.76,0.0,0.0,0.0,5.4118,5.4491,0.0,0.0,0.0,0.0,0.0,0.0,0.0,0.0,0.0,0.0,0.0,0.0,0.0,0.0,0.0,0.0,3.9023,3.959,0.0,0.0,0.0,0.0,0.0,0.0,0.0,0.0,0.0,4.9414,5.0,5.0586,5.0605,5.0391,4.9961,4.9578,4.9206,4.8913,4.8913,4.8913,4.8913,4.8913,4.8913,4.8913,4.8913,4.8913,4.8913,4.8913,4.8913,4.8913,4.8913,4.8913,4.8913,4.8913,4.7935,4.6079,3.8592,0.0,0.0,3.8919,3.9547,4.0678,0.0,0.0,0.0,0.0,4.9791,0.0,5.2051,0.0,5.3046,0.0,5.3457,5.3607,5.4024,5.3683,0.0,5.2468,5.1691,0.0,0.0,0.0,4.7908,4.6652,4.6627,4.6095,4.5192,4.5598,4.6075,4.6672,4.8862,5.067,5.2226,5.4034,5.6068,0.0,0.0,5.8956,0.0,0.0,5.893,5.9608,0.0,5.9608,5.9608,5.9608,5.991,6.0172,5.9508,5.9759,6.0035,5.8604,5.8303,5.8202,5.7097,5.5562,0.0,5.4573,5.3607,0.0,5.3595,0.0,0.0,0.0,0.0,0.0,0.0,0.0,0.0,0.0,0.0,0.0,0.0,0.0,0.0,0.0,0.0,0.0,0.0,0.0,0.0,0.0,0.0,0.0,0.0,0.0,4.9785,5.0332,5.0234,5.0176,5.0176,4.9453,4.907,4.8913,4.8913,4.8913,4.8913,4.8913,4.8913,4.8913,4.8913,4.8913,4.8913,4.8913,4.8913,4.8913,4.8913,4.8991,4.8989,4.8039,4.5705,4.2606,3.9747,0.0,0.0,0.0,4.0879,0.0,0.0,0.0,4.8385,0.0,5.0645,5.195,5.3482,5.3306,5.3457,5.4471,5.3607,0.0,5.6043,5.4185,0.0,0.0,5.4074,5.292,5.2895,0.0,0.0,0.0,4.7726,4.6923,4.6351,4.6326,4.6597,4.7199,4.8309,5.0067,5.2226,5.3281,5.5013,5.706,5.7725,5.8629,5.9583,5.9608,6.0311,6.1291,6.1215,6.119,6.119,6.119,6.0814,6.0362,6.0362,5.962,5.8792,5.8792,5.8402,5.7876,5.7825,5.5724,5.3675,5.4357,0.0,0.0,0.0,0.0,5.2637,0.0,0.0,0.0,0.0,0.0,0.0,0.0,0.0,0.0,0.0,0.0,0.0,0.0,0.0,0.0,0.0,0.0,0.0,0.0,0.0,0.0,0.0,0.0,4.9465,4.9445,4.9922,5.0137,5.0164,4.9707,4.9277,4.8913,4.8913,4.8913,4.8913,4.8913,4.8913,4.8913,4.8913,4.8913,4.8913,4.8913,4.8913,4.8913,4.8913,4.9001,4.8828,4.6309,4.2492,3.8572,4.03,4.06,4.1227,0.0,4.3338,4.4242,0.0,0.0,0.0,0.0,5.1548,5.2678,5.3046,5.411,5.4536,5.3984,5.4436,0.0,0.0,0.0,0.0,5.5566,5.426,5.3331,5.2895,5.2343,0.0,4.9389,0.0,4.8259,4.6873,4.6502,4.6803,4.7726,4.8887,5.0619,5.2744,5.3884,5.539,5.7111,5.8529,5.9759,0.0,0.0,6.2069,6.2873,6.1642,6.119,6.119,6.119,6.109,6.0964,6.0964,6.0763,6.0563,6.0563,5.9216,5.7598,5.6827,5.3944,5.1249,5.197,5.102,5.0213,0.0,0.0,0.0,0.0,0.0,0.0,0.0,0.0,0.0,0.0,0.0,0.0,0.0,0.0,0.0,0.0,0.0,0.0,0.0,0.0,0.0,0.0,0.0,0.0,0.0,0.0,0.0,4.9043,4.9453,4.9531,4.9246,4.9128,4.9011,4.8913,4.8913,4.8913,4.8913,4.8913,4.8913,4.8913,4.8913,4.8913,4.8913,4.8913,4.8913,4.8913,4.8913,4.6876,4.3864,4.3548,4.1375,3.8361,4.0901,4.1679,0.0,4.4618,0.0,0.0,4.6577,0.0,0.0,5.2101,5.3256,0.0,5.5013,5.5265,5.5239,5.4838,5.4938,0.0,5.642,0.0,0.0,5.6796,5.5541,5.4762,5.4677,5.4009,0.0,5.1046,0.0,4.9238,4.7832,4.728,4.7732,4.9038,4.9941,5.1574,5.3758,5.534,5.6821,5.8202,5.9382,6.0537,0.0,6.1893,6.2546,6.3199,6.2245,6.1893,6.1893,6.1893,6.1048,6.0032,6.0032,5.9146,5.8154,5.8154,5.7226,5.6027,5.5471,5.2974,5.0524,5.0533,4.9365,4.8534,4.9978,5.0083,4.9478,0.0,0.0,0.0,0.0,0.0,0.0,0.0,0.0,0.0,0.0,0.0,0.0,0.0,0.0,0.0,0.0,0.0,0.0,0.0,0.0,0.0,0.0,0.0,4.8652,4.862,4.9199,4.9414,4.916,4.9382,4.9285,4.8913,4.8913,4.8913,4.8913,4.8913,4.8913,4.8913,4.8913,4.8913,4.8913,4.8913,4.8913,4.8794,4.8005,4.5346,4.1965,4.1432,3.9447,3.6942,4.203,4.3159,0.0,0.0,0.0,0.0,0.0,5.0695,0.0,5.4295,0.0,5.5867,5.7399,5.6269,5.5616,5.6168,0.0,5.5767,5.7876,5.6646,5.6696,5.8591,5.7286,5.6721,5.7111,5.5666,0.0,0.0,0.0,5.0218,4.922,4.846,4.8937,5.0444,5.1096,5.2687,5.4949,5.7097,5.8579,5.9533,6.0085,6.0989,6.2019,6.2094,6.2395,6.2741,6.2429,6.2536,6.2781,6.2781,6.1154,5.9015,5.8724,5.6866,5.4792,5.4494,5.4196,5.396,5.3916,5.2218,5.0352,4.9543,4.7889,4.6872,4.8453,4.8399,4.815,4.8566,4.763,4.6475,0.0,0.0,0.0,0.0,0.0,0.0,0.0,0.0,0.0,0.0,0.0,0.0,0.0,0.0,0.0,0.0,0.0,0.0,0.0,0.0,4.7871,4.8105,4.8926,4.9367,4.9484,0.0,4.9734,4.907,4.8952,4.8913,4.8913,4.8913,4.8913,4.8913,4.8913,4.8913,4.8913,4.8913,4.8709,4.8258,4.672,4.4229,4.1335,3.9836,3.7548,3.5191,4.5372,4.602,0.0,0.0,0.0,5.1222,5.1916,5.2829,5.3532,5.3808,5.4361,5.5024,5.5742,5.5566,5.5616,5.6168,5.6408,0.0,0.0,0.0,0.0,5.8666,5.8428,5.8102,5.775,5.6997,5.6294,0.0,0.0,5.2151,5.1498,4.9992,4.969,5.0469,5.1498,5.3432,5.6043,5.7826,0.0,5.9533,6.0085,6.0989,6.2044,6.2496,6.2706,6.2552,6.0636,6.1159,6.2781,6.2781,6.2461,6.1721,5.9799,5.8798,5.8052,5.6128,5.4215,5.2608,5.2226,5.0436,4.8537,4.8087,4.7656,4.7458,4.7781,4.779,4.7489,4.69,4.654,4.6114,4.5277,0.0,0.0,0.0,0.0,0.0,0.0,0.0,0.0,0.0,0.0,0.0,0.0,0.0,0.0,0.0,0.0,0.0,0.0,0.0,4.8385,0.0,4.8183,0.0,0.0,0.0,4.9422,4.9941,4.9246,4.8913,4.8913,4.8913,4.8913,4.8913,4.8913,4.8913,4.8913,4.8913,4.7651,4.5687,4.5982,4.3133,3.8928,3.9185,3.7548,3.5191,4.6597,4.7851,0.0,0.0,0.0,0.0,0.0,5.4411,0.0,5.4963,5.5742,5.6495,5.7047,5.6846,5.6796,5.7072,5.7323,5.77,5.8252,5.8554,5.8792,5.9106,5.8855,0.0,5.8328,5.7437,5.6584,5.5792,0.0,5.3909,5.3391,5.2587,5.2628,5.3482,5.4612,5.6018,5.7575,0.0,0.0,6.0387,6.0663,6.071,6.0627,6.0871,6.0236,5.9077,5.7949,5.8247,5.9161,5.9161,5.8375,5.7197,5.6074,5.4873,5.3705,5.259,5.1462,5.0535,5.0312,4.9409,4.8437,4.8008,4.791,4.7851,4.7637,4.7578,4.7461,4.7051,4.6601,4.6035,4.5133,4.5523,0.0,0.0,0.0,0.0,0.0,0.0,0.0,0.0,0.0,0.0,0.0,0.0,0.0,0.0,0.0,0.0,0.0,0.0,4.7109,0.0,0.0,0.0,0.0,0.0,0.0,4.9539,4.9109,4.8913,4.8913,4.8913,4.8913,4.8913,4.8913,4.8913,4.8801,4.7446,4.6231,4.503,4.2865,4.0535,3.8307,3.748,3.6321,3.5191,4.8228,4.9809,0.0,0.0,5.3692,0.0,5.5641,5.5842,5.6068,5.652,5.7248,5.7976,5.8654,5.8227,5.7951,5.8052,5.8077,5.8127,5.8227,5.8755,5.9182,5.9483,5.9332,5.9131,5.8905,5.7989,5.7035,0.0,0.0,0.0,5.4421,5.4773,5.5315,5.6093,5.7349,5.8127,0.0,0.0,5.9712,6.0462,6.0586,5.9786,5.8564,5.8587,5.7478,5.5835,5.5355,5.5136,5.4983,5.45,5.3815,5.3081,5.2545,5.1145,4.9564,4.9032,4.8913,4.8913,4.8913,4.8913,4.8815,4.8437,4.834,4.8262,4.793,4.7897,4.7877,4.7734,4.7109,4.6367,4.5683,4.6387,0.0,0.0,0.0,0.0,0.0,0.0,0.0,0.0,0.0,0.0,0.0,0.0,0.0,0.0,4.6113,0.0,4.6426,0.0,0.0,0.0,0.0,4.8613,4.8887,0.0,4.9746,0.0,4.8991,4.8913,4.8913,4.8913,4.8913,4.8913,4.8913,4.857,4.7883,4.5849,4.4554,4.3451,3.97,3.8051,3.7569,3.5844,3.5191,3.5191,0.0,0.0,0.0,0.0,0.0,0.0,5.6684,5.7323,5.7675,5.7725,5.7374,5.7487,5.8566,5.8227,5.8102,5.8604,5.8654,5.8855,5.9307,5.9859,5.996,5.9508,6.0437,6.0462,5.9433,5.9307,5.8981,0.0,0.0,5.6319,5.3808,5.534,5.5842,5.5541,5.7173,0.0,0.0,6.0111,5.9807,5.8079,5.8532,5.7691,5.6117,5.6183,5.6096,5.5617,5.3481,5.2724,5.2366,5.0256,5.2252,5.518,5.3081,5.2252,5.1622,4.9518,4.8913,4.8913,4.8913,4.8913,4.8894,4.8855,4.8835,4.8835,4.8796,4.8776,4.8679,4.8223,4.7793,4.7441,4.7363,4.7441,4.7598,0.0,0.0,0.0,0.0,0.0,0.0,0.0,0.0,0.0,0.0,0.0,0.0,0.0,4.6289,0.0,0.0,0.0,0.0,4.864,4.9141,4.9914,5.1065,5.005,4.9746,5.0039,4.9285,4.8913,4.8913,4.8913,4.8913,4.8913,4.8913,4.7539,4.5361,4.5079,4.2415,3.8417,3.8264,3.6959,3.5154,3.5189,3.5191,3.5191,0.0,0.0,0.0,0.0,0.0,0.0,0.0,5.8252,5.8504,5.8805,5.8378,5.819,5.8641,5.8529,5.8604,5.9131,5.9182,5.9282,5.9483,5.9709,5.9885,5.9985,6.0412,6.0462,6.001,5.9659,5.9232,0.0,0.0,0.0,0.0,5.7725,5.7901,5.7424,0.0,5.8274,5.7382,5.8232,5.7649,5.608,5.6329,5.5322,5.3771,5.3771,5.2902,5.1597,5.0621,5.0322,5.0139,4.9216,5.0139,5.1532,5.0575,5.0322,5.0094,4.917,4.8913,4.8913,4.8913,4.8913,4.8913,4.8913,4.8913,4.8913,4.8913,4.8913,4.8855,4.8679,4.8262,4.7871,4.7617,4.8053,4.8366,0.0,0.0,0.0,0.0,0.0,0.0,0.0,0.0,0.0,0.0,0.0,0.0,0.0,0.0,0.0,0.0,0.0,0.0,4.8855,0.0,4.8665,5.0226,4.9512,4.9219,4.9422,4.907,4.8913,4.8913,4.8913,4.8913,4.8801,4.726,4.5943,4.4748,4.1684,3.9469,3.7868,3.641,3.5507,3.5044,3.5151,3.5191,3.5191,5.4135,0.0,5.6483,0.0,5.8127,5.9156,5.8742,5.8817,5.9031,5.9232,5.9081,5.8956,5.8956,5.8956,5.9106,5.9458,5.9483,5.9483,5.9483,5.9483,5.9659,6.006,6.0236,0.0,6.0311,6.0111,5.9659,5.8956,5.9659,0.0,0.0,5.8278,5.8504,0.0,5.8674,5.7938,5.6608,5.6444,5.5419,5.4017,5.4149,5.3072,5.1372,5.1372,5.0348,4.8913,4.8913,4.8913,4.8913,4.8913,4.8913,4.8913,4.8913,4.8913,4.8913,4.8913,4.8913,4.8913,4.8913,4.8913,4.8913,4.8913,4.8913,4.8913,4.8913,4.8913,4.8913,4.8913,4.8659,4.8262,4.7851,4.8405,4.8855,4.8633,0.0,0.0,0.0,0.0,0.0,0.0,0.0,0.0,0.0,0.0,0.0,0.0,0.0,0.0,0.0,0.0,0.0,0.0,0.0,0.0,0.0,4.9277,4.9031,4.8913,4.8913,4.8913,4.8913,4.8913,4.8913,4.8755,4.6149,4.4542,4.3547,3.9123,3.7159,3.6781,3.4987,3.4629,3.5084,3.5164,3.5191,3.5191,5.5365,5.6269,5.7161,5.7775,5.8353,5.8691,5.8691,5.9156,5.9307,5.8805,5.9182,5.9483,5.9483,5.9483,5.9483,5.9483,5.9483,5.9483,5.9483,5.9483,5.9483,0.0,0.0,6.0311,6.0311,6.0864,6.0613,5.9483,0.0,0.0,5.544,5.5993,5.6846,5.7901,5.7235,5.6594,5.5949,5.5293,5.3691,5.1561,5.2177,5.1009,4.894,4.894,4.8894,4.8913,4.8913,4.8913,4.8913,4.8913,4.8913,4.8913,4.8913,4.8913,4.8913,4.8913,4.8913,4.8913,4.8913,4.8913,4.8913,4.8913,4.8913,4.8913,4.8913,4.8913,4.8913,4.8913,4.8894,4.8757,4.8281,4.8555,4.905,4.9433,0.0,0.0,0.0,0.0,0.0,0.0,4.8874,4.9004,4.9406,0.0,0.0,0.0,0.0,0.0,0.0,0.0,0.0,4.8906,4.9297,0.0,5.0176,4.9746,4.9297,4.8913,4.8913,4.8913,4.8913,4.8913,4.8913,4.8755,4.6149,4.3594,4.1043,3.8392,3.5984,3.3972,3.4202,3.4509,3.4855,3.5097,3.5191,3.5191,5.76,5.7914,5.8315,5.8905,5.9433,5.9684,5.9307,5.9709,5.9859,5.9332,5.9382,5.9483,5.9483,5.9483,5.9483,0.0,5.9483,5.9483,0.0,5.9483,5.9483,5.9483,6.001,6.0311,6.0311,6.0889,6.1014,6.0638,0.0,0.0,0.0,5.9508,5.8756,5.7211,5.7369,5.5754,5.2908,5.2713,5.1506,4.9757,4.9942,4.9564,4.8913,4.8913,4.8913,4.8913,4.8913,4.8913,4.8913,4.8913,4.8913,4.8913,4.8913,4.8913,4.8913,4.8913,4.8913,4.8913,4.8913,4.8913,4.8913,4.8913,4.8913,4.8913,4.8913,4.8913,4.8913,4.8913,4.8913,4.8855,4.8718,4.8815,4.905,4.9406,4.8789,0.0,0.0,0.0,0.0,0.0,0.0,4.8242,0.0,4.8691,0.0,0.0,0.0,0.0,0.0,0.0,0.0,0.0,4.8594,0.0,4.9726,4.9297,4.905,4.8913,4.8913,4.8913,4.8913,4.8913,4.8913,4.8663,4.4229,4.1924,4.085,3.646,3.4328,3.3921,3.4202,3.4496,3.4855,3.5084,3.5191,3.5191,5.7249,5.7994,5.8537,5.8038,5.9103,5.9885,5.9533,5.9784,5.9885,5.9533,5.9483,5.9483,5.9483,5.9483,0.0,5.9483,5.9483,5.9483,5.9483,5.9483,5.9483,5.9483,5.9834,6.0111,6.0311,0.0,0.0,6.119,6.0664,5.9764,5.8586,5.8779,5.7808,5.5873,5.579,5.4123,5.1452,5.0812,4.9924,4.8913,4.8913,4.8913,4.8913,4.8913,4.8913,4.8913,4.8913,4.8913,4.8913,4.8913,4.8913,4.8913,4.8913,4.8913,4.8913,4.8913,4.8913,4.8913,4.8913,4.8913,4.8913,4.8913,4.8913,4.8913,4.8913,4.8913,4.8913,4.8913,4.8913,4.8913,4.8913,4.8913,4.8991,4.9238,4.8808,4.8594,4.8984,0.0,0.0,0.0,0.0,0.0,0.0,4.875,0.0,0.0,0.0,0.0,0.0,0.0,0.0,4.9023,4.8086,0.0,4.9258,4.905,4.8913,4.8913,4.8913,4.8913,4.8913,4.8913,4.8913,4.8617,4.3422,4.1156,4.0802,3.5536,3.3534,3.3734,3.4042,3.4269,3.4534,3.4883,3.503,3.5044,5.4905,5.6682,0.0,0.0,5.7687,0.0,5.9483,5.9483,5.9483,5.9483,5.9483,5.9483,5.9483,5.9483,5.9483,5.9483,0.0,0.0,0.0,5.9483,5.9483,5.9483,5.9483,5.9734,6.0222,6.0272,6.0534,6.1016,5.8651,5.6443,5.432,5.4832,5.4724,5.4024,5.2898,5.2001,5.1224,4.9614,4.8913,4.8913,4.8913,4.8913,4.8913,4.8913,4.8913,4.8952,4.8952,4.8972,4.8991,4.8991,4.8991,4.8991,4.8991,4.8991,4.8991,4.8913,4.8913,4.8913,4.8913,4.8913,4.8913,4.8913,4.8913,4.8913,4.8913,4.8913,4.8913,4.8913,4.8913,4.8913,4.8913,4.8913,4.8913,4.8913,4.8913,4.8757,4.8301,0.0,0.0,0.0,0.0,0.0,0.0,4.9668,4.9141,0.0,0.0,0.0,0.0,0.0,4.9101,4.8183,4.7812,4.8008,4.8855,4.8894,4.8913,4.8913,4.8913,4.8913,4.8913,4.8913,4.8913,4.8617,4.3452,4.1187,4.0802,3.5536,3.3414,3.344,3.3761,3.3881,3.3961,3.4601,3.4815,3.4855,0.0,0.0,5.662,5.6081,5.7972,5.9483,5.9483,5.9483,5.9483,5.9483,5.9483,5.9483,5.9483,5.9483,5.9483,5.9483,5.9483,5.9483,5.9483,5.9483,5.9483,5.9483,5.9483,5.9558,5.9684,6.0111,5.9905,5.9123,5.6889,5.5696,5.5499,5.5655,5.4675,5.2785,5.255,5.1355,4.9497,4.9085,4.8913,4.8913,4.8913,4.8913,4.8913,4.8913,4.9062,4.9375,4.9375,4.959,4.9863,4.9863,4.9863,4.9863,4.9863,4.9863,4.9773,4.9109,4.8913,4.8913,4.8913,4.8913,4.8913,4.8913,4.8913,4.8913,4.8913,4.8913,4.8913,4.8913,4.8913,4.8913,4.8913,4.8913,4.8913,4.8913,4.8913,4.8874,4.8757,4.8757,0.0,0.0,4.9128,4.8926,4.8691,4.8574,4.8848,0.0,0.0,0.0,5.0156,4.9766,4.8984,4.7773,4.7949,4.8164,4.8359,4.8737,4.8913,4.8913,4.8913,4.8913,4.8913,4.8913,4.8913,4.8617,4.3452,4.1187,4.0802,3.5536,3.3414,3.344,3.3761,3.3881,3.3961,3.4601,3.4815,3.4855,5.1594,5.3146,5.4679,5.4679,5.5671,5.6813,5.7849,5.7114,5.6494,5.6494,5.6494,5.655,5.6789,5.6813,5.6868,5.7066,5.8537,5.9483,5.9483,5.9483,5.9483,5.9483,5.9483,5.9483,5.9483,5.8797,5.7202,5.4719,5.3948,5.3167,5.2362,5.2595,5.2027,5.0803,5.0803,5.0094,4.8913,4.8913,4.8913,4.8913,4.9082,4.916,4.918,4.9422,4.9609,4.9824,4.9824,4.998,5.0176,5.0176,5.0176,5.0176,5.0176,5.0176,5.0078,4.9656,4.95,4.95,4.95,4.9316,4.9121,4.8952,4.8913,4.8913,4.8913,4.8913,4.8913,4.8913,4.8913,4.8913,4.8913,4.8913,4.8913,4.8913,4.8913,4.8913,4.8913,4.8913,4.8913,4.8913,4.8913,4.8737,4.8242,4.8203,4.8496,4.9219,0.0,0.0,4.9883,4.9668,4.9101,4.8249,4.8203,4.8301,4.8496,4.8776,4.8913,4.8913,4.8913,4.8913,4.8913,4.8913,4.8913,4.8617,4.3452,4.1187,4.077,3.555,3.3414,3.3427,3.3601,3.3668,3.3721,3.4189,3.4442,3.4603,4.9446,5.0862,5.2384,5.2384,5.2674,5.3538,5.5413,5.4133,5.2902,5.2992,5.2992,5.3193,5.3644,5.3689,5.3826,5.4186,5.6952,5.8708,5.8708,5.8708,5.8708,5.8708,5.8708,5.8708,5.8708,5.6549,5.3739,5.0306,5.0879,5.0156,4.8223,4.8698,4.8913,4.8913,4.8913,4.8933,4.9011,4.9011,4.905,4.9148,4.9473,4.9629,4.9668,5.0039,5.0215,5.0273,5.0273,5.0312,5.0371,5.0371,5.0371,5.0371,5.0371,5.0371,5.0371,5.0371,5.0371,5.0332,5.0215,4.9863,4.9433,4.9109,4.8952,4.8913,4.8913,4.8913,4.8913,4.8913,4.8913,4.8913,4.8913,4.8913,4.8991,4.9246,4.907,4.8991,4.9265,0.0,4.8913,4.8913,4.8913,4.8757,4.834,4.8301,4.8301,4.8301,4.8652,4.8913,4.8913,4.9219,4.9258,4.8913,4.8496,4.8476,4.8894,4.8913,4.8913,4.8913,4.8913,4.8913,4.8913,4.8913,4.8663,4.8042,4.3262,4.0963,4.0142,3.5352,3.3414,3.3414,3.3414,3.3414,3.3454,3.3774,3.4042,3.4309,4.688,4.8591,5.0104,5.0104,5.1636,5.3004,5.3374,5.3127,5.3037,5.3462,5.3465,5.3666,5.4052,5.4096,5.4141,5.4208,5.4707,5.5036,5.5036,5.5036,5.5036,5.5036,5.5036,5.5036,5.5036,5.2838,5.1442,5.0788,4.9441,4.8547,4.8223,4.8698,4.8913,4.8913,4.8913,4.9062,4.9414,4.9414,4.9629,4.998,5.0058,5.0078,5.0078,5.0156,5.0391,5.0703,5.0703,5.0937,5.1182,5.1182,5.1182,5.1182,5.1182,5.1182,5.1182,5.1182,5.1182,5.1094,5.0371,4.9863,4.9512,4.9433,4.9141,4.8913,4.8913,4.8913,4.8913,4.8913,4.8913,4.8913,4.8913,4.8913,4.9382,5.0801,4.9805,4.9422,5.082,0.0,4.8913,4.8913,4.8913,4.8874,4.8815,4.8796,4.8796,4.8796,4.8874,4.8913,4.8913,4.8972,4.8972,4.8913,4.8835,4.8835,4.8913,4.8913,4.8913,4.8913,4.8913,4.8913,4.8913,4.8913,4.7698,4.5426,4.2482,3.9932,3.7674,3.4621,3.3414,3.3414,3.3414,3.3414,3.3454,3.3774,3.3921,3.4028,4.6308,4.7141,4.8204,4.9404,4.9446,4.9828,5.1227,5.0443,4.9861,5.032,5.0382,5.0506,5.092,5.0962,5.1066,5.1316,5.1337,5.1337,5.1337,5.3147,5.4208,5.4208,5.4208,5.3613,5.2434,5.1416,5.0322,4.9126,4.8511,4.8203,4.8223,4.8906,4.9219,4.9219,4.9519,4.9687,4.9883,4.9883,5.0,5.0195,5.043,5.0508,5.0547,5.0762,5.0976,5.1133,5.1133,5.1221,5.1377,5.1377,5.1377,5.1377,5.1377,5.1377,5.1377,5.1377,5.1377,5.124,5.0683,5.0371,5.0156,4.9941,4.9551,4.9219,4.9219,4.907,4.8913,4.8913,4.8913,4.8913,4.8913,4.8913,4.9167,4.9922,4.9375,4.9187,4.9941,4.9402,4.8913,4.8913,4.8913,4.8913,4.8913,4.8913,4.8913,4.8913,4.8913,4.8913,4.8913,4.8913,4.8913,4.8913,4.8913,4.8913,4.8913,4.8913,4.8913,4.8913,4.8913,4.8913,4.8848,4.7446,4.6149,4.4766,4.0802,3.8392,3.7085,3.4471,3.3414,3.3414,3.3414,3.3414,3.3427,3.3574,3.3734,3.3921,4.6308,4.6308,4.6876,4.8671,4.7565,4.7133,4.9286,4.8137,4.7246,4.7676,4.7734,4.7891,4.832,4.8359,4.8496,4.8874,4.8913,4.8913,4.8913,5.1428,5.2974,5.2974,5.2974,5.2149,5.0455,5.0455,4.9547,4.7734,4.8144,4.8301,4.8223,4.9075,4.9484,4.9504,4.998,5.0234,5.0332,5.0332,5.0371,5.0508,5.082,5.0957,5.0976,5.126,5.1377,5.1377,5.1377,5.1377,5.1377,5.1377,5.1377,5.1377,5.1377,5.1377,5.1377,5.1377,5.1377,5.1319,5.1035,5.0879,5.0723,5.041,5.0,4.9648,4.9504,4.9258,4.9031,4.8933,4.8913,4.8913,4.8913,4.8913,4.9031,4.9441,0.0,4.905,4.9441,4.9148,4.8913,4.8913,4.8913,4.8913,4.8913,4.8913,4.8913,4.8913,4.8913,4.8913,4.8913,4.8913,4.8913,4.8913,4.8913,4.8913,4.8913,4.8913,4.8913,4.8913,4.8913,4.8913,4.8801,4.6195,4.4654,4.3867,3.9269,3.6953,3.6214,3.4236,3.3414,3.3414,3.3414,3.3414,3.3414,3.3414,3.3561,3.3788,4.6308,4.6308,4.647,4.7018,4.6963,4.7076,4.7685,4.7654,4.7676,4.8105,4.8164,4.832,4.8815,4.8855,4.8874,4.8913,4.8913,4.8913,4.8913,4.9157,4.9282,4.9282,4.9282,4.921,4.9026,4.9026,4.8738,4.8164,4.8594,4.8659,4.8223,4.9075,4.9484,4.9504,4.998,5.0391,5.0762,5.0762,5.0976,5.1299,5.1319,5.1338,5.1338,5.1377,5.1377,5.1377,5.1377,5.1377,5.1377,5.1377,5.1377,5.1377,5.1377,5.1377,5.1377,5.1377,5.1377,5.1377,5.1338,5.1094,5.0801,5.0762,5.0449,5.0019,4.9629,4.9492,4.9355,4.8991,4.8913,4.8913,4.8913,4.8913,4.9422,5.0976,4.9902,4.9414,5.1016,4.9863,4.8913,4.8913,4.8913,4.8913,4.8913,4.8913,4.8913,4.8913,4.8913,4.8913,4.8913,4.8913,4.8913,4.8913,4.8913,4.8913,4.8913,4.8913,4.8913,4.8913,4.8913,4.8913,4.8801,4.6195,4.3689,4.1204,3.849,3.5932,3.365,3.3464,3.3414,3.3414,3.3414,3.3414,3.3414,3.3414,3.3427,3.3494,4.6641,4.6699,4.6816,4.7266,4.7324,4.748,4.791,4.7969,4.8125,4.86,4.8613,4.8718,4.8894,4.8913,4.8913,4.8913,4.8913,4.8913,4.8913,4.8913,4.8913,4.8913,4.8913,4.8913,4.8913,4.8913,4.8815,4.8613,4.8815,4.8815,4.8679,4.9238,4.9668,4.9941,5.0371,5.0801,5.1191,5.1191,5.1289,5.1377,5.1377,5.1377,5.1377,5.1377,5.1377,5.1377,5.1377,5.1377,5.1377,5.1377,5.1377,5.1377,5.1377,5.1377,5.1377,5.1377,5.1377,5.1377,5.1377,5.126,5.1191,5.1191,5.0879,5.0527,5.0351,4.9902,4.9473,4.9316,4.9043,4.8913,4.8913,4.8913,4.9128,4.9726,4.9343,4.9128,4.9746,4.9324,4.8913,4.8913,4.8913,4.8913,4.8913,4.8913,4.8913,4.8913,4.8913,4.8913,4.8913,4.8913,4.8913,4.8913,4.8913,4.8913,4.8913,4.8913,4.8913,4.8913,4.8913,4.8023,4.6383,4.3832,4.1235,3.8588,3.603,3.4336,3.3414,3.3414,3.3414,3.3414,3.3414,3.3414,3.3414,3.3414,3.3414,3.3427,4.707,4.7129,4.7266,4.7695,4.7773,4.791,4.834,4.8418,4.8516,4.8855,4.8913,4.8913,4.8913,4.8913,4.8913,4.8913,4.8913,4.8913,4.8913,4.8913,4.8913,4.8913,4.8913,4.8913,4.8913,4.8913,4.8913,4.8913,4.8913,4.8913,4.8913,4.9453,4.9902,5.0195,5.0762,5.1172,5.1377,5.1377,5.1377,5.1377,5.1377,5.1377,5.1377,5.1377,5.1377,5.1377,5.1377,5.1377,5.1377,5.1377,5.1377,5.1377,5.1377,5.1377,5.1377,5.1377,5.1377,5.1377,5.1377,5.1377,5.1377,5.1377,5.1162,5.0957,5.084,5.0254,4.9687,4.9504,4.918,4.8913,4.8913,4.8913,4.8913,4.8913,4.8913,4.8913,4.8913,4.8913,4.8913,4.8913,4.8913,4.8913,4.8913,4.8913,4.8913,4.8913,4.8913,4.8913,4.8913,4.8913,4.8913,4.8913,4.8913,4.8913,4.8913,4.8913,4.8913,4.8894,4.8069,4.6728,4.489,4.1524,3.9026,3.7134,3.4521,3.3414,3.3414,3.3414,3.3414,3.3414,3.3414,3.3414,3.3414,3.3414,3.3414,3.3414,4.7578,4.7578,4.7715,4.8144,4.8223,4.8359,4.8835,4.8913,4.8913,4.8913,4.8913,4.8913,4.8913,4.8913,4.8913,4.8913,4.8913,4.8913,4.8913,4.8913,4.8913,4.8913,4.8913,4.8913,4.8913,4.8913,4.8913,4.8913,4.8913,4.8913,4.8913,4.9813,5.0176,5.0215,5.1035,5.1377,5.1377,5.1377,5.1377,5.1377,5.1377,5.1377,5.1377,5.1377,5.1377,5.1377,5.1377,5.1377,5.1377,5.1377,5.1377,5.1377,5.1377,5.1377,5.1377,5.1377,5.1377,5.1377,5.1377,5.1377,5.1377,5.1377,5.1377,5.1328,5.0898,5.0488,5.0058,4.9629,4.918,4.8913,4.8913,4.8913,4.8913,4.8913,4.8913,4.8913,4.8913,4.8913,4.8913,4.8913,4.8913,4.8913,4.8913,4.8913,4.8913,4.8913,4.8913,4.8913,4.8913,4.8913,4.8913,4.8913,4.8913,4.8913,4.8913,4.8913,4.8913,4.8848,4.6242,4.4984,4.4796,3.9642,3.7282,3.7134,3.4521,3.3414,3.3414,3.3414,3.3414,3.3414,3.3414,3.3414,3.3414,3.3414,3.3414,3.3414,4.7969,4.8027,4.8144,4.864,4.8718,4.8757,4.8894,4.8913,4.8913,4.8913,4.8913,4.8913,4.8913,4.8913,4.8913,4.8913,4.8913,4.8913,4.8913,4.8913,4.8913,4.8913,4.8913,4.8913,4.8913,4.8913,4.8913,4.8913,4.8913,4.8913,4.8913,4.9167,4.9414,4.9726,4.9933,5.043,5.0996,5.0996,5.0996,5.1016,5.1308,5.1201,5.1016,5.126,5.1377,5.1377,5.1377,5.1377,5.1377,5.1377,5.1377,5.1377,5.1377,5.1377,5.1377,5.1377,5.1377,5.1377,5.1377,5.1377,5.1377,5.1377,5.1377,5.1358,5.1269,5.0918,5.0488,5.0078,4.9629,4.9238,4.8952,4.8913,4.8913,4.8913,4.8913,4.8913,4.8913,4.8913,4.8913,4.8913,4.8913,4.8913,4.8913,4.8913,4.8913,4.8913,4.8913,4.8913,4.8913,4.8913,4.8913,4.8913,4.8913,4.8913,4.8913,4.8913,4.8913,4.8848,4.6242,4.4069,4.2195,3.8831,3.6312,3.4521,3.375,3.3414,3.3414,3.3414,3.3414,3.3414,3.3414,3.3414,3.3414,3.3414,3.3414,3.3414,4.8418,4.8476,4.8555,4.8855,4.8913,4.8913,4.8913,4.8913,4.8913,4.8913,4.8913,4.8913,4.8913,4.8913,4.8913,4.8913,4.8913,4.8913,4.8913,4.8913,4.8913,4.8913,4.8913,4.8913,4.8913,4.8913,4.8913,4.8913,4.8913,4.8913,4.8913,4.9043,4.9258,4.9484,4.9707,5.0078,5.0566,5.0742,5.0801,5.084,5.1269,5.1172,5.084,5.1094,5.1074,5.0957,5.1133,5.1172,5.1211,5.1319,5.1377,5.1377,5.1377,5.1377,5.1377,5.1377,5.1377,5.1377,5.1377,5.1377,5.1377,5.1377,5.1377,5.1377,5.1377,5.1113,5.0723,5.0488,4.9941,4.9453,4.918,4.9031,4.8855,4.8679,4.8796,4.8796,4.8444,4.8542,4.8594,4.8594,4.8503,4.8464,4.864,4.8594,4.8718,4.8894,4.8913,4.8913,4.8913,4.8913,4.8913,4.8913,4.8913,4.8913,4.8913,4.8913,4.8913,4.8848,4.5238,4.2673,4.1091,3.7429,3.4919,3.3414,3.3414,3.3414,3.3414,3.3414,3.3414,3.3414,3.3414,3.3414,3.3414,3.3414,3.3414,3.3414,4.8913,4.8913,4.8913,4.8913,4.8913,4.8913,4.8913,4.8913,4.8913,4.8913,4.8913,4.8913,4.8913,4.8913,4.8913,4.8913,4.8913,4.8913,4.8913,4.8913,4.8913,4.8913,4.8913,4.8913,4.8913,4.8913,4.8913,4.8913,4.8913,4.8913,4.8913,4.9277,4.9473,4.9492,4.9883,5.0078,5.0156,5.0527,5.0683,5.0723,5.1152,5.1074,5.0703,5.0742,5.0508,5.0234,5.0605,5.0742,5.0801,5.1191,5.126,5.1328,5.1319,5.1299,5.128,5.1358,5.1358,5.1338,5.1377,5.1377,5.1377,5.1377,5.1358,5.1338,5.1377,5.1113,5.0801,5.0762,5.0098,4.9465,4.9387,4.9082,4.8698,4.8223,4.8476,4.8522,4.7695,4.791,4.8144,4.8144,4.7812,4.7734,4.8105,4.8144,4.834,4.8815,4.8855,4.8855,4.8913,4.8913,4.8913,4.8913,4.8913,4.8913,4.8913,4.8913,4.8755,4.8478,4.3547,4.1091,4.0657,3.5684,3.3414,3.3414,3.3414,3.3414,3.3414,3.3414,3.3414,3.3414,3.3414,3.3414,3.3414,3.3414,3.3414,3.3414,4.8913,4.8913,4.8913,4.8913,4.8913,4.8913,4.8913,4.8913,4.8913,4.8913,4.8913,4.8913,4.8913,4.8913,4.8913,4.8913,4.8913,4.8913,4.8913,4.8913,4.8913,4.8913,4.8913,4.8913,4.8913,4.8913,4.8913,4.8913,4.8913,4.8913,4.8913,4.9011,4.905,4.9004,4.9148,4.9336,4.9668,4.9718,4.9758,4.9844,5.0273,5.0195,4.9844,5.0176,5.0254,5.0195,5.0273,5.0312,5.0332,5.041,5.0449,5.0508,5.084,5.0723,5.0586,5.123,5.1191,5.1016,5.1299,5.1377,5.1377,5.1377,5.1143,5.1035,5.1319,5.1113,5.0723,5.0391,4.9902,4.927,4.8613,4.8418,4.8203,4.7793,4.7838,4.7838,4.7643,4.7656,4.7715,4.7715,4.7637,4.7617,4.7715,4.7715,4.7891,4.832,4.834,4.8496,4.8894,4.8913,4.8913,4.8913,4.8913,4.8913,4.8913,4.8913,4.7883,4.5802,4.2642,4.0094,3.805,3.4869,3.3414,3.3414,3.3414,3.3414,3.3414,3.3414,3.3414,3.3414,3.3414,3.3414,3.3414,3.3414,3.3414,3.3414,4.8913,4.8913,4.8913,4.8913,4.8913,4.8913,4.8913,4.8913,4.8913,4.8913,4.8913,4.8913,4.8913,4.8913,4.8913,4.8913,4.8913,4.8913,4.8913,4.8913,4.8913,4.8913,4.8913,4.8913,4.8913,4.8913,4.8913,4.8913,4.8913,4.8913,4.8913,4.8913,4.8913,4.8913,4.8913,4.9031,4.9219,4.9433,4.9484,4.9523,5.0,4.9922,4.9551,4.9785,4.9746,4.9617,4.9785,5.0,5.0176,5.0176,5.0176,5.0215,5.043,5.0351,5.0273,5.0703,5.0683,5.0547,5.0781,5.084,5.084,5.084,5.0664,5.0664,5.124,5.0957,5.0508,5.0488,4.9805,4.9062,4.8594,4.8183,4.7773,4.7344,4.7441,4.7441,4.7031,4.7148,4.7266,4.7266,4.709,4.7051,4.7246,4.7461,4.7754,4.8164,4.8398,4.8659,4.8894,4.8913,4.8913,4.8913,4.8913,4.8913,4.8913,4.8913,4.7605,4.4984,4.2403,3.9803,3.7233,3.4571,3.3414,3.3414,3.3414,3.3414,3.3414,3.3414,3.3414,3.3414,3.3414,3.3414,3.3414,3.3414,3.3414,3.3414,4.8913,4.8913,4.8913,4.8913,4.8913,4.8913,4.8913,4.8913,4.8913,4.8913,4.8913,4.8913,4.8913,4.8913,4.8913,4.8913,4.8913,4.8913,4.8913,4.8913,4.8913,4.8913,4.8913,4.8913,4.8913,4.8913,4.8913,4.8913,4.8913,4.8913,4.8913,4.8913,4.8913,4.8913,4.8913,4.8913,4.8933,4.9258,4.9414,4.9453,4.9805,4.9726,4.9414,4.9414,4.918,4.8952,4.9277,4.9648,5.0008,5.0008,5.0008,5.0008,5.0039,5.0019,5.0028,5.0184,5.0117,5.0078,5.0156,5.0176,5.0176,5.0176,5.0117,5.0273,5.1035,5.0625,5.0156,5.041,4.9551,4.8737,4.86,4.7949,4.7324,4.6894,4.7129,4.7109,4.6406,4.6601,4.6816,4.6816,4.6504,4.6445,4.6797,4.7207,4.7637,4.8066,4.8496,4.8835,4.8894,4.8913,4.8913,4.8913,4.8913,4.8913,4.8913,4.8459,4.6915,4.4305,4.1764,3.9399,3.7233,3.4571,3.3414,3.3414,3.3414,3.3414,3.3414,3.3414,3.3414,3.3414,3.3414,3.3414,3.3414,3.3414,3.3414,3.3414,4.8913,4.8913,4.8913,4.8913,4.8913,4.8913,4.8913,4.8913,4.8913,4.8913,4.8913,4.8913,4.8913,4.8913,4.8913,4.8913,4.8913,4.8913,4.8913,4.8913,4.8913,4.8913,4.8913,4.8913,4.8913,4.8913,4.8913,4.8913,4.8913,4.8913,4.8913,4.8913,4.8913,4.8913,4.8913,4.8913,4.8913,4.8972,4.8991,4.8991,4.905,4.905,4.8991,4.8991,4.8952,4.8913,4.8972,4.9031,4.9089,4.9089,4.9089,4.9148,4.9492,4.9355,4.9226,5.0008,4.9902,4.9707,5.0078,5.0176,5.0176,5.0176,4.9902,4.9746,5.0234,4.9961,4.9512,4.9226,4.8691,4.8066,4.7324,4.7045,4.6875,4.6465,4.6426,4.6426,4.6328,4.6348,4.6387,4.6387,4.6328,4.6328,4.6387,4.6777,4.7187,4.7637,4.8047,4.8457,4.8894,4.8913,4.8913,4.8913,4.8913,4.8913,4.8913,4.6682,4.4258,4.1668,3.9059,3.7625,3.7233,3.4571,3.3414,3.3414,3.3414,3.3414,3.3414,3.3414,3.3414,3.3414,3.3414,3.3414,3.3414,3.3414,3.3414,3.3414,4.8913,4.8913,4.8913,4.8913,4.8913,4.8913,4.8913,4.8913,4.8913,4.8913,4.8913,4.8913,4.8913,4.8913,4.8913,4.8913,4.8913,4.8913,4.8913,4.8913,4.8913,4.8913,4.8913,4.8913,4.8913,4.8913,4.8913,4.8913,4.8913,4.8913,4.8913,4.8913,4.8913,4.8913,4.8913,4.8913,4.8913,4.8913,4.8913,4.8913,4.8913,4.8913,4.8913,4.8913,4.8913,4.8913,4.8913,4.8913,4.8913,4.8913,4.8913,4.8933,4.9101,4.9023,4.8972,4.9382,4.9343,4.9199,4.9441,4.9258,4.9082,4.9082,4.875,4.8496,4.8691,4.8574,4.8516,4.8855,4.8125,4.7383,4.6948,4.6738,4.6523,4.6328,4.6308,4.6308,4.6308,4.6308,4.6308,4.6308,4.6308,4.6387,4.6621,4.7031,4.7461,4.7891,4.832,4.8698,4.8894,4.8913,4.8913,4.8913,4.8913,4.8913,4.8913,4.6289,4.4447,4.3262,3.9205,3.6509,3.5054,3.395,3.3414,3.3414,3.3414,3.3414,3.3414,3.3414,3.3414,3.3414,3.3414,3.3414,3.3414,3.3414,3.3414,3.3414]},{"header":{"parameterUnit":"m.s-1","parameterCategory":1,"la1":30.6,"la2":28.766,"lo1":-90.7593,"lo2":-88.6598,"dx":0.0162,"dy":0.0183,"nx":116,"ny":114,"refTime":"2022-11-17T18:00:00:Z","depth":0,"parameterNumber":3,"parameterNumberName":"V-component_of_WINDS"},"data":[0.0,0.0,0.0,0.0,0.0,0.0,0.0,0.0,0.0,0.0,0.0,0.0,0.0,0.0,0.0,0.0,0.0,0.0,0.0,0.0,0.0,0.0,0.0,0.0,0.0,0.0,0.0,0.0,0.0,0.0,0.0,0.0,0.0,0.0,0.0,0.0,0.0,0.0,0.0,0.0,0.0,0.0,0.0,0.0,0.0,0.0,0.0,0.0,0.0,0.0,0.0,0.0,0.0,0.0,0.0,0.0,0.0,0.0,0.0,0.0,0.0,0.0,0.0,0.0,0.0,0.0,0.0,0.0,0.0,0.0,0.0,0.0,0.0,0.0,0.0,0.0,0.0,0.0,0.0,0.0,0.0,0.0,0.0,0.0,0.0,0.0,0.0,0.0,0.0,0.0,0.0,0.0,0.0,0.0,0.0,0.0,0.0,0.0,0.0,0.0,0.0,0.0,0.0,0.0,0.0,0.0,0.0,0.0,0.0,0.0,0.0,0.0,0.0,0.0,0.0,0.0,0.0,0.0,0.0,0.0,0.0,0.0,0.0,0.0,0.0,0.0,0.0,0.0,0.0,0.0,0.0,0.0,0.0,0.0,0.0,0.0,0.0,0.0,0.0,0.0,0.0,0.0,0.0,0.0,0.0,0.0,0.0,0.0,0.0,0.0,0.0,0.0,0.0,0.0,0.0,0.0,0.0,0.0,0.0,0.0,0.0,0.0,0.0,0.0,0.0,0.0,0.0,0.0,0.0,0.0,0.0,0.0,0.0,0.0,0.0,0.0,0.0,0.0,0.0,0.0,0.0,0.0,0.0,0.0,0.0,0.0,0.0,0.0,0.0,0.0,0.0,0.0,0.0,0.0,0.0,0.0,0.0,0.0,0.0,0.0,0.0,0.0,0.0,0.0,0.0,0.0,0.0,0.0,0.0,0.0,0.0,0.0,0.0,0.0,0.0,0.0,0.0,0.0,0.0,0.0,0.0,0.0,0.0,0.0,0.0,0.0,0.0,0.0,0.0,0.0,0.0,0.0,0.0,0.0,0.0,0.0,0.0,0.0,0.0,0.0,0.0,0.0,0.0,0.0,0.0,0.0,0.0,0.0,0.0,0.0,0.0,0.0,0.0,0.0,0.0,0.0,0.0,0.0,0.0,0.0,0.0,0.0,0.0,0.0,0.0,0.0,0.0,0.0,0.0,0.0,0.0,0.0,0.0,0.0,0.0,0.0,0.0,0.0,0.0,0.0,0.0,0.0,0.0,0.0,0.0,0.0,0.0,0.0,0.0,0.0,0.0,0.0,0.0,0.0,0.0,0.0,0.0,0.0,0.0,0.0,0.0,0.0,0.0,0.0,0.0,0.0,0.0,0.0,0.0,0.0,0.0,0.0,0.0,0.0,0.0,0.0,0.0,0.0,0.0,0.0,0.0,0.0,0.0,0.0,0.0,0.0,0.0,0.0,0.0,0.0,0.0,0.0,0.0,0.0,0.0,0.0,0.0,0.0,0.0,0.0,0.0,0.0,0.0,0.0,0.0,0.0,0.0,0.0,0.0,0.0,0.0,0.0,0.0,0.0,0.0,0.0,0.0,0.0,0.0,0.0,0.0,0.0,0.0,0.0,0.0,0.0,0.0,0.0,0.0,0.0,0.0,0.0,0.0,0.0,0.0,0.0,0.0,0.0,0.0,0.0,0.0,0.0,0.0,0.0,0.0,0.0,0.0,0.0,0.0,0.0,0.0,0.0,0.0,0.0,0.0,0.0,0.0,0.0,0.0,0.0,0.0,0.0,0.0,0.0,0.0,0.0,0.0,0.0,0.0,0.0,0.0,0.0,0.0,0.0,0.0,0.0,0.0,0.0,0.0,0.0,0.0,0.0,0.0,0.0,0.0,0.0,0.0,0.0,0.0,0.0,0.0,0.0,0.0,0.0,0.0,0.0,0.0,0.0,0.0,0.0,0.0,0.0,0.0,0.0,0.0,0.0,0.0,0.0,0.0,0.0,0.0,0.0,0.0,0.0,0.0,0.0,0.0,0.0,0.0,0.0,0.0,0.0,0.0,0.0,0.0,0.0,0.0,0.0,0.0,0.0,0.0,0.0,0.0,0.0,0.0,0.0,0.0,0.0,0.0,0.0,0.0,0.0,0.0,0.0,0.0,0.0,0.0,0.0,0.0,0.0,0.0,0.0,0.0,0.0,0.0,0.0,0.0,0.0,0.0,0.0,0.0,0.0,0.0,0.0,0.0,0.0,0.0,0.0,0.0,0.0,0.0,0.0,0.0,0.0,0.0,0.0,0.0,0.0,0.0,0.0,0.0,0.0,0.0,0.0,0.0,0.0,0.0,0.0,0.0,0.0,0.0,0.0,0.0,0.0,0.0,0.0,0.0,0.0,0.0,0.0,0.0,0.0,0.0,0.0,0.0,0.0,0.0,0.0,0.0,0.0,0.0,0.0,0.0,0.0,0.0,0.0,0.0,0.0,0.0,0.0,0.0,0.0,0.0,0.0,0.0,0.0,0.0,0.0,0.0,0.0,0.0,0.0,0.0,0.0,0.0,0.0,0.0,0.0,0.0,0.0,0.0,0.0,0.0,0.0,0.0,0.0,0.0,0.0,0.0,0.0,0.0,0.0,0.0,0.0,0.0,0.0,0.0,0.0,0.0,0.0,0.0,0.0,0.0,0.0,0.0,0.0,0.0,0.0,0.0,0.0,0.0,0.0,0.0,0.0,0.0,0.0,0.0,0.0,0.0,0.0,0.0,0.0,0.0,0.0,0.0,0.0,0.0,0.0,0.0,0.0,0.0,0.0,0.0,0.0,0.0,0.0,0.0,0.0,0.0,0.0,0.0,0.0,0.0,0.0,0.0,0.0,0.0,0.0,0.0,0.0,0.0,0.0,0.0,0.0,0.0,0.0,0.0,0.0,0.0,0.0,0.0,0.0,0.0,0.0,0.0,0.0,0.0,0.0,0.0,0.0,0.0,0.0,0.0,0.0,0.0,0.0,0.0,0.0,0.0,0.0,0.0,0.0,0.0,0.0,0.0,0.0,0.0,0.0,0.0,0.0,0.0,0.0,0.0,0.0,0.0,0.0,0.0,0.0,0.0,0.0,0.0,0.0,0.0,0.0,0.0,0.0,0.0,0.0,0.0,0.0,0.0,0.0,0.0,0.0,0.0,0.0,0.0,0.0,0.0,0.0,0.0,0.0,0.0,0.0,0.0,0.0,0.0,0.0,0.0,0.0,0.0,0.0,0.0,0.0,0.0,0.0,0.0,0.0,0.0,0.0,0.0,0.0,0.0,0.0,0.0,0.0,0.0,0.0,0.0,0.0,0.0,0.0,0.0,0.0,0.0,0.0,0.0,0.0,0.0,0.0,0.0,0.0,0.0,0.0,0.0,0.0,0.0,0.0,0.0,0.0,0.0,0.0,0.0,0.0,0.0,0.0,0.0,0.0,0.0,0.0,0.0,0.0,0.0,0.0,0.0,0.0,0.0,0.0,0.0,0.0,0.0,0.0,0.0,0.0,0.0,0.0,0.0,0.0,0.0,0.0,0.0,0.0,0.0,0.0,0.0,0.0,0.0,0.0,0.0,0.0,0.0,0.0,0.0,0.0,0.0,0.0,0.0,0.0,0.0,0.0,0.0,0.0,0.0,0.0,0.0,0.0,0.0,0.0,0.0,0.0,0.0,0.0,0.0,0.0,0.0,0.0,0.0,0.0,0.0,0.0,0.0,0.0,0.0,0.0,0.0,0.0,0.0,0.0,0.0,0.0,0.0,0.0,0.0,0.0,0.0,0.0,0.0,0.0,0.0,0.0,0.0,0.0,0.0,0.0,0.0,0.0,0.0,0.0,0.0,0.0,0.0,0.0,0.0,0.0,0.0,0.0,0.0,0.0,0.0,0.0,0.0,0.0,0.0,0.0,0.0,0.0,0.0,0.0,0.0,0.0,0.0,0.0,0.0,0.0,0.0,0.0,0.0,0.0,0.0,0.0,0.0,0.0,0.0,0.0,0.0,0.0,0.0,0.0,0.0,0.0,0.0,0.0,0.0,0.0,0.0,0.0,0.0,0.0,0.0,0.0,0.0,0.0,0.0,0.0,0.0,0.0,0.0,0.0,0.0,0.0,0.0,0.0,0.0,0.0,0.0,0.0,0.0,0.0,0.0,0.0,0.0,0.0,0.0,0.0,0.0,0.0,0.0,0.0,0.0,0.0,0.0,0.0,0.0,0.0,0.0,0.0,0.0,0.0,0.0,0.0,0.0,0.0,0.0,0.0,0.0,0.0,0.0,0.0,0.0,0.0,0.0,0.0,0.0,0.0,0.0,0.0,0.0,0.0,0.0,0.0,0.0,0.0,0.0,0.0,0.0,0.0,0.0,0.0,0.0,0.0,0.0,0.0,0.0,0.0,0.0,0.0,0.0,0.0,0.0,0.0,0.0,0.0,0.0,0.0,0.0,0.0,0.0,0.0,0.0,0.0,0.0,0.0,0.0,0.0,0.0,0.0,0.0,0.0,0.0,0.0,0.0,0.0,0.0,0.0,0.0,0.0,0.0,0.0,0.0,0.0,0.0,0.0,0.0,0.0,0.0,0.0,0.0,0.0,0.0,0.0,0.0,0.0,0.0,0.0,0.0,0.0,0.0,0.0,0.0,0.0,0.0,0.0,0.0,0.0,0.0,0.0,0.0,0.0,0.0,0.0,0.0,0.0,0.0,0.0,0.0,0.0,0.0,0.0,0.0,0.0,0.0,0.0,0.0,0.0,0.0,0.0,0.0,0.0,0.0,0.0,0.0,0.0,0.0,0.0,0.0,0.0,0.0,0.0,0.0,0.0,0.0,0.0,0.0,0.0,0.0,0.0,0.0,0.0,0.0,0.0,0.0,0.0,0.0,0.0,0.0,0.0,0.0,0.0,0.0,0.0,0.0,0.0,0.0,0.0,0.0,0.0,0.0,0.0,0.0,0.0,0.0,0.0,0.0,0.0,0.0,0.0,0.0,0.0,0.0,0.0,0.0,0.0,0.0,0.0,0.0,0.0,0.0,0.0,0.0,0.0,0.0,0.0,0.0,0.0,0.0,0.0,0.0,0.0,0.0,0.0,0.0,0.0,0.0,0.0,0.0,0.0,0.0,0.0,0.0,0.0,0.0,0.0,0.0,0.0,0.0,0.0,0.0,0.0,0.0,0.0,0.0,0.0,0.0,0.0,0.0,0.0,0.0,0.0,0.0,0.0,0.0,0.0,0.0,0.0,0.0,0.0,0.0,0.0,0.0,0.0,0.0,0.0,0.0,0.0,0.0,0.0,0.0,0.0,0.0,0.0,0.0,0.0,0.0,0.0,0.0,0.0,0.0,0.0,0.0,0.0,0.0,0.0,0.0,0.0,0.0,0.0,0.0,0.0,0.0,0.0,0.0,0.0,0.0,0.0,0.0,0.0,0.0,0.0,0.0,0.0,0.0,0.0,0.0,0.0,0.0,0.0,0.0,0.0,0.0,0.0,0.0,0.0,0.0,0.0,0.0,0.0,0.0,0.0,0.0,0.0,0.0,0.0,0.0,0.0,0.0,0.0,0.0,0.0,0.0,0.0,0.0,0.0,0.0,0.0,0.0,0.0,0.0,0.0,0.0,0.0,0.0,0.0,0.0,0.0,0.0,0.0,0.0,0.0,0.0,0.0,0.0,0.0,0.0,0.0,0.0,0.0,0.0,0.0,0.0,0.0,0.0,0.0,0.0,0.0,0.0,0.0,0.0,0.0,0.0,0.0,0.0,0.0,0.0,0.0,0.0,0.0,0.0,0.0,0.0,0.0,0.0,0.0,0.0,0.0,0.0,0.0,0.0,0.0,0.0,0.0,0.0,0.0,0.0,0.0,0.0,0.0,0.0,0.0,0.0,0.0,0.0,0.0,0.0,0.0,0.0,0.0,0.0,0.0,0.0,0.0,0.0,0.0,0.0,0.0,0.0,0.0,0.0,0.0,0.0,0.0,0.0,0.0,0.0,0.0,0.0,0.0,0.0,0.0,0.0,0.0,0.0,0.0,0.0,0.0,0.0,0.0,0.0,0.0,0.0,0.0,0.0,0.0,0.0,0.0,0.0,0.0,0.0,0.0,0.0,0.0,3.3391,0.0,0.0,0.0,0.0,0.0,0.0,0.0,0.0,0.0,0.0,0.0,0.0,0.0,0.0,0.0,0.0,0.0,0.0,0.0,0.0,0.0,0.0,0.0,0.0,1.6105,1.657,1.7745,1.7026,0.0,0.0,0.0,0.0,0.0,0.0,0.0,0.0,0.0,2.1367,2.3179,2.4055,2.6007,2.8924,2.7311,2.601,2.5031,0.0,0.0,0.0,0.0,0.0,0.0,0.0,0.0,0.0,0.0,0.0,0.0,0.0,0.0,0.0,0.0,0.0,0.0,0.0,0.0,0.0,0.0,0.0,0.0,0.0,0.0,0.0,0.0,0.0,0.0,0.0,0.0,0.0,0.0,0.0,0.0,0.0,0.0,0.0,0.0,0.0,0.0,0.0,0.0,0.0,0.0,0.0,0.0,0.0,0.0,0.0,0.0,0.0,0.0,0.0,0.0,0.0,0.0,0.0,0.0,0.0,0.0,0.0,0.0,0.0,0.0,0.0,0.0,0.0,0.0,0.0,3.3922,0.0,0.0,0.0,0.0,0.0,0.0,0.0,0.0,0.0,0.0,0.0,0.0,0.0,0.0,0.0,0.0,0.0,0.0,0.0,0.0,0.0,1.5982,1.7697,1.7495,1.7878,1.9429,1.8621,1.8474,1.9539,1.9105,0.0,0.0,0.0,0.0,2.1308,2.222,2.4058,2.6877,2.7809,2.9701,3.2467,3.3757,3.2836,2.9976,2.8286,0.0,0.0,0.0,0.0,0.0,0.0,0.0,0.0,0.0,0.0,0.0,0.0,0.0,0.0,0.0,0.0,0.0,0.0,0.0,0.0,0.0,0.0,0.0,0.0,0.0,0.0,0.0,0.0,0.0,0.0,0.0,0.0,0.0,0.0,0.0,0.0,0.0,0.0,0.0,0.0,0.0,0.0,0.0,0.0,0.0,0.0,0.0,0.0,0.0,0.0,0.0,0.0,0.0,0.0,0.0,0.0,0.0,0.0,0.0,0.0,0.0,0.0,0.0,3.7914,3.8492,3.8567,3.9094,3.9546,3.9848,3.7538,3.6635,3.6732,0.0,0.0,0.0,0.0,0.0,0.0,0.0,0.0,0.0,0.0,0.0,0.0,0.0,0.0,0.0,0.0,0.0,0.0,0.0,0.0,1.7757,1.9544,2.005,2.0327,2.0582,2.0502,2.0522,2.0763,2.0742,0.0,0.0,0.0,0.0,2.2662,2.4215,2.613,2.8309,3.293,3.5681,3.6641,3.74,3.7498,3.6921,3.3239,3.1239,3.0528,0.0,0.0,0.0,0.0,0.0,0.0,0.0,0.0,0.0,0.0,0.0,0.0,0.0,0.0,0.0,0.0,0.0,0.0,0.0,0.0,0.0,0.0,0.0,0.0,0.0,0.0,0.0,0.0,0.0,0.0,0.0,0.0,0.0,0.0,0.0,0.0,0.0,0.0,0.0,0.0,0.0,3.1512,3.1642,0.0,0.0,0.0,0.0,0.0,0.0,0.0,0.0,0.0,0.0,0.0,0.0,0.0,3.6482,3.6055,3.7788,3.8642,3.8567,3.9647,4.0399,4.0876,4.0951,4.1026,4.1076,4.07,0.0,3.8542,3.8341,0.0,0.0,0.0,0.0,0.0,0.0,0.0,0.0,0.0,0.0,0.0,0.0,0.0,0.0,0.0,0.0,0.0,0.0,0.0,0.0,0.0,2.2828,2.3542,2.4948,2.5115,2.5323,2.5697,2.5414,0.0,0.0,0.0,2.6625,2.6542,2.8452,3.0602,3.3039,3.6837,3.8811,3.911,3.9787,4.0086,4.0008,3.824,3.6263,3.4142,3.2365,0.0,0.0,0.0,0.0,0.0,0.0,0.0,0.0,0.0,0.0,0.0,0.0,0.0,0.0,0.0,0.0,0.0,0.0,0.0,0.0,0.0,0.0,0.0,0.0,0.0,0.0,0.0,0.0,0.0,0.0,0.0,0.0,0.0,0.0,0.0,0.0,0.0,0.0,0.0,3.0834,3.2215,3.3448,3.3345,3.3269,0.0,0.0,0.0,0.0,0.0,0.0,0.0,0.0,0.0,3.8215,3.819,3.8492,3.9145,4.0225,4.0728,4.0753,4.1557,4.2032,4.2258,4.2258,4.2258,4.2258,4.2258,4.2032,4.158,4.0651,3.9823,3.9119,0.0,0.0,0.0,0.0,0.0,4.0124,0.0,0.0,0.0,0.0,0.0,0.0,0.0,0.0,0.0,0.0,0.0,0.0,2.4734,2.5578,2.6675,2.8554,2.8899,2.9214,2.9667,2.9551,2.9493,2.9634,3.0264,3.0624,3.0704,3.2718,3.4965,3.7511,3.9619,4.0816,4.1156,4.1654,4.1912,4.1912,4.1912,4.0247,3.7387,3.5659,3.4263,3.3041,0.0,0.0,0.0,0.0,0.0,0.0,0.0,0.0,0.0,0.0,0.0,0.0,0.0,0.0,0.0,0.0,0.0,0.0,0.0,0.0,0.0,0.0,0.0,0.0,0.0,0.0,0.0,0.0,0.0,0.0,0.0,0.0,0.0,0.0,0.0,0.0,0.0,3.2788,3.3922,3.5579,3.5554,3.5604,0.0,0.0,0.0,0.0,0.0,0.0,3.7436,3.7939,3.8894,4.0301,4.0225,4.0651,4.1729,4.2336,4.2612,4.2612,4.3014,4.3291,4.3388,4.3388,4.3613,4.398,4.398,4.4433,4.4997,4.2688,4.1947,4.2221,4.1688,4.1644,4.1905,4.2387,4.2785,4.3464,0.0,0.0,0.0,0.0,0.0,0.0,0.0,0.0,0.0,0.0,0.0,2.5666,2.6424,2.8088,2.9276,2.9523,3.0054,3.0449,3.0527,3.1619,3.2572,3.3213,3.3274,3.3604,3.4231,3.6161,3.8153,4.0187,4.0965,4.1953,4.314,4.319,4.32,4.32,4.32,4.2083,4.0157,3.9415,3.8698,3.7801,3.5275,0.0,0.0,0.0,0.0,0.0,0.0,0.0,0.0,0.0,0.0,0.0,0.0,0.0,0.0,0.0,0.0,0.0,0.0,0.0,0.0,0.0,0.0,0.0,0.0,0.0,0.0,0.0,0.0,0.0,0.0,0.0,0.0,0.0,0.0,0.0,0.0,0.0,0.0,3.8668,3.9094,0.0,0.0,0.0,0.0,3.9446,3.9496,3.9747,4.0275,4.08,4.1404,4.2062,4.3039,4.3338,4.2939,4.3438,4.3714,4.3714,4.374,4.4041,4.4514,4.4514,4.5297,4.6683,4.6683,4.7511,4.854,4.4541,4.3748,4.4943,4.4388,4.4759,4.5653,4.6687,4.791,4.9226,0.0,0.0,0.0,1.3984,1.4715,1.5729,1.7213,1.8782,2.0776,2.3428,2.5245,2.7002,2.8916,3.0846,3.2212,3.2702,3.4481,3.5408,3.5017,3.6194,3.6669,3.6058,3.6417,3.6956,3.7644,3.917,4.0535,4.1673,4.2731,4.3509,4.3938,4.4386,4.4586,4.4586,4.4586,4.3938,4.2821,4.1324,4.0307,3.9559,3.8212,3.6656,0.0,0.0,0.0,0.0,0.0,0.0,0.0,0.0,0.0,0.0,0.0,0.0,0.0,0.0,0.0,0.0,0.0,0.0,0.0,0.0,0.0,0.0,0.0,0.0,0.0,0.0,0.0,0.0,0.0,0.0,0.0,0.0,0.0,0.0,0.0,0.0,0.0,3.9371,4.0199,0.0,4.1001,4.0851,4.0902,4.1281,4.1306,4.1708,4.2585,4.2484,4.2811,4.3714,4.379,4.3865,4.4041,4.4593,4.4895,4.4895,4.5246,4.5522,4.5668,4.5668,4.6503,4.7951,4.8407,4.9425,5.0685,4.9654,4.865,4.7699,4.7507,4.7631,4.8065,4.9308,5.009,5.0792,0.0,0.0,0.0,1.4522,1.5604,1.7024,1.8717,2.0493,2.2695,2.5678,2.7331,2.9098,3.1257,3.3484,3.519,3.6058,3.7943,3.8871,3.8452,3.9469,3.9679,3.8781,3.9589,4.0277,4.0707,4.1803,4.2601,4.305,4.4107,4.4646,4.4646,4.5334,4.5514,4.5304,4.5544,4.5274,4.4556,4.324,4.2192,4.1305,4.0427,3.917,3.7751,0.0,0.0,0.0,0.0,0.0,0.0,0.0,0.0,0.0,0.0,0.0,0.0,0.0,0.0,0.0,0.0,0.0,0.0,0.0,0.0,0.0,0.0,0.0,0.0,0.0,0.0,0.0,0.0,0.0,0.0,0.0,0.0,0.0,0.0,0.0,3.9898,4.0477,4.1505,4.2206,4.2406,4.2431,4.2582,4.2989,4.3014,4.3313,4.4041,4.3915,4.4166,4.4895,4.492,4.5066,4.5443,4.6024,4.6601,4.7142,4.747,4.7923,4.8462,4.8462,4.9258,5.067,5.1136,5.2154,5.3547,5.4001,5.3258,5.175,5.1243,5.1349,5.1935,5.2798,5.3107,5.3352,0.0,0.0,1.5047,1.5464,1.7089,1.8731,1.9831,2.2643,2.5112,2.653,2.9521,3.2033,3.3395,3.5878,3.7956,3.9272,4.0068,4.0487,4.0457,4.1164,4.1553,4.1523,4.2681,4.3349,4.3349,4.4027,4.4386,4.4386,4.5065,4.5394,4.5394,4.6061,4.6001,4.5424,4.6031,4.5942,4.5334,4.5334,4.4566,4.325,4.1983,4.1852,4.2111,0.0,0.0,0.0,0.0,0.0,0.0,0.0,0.0,0.0,0.0,0.0,0.0,0.0,0.0,0.0,0.0,0.0,0.0,0.0,0.0,0.0,0.0,0.0,0.0,0.0,0.0,0.0,0.0,0.0,0.0,0.0,0.0,0.0,3.9948,4.07,4.1603,4.2185,4.319,4.4041,4.4539,4.4589,4.4614,4.4614,4.464,4.4669,4.4752,4.5276,4.5632,4.5725,4.6693,4.7216,4.7277,4.7811,4.8846,5.0366,5.0366,5.1199,5.2706,5.2706,5.3529,5.4918,5.4976,5.582,5.7184,5.7214,5.7214,5.7083,5.5546,5.5843,5.7094,5.7094,5.7094,5.7184,1.5477,1.5414,1.5521,1.6132,1.8021,2.0047,2.1818,2.3911,2.632,2.908,3.0648,3.2378,3.4711,3.6836,3.8482,3.9331,4.1305,4.2342,4.1882,4.3808,4.4736,4.4227,4.4556,4.4766,4.4766,4.5873,4.6471,4.6471,4.713,4.748,4.7459,4.7668,4.7638,4.748,4.716,4.6629,4.6031,4.6031,4.5523,4.4676,4.3838,4.308,4.2381,0.0,0.0,0.0,0.0,0.0,0.0,0.0,0.0,0.0,0.0,0.0,0.0,0.0,0.0,0.0,0.0,0.0,0.0,0.0,0.0,0.0,0.0,0.0,0.0,0.0,0.0,0.0,0.0,0.0,0.0,0.0,0.0,4.2434,4.2135,4.2685,4.3338,4.389,4.4217,4.4439,4.4589,4.4589,4.4765,4.5221,4.5623,4.651,4.8052,4.7571,4.8304,5.0646,4.9881,4.998,5.1161,5.1323,5.1582,5.2045,5.2045,5.2276,5.2706,5.3207,5.4233,5.5695,5.6646,5.7923,5.9308,5.9787,6.0027,5.9762,5.7387,5.675,5.7094,5.7094,5.7094,5.7124,1.6045,1.6164,1.6376,1.6778,1.9004,2.1234,2.2672,2.4698,2.72,3.0478,3.1481,3.305,3.5998,3.7823,3.92,4.0157,4.1893,4.3,4.3169,4.4885,4.5822,4.5723,4.5992,4.6142,4.6142,4.7429,4.8139,4.8139,4.8775,4.9254,4.9523,4.9523,4.9523,4.9494,4.8813,4.8304,4.7916,4.7668,4.701,4.6112,4.5723,4.4945,4.3988,4.3489,4.301,4.2462,4.1235,4.0576,4.0088,3.905,0.0,0.0,0.0,0.0,0.0,0.0,0.0,0.0,0.0,0.0,0.0,0.0,0.0,0.0,0.0,0.0,0.0,0.0,0.0,0.0,0.0,0.0,0.0,0.0,4.5087,4.5933,4.4872,4.5294,4.5645,4.5355,4.6412,4.6777,4.5766,4.683,4.7296,4.6572,4.805,4.9226,4.9778,4.9883,5.0786,5.2649,5.2276,5.2518,5.3454,5.3953,5.4554,5.5192,5.5192,5.5566,5.625,5.6623,5.7251,0.0,5.918,6.0162,6.0984,6.1642,6.1942,0.0,0.0,0.0,0.0,0.0,5.877,5.877,1.6536,1.6942,1.7302,1.7302,1.9918,2.2214,2.2817,2.4994,2.7769,3.1062,3.2033,3.3678,3.7028,3.8584,3.9948,4.1283,4.2081,4.308,4.4436,4.5095,4.5753,4.648,4.71,4.7489,4.7638,4.8887,4.9546,4.9606,5.0219,5.0847,5.1415,5.1355,5.1295,5.1265,5.0607,5.0315,5.0278,4.9733,4.8775,4.7638,4.7638,4.7048,4.6001,4.4296,4.4027,4.4296,4.2551,4.2002,4.1987,4.1562,0.0,0.0,0.0,0.0,0.0,0.0,0.0,0.0,0.0,0.0,0.0,0.0,0.0,0.0,0.0,0.0,0.0,0.0,0.0,0.0,0.0,0.0,0.0,0.0,4.8663,5.0395,4.8472,4.8917,4.8784,4.7064,4.9265,5.0112,4.8028,5.024,5.0895,4.8636,5.1135,5.227,5.1118,0.0,0.0,0.0,0.0,5.5056,5.5232,5.6323,5.7573,5.8987,5.8987,5.9739,6.1076,6.1194,6.1253,6.1373,6.2032,6.2361,6.248,6.3049,6.3317,6.3169,6.1762,6.1283,6.1313,6.1253,6.1283,0.0,1.6687,1.6942,1.7302,1.7302,2.0297,2.2759,2.2886,2.4994,2.7769,3.1062,3.16,3.3155,3.6969,3.8584,3.9948,4.1283,4.2462,4.3908,4.5792,4.6031,4.6651,4.7848,4.8027,4.8596,4.962,5.0398,5.1109,5.1648,5.2306,5.2665,5.2785,5.2247,5.2007,5.1977,5.1295,5.0996,5.0996,5.0877,5.0368,4.965,4.965,4.7975,4.5514,4.5642,4.5792,4.5852,4.5493,4.5702,4.6061,4.5433,4.4796,4.4171,4.3551,4.2523,0.0,0.0,0.0,0.0,0.0,0.0,0.0,0.0,0.0,0.0,0.0,0.0,0.0,0.0,0.0,0.0,0.0,0.0,0.0,5.0379,5.1708,5.2934,5.4625,5.4997,5.3911,5.0699,5.1496,5.2339,5.242,5.2472,5.2311,5.1814,5.2744,5.3997,5.5538,5.5089,5.6211,5.9402,5.8437,5.8494,5.9814,6.005,6.034,6.0653,0.0,0.0,6.1134,6.1672,6.2181,6.2748,6.3348,6.3947,6.4426,6.4575,6.4605,6.4426,6.263,6.2241,6.2659,6.2091,6.2241,6.2718,1.7852,1.7976,1.8345,1.9,2.1435,2.3403,2.3716,2.5652,2.7931,3.0253,3.1092,3.2632,3.5609,3.7434,3.908,4.0756,4.3,4.4865,4.6211,4.66,4.7249,4.8259,4.8618,4.9224,5.0166,5.1176,5.2037,5.2695,5.3354,5.3862,5.4186,5.3862,5.3683,5.3653,5.2995,5.2701,5.2671,5.2336,5.1828,5.1206,5.1206,5.0009,4.8177,4.7549,4.71,4.6839,4.7189,4.7309,4.7369,4.7698,4.76,4.7181,4.6501,4.5713,4.464,0.0,0.0,0.0,0.0,0.0,0.0,0.0,0.0,0.0,0.0,0.0,0.0,0.0,0.0,4.5902,4.7893,0.0,5.076,5.2651,5.4591,5.5934,5.5987,5.7657,5.7542,5.3844,5.488,5.5566,5.4687,5.5993,5.6365,5.5101,5.7045,5.8465,5.8754,5.8754,5.9772,6.2033,6.0991,6.108,6.254,6.257,6.2899,6.3558,6.3199,6.3379,6.4066,6.4066,6.4425,6.5113,6.5742,6.6191,6.652,6.6879,6.7029,6.6879,6.5562,6.4635,6.4006,6.3677,6.3977,6.4545,1.9301,1.9385,1.9653,2.0578,2.2377,2.3868,2.4359,2.6123,2.7944,2.9398,3.0478,3.1944,3.4069,3.6058,3.8093,4.0217,4.3269,4.5334,4.5882,4.6659,4.7459,4.8289,4.8828,4.9434,5.0166,5.1648,5.2665,5.3198,5.4012,5.467,5.5179,5.5179,5.5179,5.5179,5.464,5.4401,5.4371,5.3803,5.3204,5.2606,5.2606,5.2187,5.1409,4.9703,4.8566,4.7938,4.8327,4.8207,4.8027,4.8977,4.9366,4.9366,4.8708,4.8207,4.7463,4.5347,4.4174,0.0,0.0,0.0,0.0,0.0,0.0,0.0,0.0,4.3914,4.4151,4.8916,4.8816,4.8736,5.1515,5.3112,5.4176,5.4713,5.741,5.887,5.7092,5.9509,6.0463,5.7663,5.8719,5.9021,5.732,5.9799,6.0643,5.856,6.1321,6.2585,6.1402,6.2054,6.2839,6.3647,6.3139,6.3408,6.4575,6.4575,6.5144,6.6191,6.5622,6.5951,6.6969,6.643,6.655,6.7208,6.7928,6.8137,6.8047,6.8704,6.8914,6.8764,6.8377,6.7208,6.5742,6.5622,6.6011,6.658,2.0488,2.0611,2.0508,2.0235,2.2141,2.3739,2.3868,2.5509,2.7423,2.9338,2.9728,3.0775,3.3335,3.54,3.7614,4.0187,4.288,4.4446,4.4506,4.5702,4.698,4.8237,4.8379,4.8955,5.0166,5.2097,5.3139,5.3198,5.4486,5.5119,5.5179,5.5179,5.5179,5.5179,5.5119,5.5089,5.5089,5.4999,5.4581,5.3982,5.3982,5.3563,5.2899,5.2067,5.099,4.983,4.9366,4.9494,4.983,4.9426,4.9643,4.9979,4.9396,4.9494,4.9717,4.888,4.8166,4.7085,4.449,4.3438,4.297,4.2641,4.452,4.663,0.0,4.925,5.1104,5.1515,5.2851,5.4246,5.5186,5.5985,5.7126,5.9035,6.0194,6.1201,6.2079,6.2578,6.3142,6.3862,6.2638,6.2097,6.2971,6.2935,6.2754,6.2465,6.2846,6.326,6.3593,6.3739,6.4366,6.5652,6.5592,6.5922,6.664,6.664,6.6729,6.6879,6.6819,6.6849,6.6999,6.6909,6.7238,6.7928,6.8585,6.8525,6.8047,6.8704,6.8645,6.8167,6.8675,6.8764,6.8495,6.7867,6.8076,6.8675,2.0659,2.0795,2.0967,2.1535,2.3103,2.4408,2.4793,2.6182,2.7495,2.8334,2.877,2.9564,3.1075,3.4368,3.7404,3.9601,4.2203,4.3878,4.4267,4.5553,4.6719,4.7668,4.8087,4.8716,4.9643,5.1229,5.2217,5.2606,5.3952,5.461,5.464,5.4999,5.5179,5.5179,5.5179,5.5179,5.5179,5.5179,5.5029,5.479,5.479,5.4371,5.3713,5.3049,5.2426,5.1768,5.0331,4.9763,0.0,4.9793,5.0249,5.0727,5.0481,5.0601,5.0578,4.9606,4.8792,4.7998,4.6913,4.6723,4.6913,4.7081,4.8109,4.9539,5.1597,5.1813,5.2438,5.5481,5.6091,5.6551,5.8055,5.8872,5.9629,6.0542,6.1583,6.245,6.3018,6.3737,6.4545,6.5443,6.4874,6.4425,6.4575,6.4725,6.4784,6.4784,6.5533,6.6071,6.6281,6.6341,6.6759,6.7717,6.6999,6.6879,6.7598,6.7178,6.7178,6.7598,6.7178,6.7418,6.8136,6.7747,6.7958,6.8585,6.8884,6.8824,6.8585,6.8884,6.8824,6.8585,6.8884,6.9243,6.9482,6.8824,6.9004,6.9572,2.0421,2.082,2.1397,2.252,2.3958,2.5093,2.5544,2.6734,2.7585,2.7585,2.8021,2.8697,2.9728,3.317,3.6178,3.8135,4.0558,4.2382,4.3419,4.4745,4.5942,4.698,4.7668,4.8349,4.9007,5.0451,5.1415,5.1917,5.3264,5.3922,5.3922,5.4401,5.4665,5.4665,5.4665,5.4665,5.4665,5.4665,5.4665,5.4665,5.4665,5.4341,5.3862,5.3174,5.2785,5.2456,5.0996,5.0331,5.0145,5.0398,5.0817,5.1206,5.1206,5.1325,5.1289,5.0384,4.9587,4.9071,4.919,4.9765,5.0385,5.0542,5.1364,5.2655,5.483,5.4129,5.4237,5.8481,5.8542,5.8329,6.007,6.0924,6.1373,6.1373,6.248,6.3408,6.3588,6.4605,6.5503,6.6191,6.643,6.637,6.5892,6.6281,6.655,6.655,6.7597,6.8197,6.8017,6.7987,6.8227,6.8704,6.7777,6.7628,6.8287,6.7777,6.7777,6.8287,6.7777,6.8046,6.8974,6.8495,6.8525,6.9004,6.9004,6.8884,6.8734,6.8914,6.8884,6.8734,6.8914,6.9303,6.9662,6.9183,6.9512,7.0231,1.9837,2.0817,2.1904,2.2573,2.4295,2.5591,2.5603,2.6734,2.7585,2.7585,2.7615,2.8364,3.0253,3.1764,3.3439,3.5459,3.7404,3.9397,4.1373,4.2681,4.4246,4.6241,4.6958,4.7638,4.8319,5.0212,5.1206,5.1236,5.2576,5.3228,5.3228,5.3258,5.3258,5.3258,5.3258,5.3258,5.3258,5.3258,5.3258,5.3258,5.3258,5.3258,5.3169,5.2486,5.1828,5.1236,5.1176,5.1588,5.2007,5.1355,5.1176,5.1206,5.1206,5.1648,5.2157,5.2127,5.166,5.132,5.1857,5.2573,5.2943,5.2072,5.4396,5.6707,5.6028,5.6914,5.8304,5.9787,6.0029,6.0238,6.0926,6.1613,6.2061,6.2061,6.3139,6.4216,6.4845,6.5532,6.6221,6.6879,6.7538,6.7928,6.7928,6.7928,6.7928,6.7928,6.8555,6.8675,6.8047,6.7987,6.8017,6.8047,6.7987,6.8287,6.8974,6.8944,6.8944,6.8974,6.8944,6.8974,6.9004,6.8974,6.8974,6.9004,6.9004,6.8615,6.8077,6.8734,6.8615,6.8107,6.8734,6.9004,6.9034,6.9004,6.9782,7.0889,2.0326,2.1069,2.1827,2.239,2.4191,2.5542,2.5542,2.673,2.7585,2.7585,2.7585,0.0,0.0,0.0,0.0,0.0,3.5729,3.7601,3.8691,4.1235,4.318,4.4267,4.5792,4.6929,4.7608,4.8716,4.9494,4.9935,5.081,5.1206,5.1236,5.2127,5.2546,5.2546,5.3019,5.3198,5.3169,5.2749,5.2546,5.2486,5.2067,5.1887,5.1858,5.1594,5.1385,5.1206,0.0,5.081,5.0235,5.0025,5.0511,5.1265,5.1738,5.2636,5.3623,5.4042,5.436,5.459,5.4746,5.563,5.6412,5.6079,5.7557,5.9021,5.8735,5.9428,5.9902,5.9185,6.031,6.1152,6.0209,6.1878,6.3348,6.3348,6.4485,6.5413,6.5652,6.6251,6.6909,6.7598,6.7868,6.7987,6.7987,6.8407,6.8465,6.8047,6.8615,6.8704,6.8047,6.8405,6.8645,6.8645,6.8645,6.8555,6.8347,6.8347,6.8347,6.8347,6.8794,6.9004,6.9004,6.9004,6.9004,6.9004,6.9004,6.8854,6.8675,6.8914,6.8854,6.8675,6.8914,6.9273,6.9662,6.9662,7.0171,7.0829,2.0918,2.1454,2.2062,2.2667,2.4275,0.0,0.0,0.0,0.0,0.0,0.0,0.0,0.0,0.0,0.0,0.0,0.0,3.54,3.6985,3.9308,4.1224,4.2562,4.4296,4.5693,4.6561,4.7489,4.8289,4.8947,4.9553,4.986,4.9912,5.075,5.1139,5.1193,5.1612,5.1821,5.1791,5.1342,5.1409,5.1768,5.087,5.081,5.1146,5.069,5.0361,0.0,5.0451,4.9823,4.9037,4.9756,5.0511,5.1295,5.2007,5.3294,5.473,5.5628,5.6496,5.724,5.724,5.8171,5.9162,5.9162,5.9997,6.0805,6.0805,6.1164,6.1151,6.0003,6.0813,6.1539,6.0911,6.238,6.3677,6.3677,6.4994,6.5922,6.5682,6.664,6.7538,6.7958,6.8437,6.8706,6.8706,6.9093,6.8974,6.8077,6.8615,6.8704,6.8047,6.8437,6.8525,6.8286,6.8286,6.8196,6.7987,6.7987,6.8137,6.8345,6.8794,6.9004,6.9004,6.9004,6.9004,6.9004,6.9004,6.9004,6.9004,6.9004,6.9004,6.9004,6.9004,6.9243,6.9632,6.9632,7.0224,7.0968,2.1532,2.1992,2.2599,0.0,0.0,0.0,0.0,0.0,0.0,0.0,0.0,0.0,0.0,0.0,0.0,0.0,0.0,0.0,3.6028,3.6956,3.8512,4.1074,4.2571,4.3868,4.5125,4.6441,4.7399,4.8027,4.8678,4.9007,4.9037,4.9067,4.9097,4.9157,4.9187,4.9187,4.9187,4.9157,4.9853,5.0877,4.9666,4.9883,5.0847,4.9666,4.8798,4.8349,4.9007,4.8828,4.8588,5.0428,5.1146,5.1385,5.2217,5.3803,5.5628,5.6915,5.8201,5.9219,5.9219,6.0176,6.1136,6.1136,6.1672,6.2151,6.2151,6.2181,6.2153,6.2037,6.1616,6.1614,6.2813,6.311,6.3197,6.3197,6.4784,6.5832,6.5144,6.6759,6.8017,6.8047,6.9215,7.0023,7.0023,7.0023,6.9454,6.8107,0.0,6.8645,6.7987,6.7958,6.7688,6.7059,6.7029,6.7358,6.8047,6.8077,6.8437,6.9064,6.9093,6.9093,6.9093,6.9093,6.9093,6.9093,6.9093,6.9093,6.9093,6.9093,6.9093,6.9093,6.9093,6.9157,6.922,6.922,7.022,7.1528,0.0,0.0,0.0,0.0,0.0,0.0,0.0,0.0,0.0,0.0,0.0,0.0,0.0,0.0,0.0,0.0,0.0,0.0,3.2691,3.525,3.7242,3.8362,4.0666,4.2301,4.3129,4.3928,4.4416,4.4566,4.4745,4.5095,4.5574,4.6103,4.6591,4.71,4.7578,4.7818,4.7788,4.7279,4.7549,4.8237,4.7399,4.7557,4.8267,4.7938,4.7698,4.7638,4.8319,4.8468,4.8379,4.8865,5.0331,5.2396,5.5029,5.6885,5.8381,5.9697,6.0326,6.0567,6.0567,6.1194,6.1852,6.1852,6.2331,6.2868,6.2868,6.3199,6.3028,6.1261,6.2145,6.2999,6.2078,6.3327,6.4516,6.4516,6.5772,6.652,6.5862,6.7029,6.8197,6.8675,6.9482,7.0023,7.0023,7.0023,6.9454,6.8107,6.8167,6.7987,6.7299,6.7238,6.7419,6.7748,6.7748,6.8077,6.8734,6.9213,6.9604,6.9722,7.0201,7.041,7.041,7.041,7.041,7.041,7.041,7.041,7.041,7.041,7.041,7.041,7.041,7.1149,7.2213,7.2152,7.35,7.5315,0.0,0.0,0.0,0.0,0.0,0.0,0.0,0.0,0.0,0.0,0.0,0.0,0.0,0.0,0.0,0.0,0.0,0.0,0.0,3.326,3.4861,3.6058,3.814,3.9846,4.1074,4.1983,4.2491,4.2491,4.3309,4.3638,4.3479,4.4706,4.5514,4.5882,4.6262,4.6411,4.6411,4.6022,4.6441,0.0,0.0,4.6441,4.7249,4.6651,4.6411,4.6501,4.7189,4.7788,4.8438,4.9284,5.1139,5.3503,5.5953,5.7812,5.9368,6.0687,6.1523,6.1972,6.1972,6.266,6.3378,6.3378,6.3647,6.3947,6.3947,6.3977,6.3622,6.2321,6.2883,6.3474,6.3114,6.3891,6.4545,6.4545,6.5443,6.5892,6.5233,6.652,6.7718,6.8076,6.8974,6.9662,6.9961,6.9722,6.9482,6.9273,6.8496,6.7838,6.7479,6.7449,6.7748,6.8405,6.8466,6.8734,6.9423,7.0051,7.038,7.038,7.0739,7.0889,7.0889,7.0889,7.0889,7.0889,0.0,7.0889,7.0889,7.0889,7.0889,7.0889,7.0889,7.2101,7.3788,7.3726,7.5619,7.8189,0.0,0.0,0.0,0.0,0.0,0.0,0.0,0.0,0.0,2.7974,2.7764,2.7585,0.0,0.0,0.0,0.0,0.0,0.0,0.0,0.0,3.2183,3.4009,3.5386,3.6926,3.8703,3.9978,4.0655,4.0745,4.2432,4.2791,4.1901,4.3708,4.4526,4.4526,4.4706,4.4736,4.4646,4.4736,4.5514,4.6561,4.5364,4.5663,4.6651,0.0,4.5095,4.5274,4.6031,4.716,4.8574,5.0332,5.2377,5.4491,5.6102,5.7842,5.9638,6.0984,6.2241,6.3227,6.3227,6.4156,6.5114,6.5024,6.4994,6.4964,6.4874,6.4515,6.4096,6.3917,6.3588,6.3677,6.4785,6.4426,6.4036,6.4126,6.4605,6.4785,6.4216,6.5712,6.6939,6.7089,6.8166,6.9123,6.9782,6.9482,6.9692,7.0709,6.9273,6.8347,6.8257,6.8197,6.8466,6.9093,6.9213,6.9542,7.0081,7.0649,7.0889,7.0889,7.0889,7.0889,7.0889,7.0889,7.0889,7.0889,0.0,0.0,7.0919,7.1148,7.1214,7.1244,7.1562,7.304,7.5023,7.5117,7.7446,8.0548,0.0,0.0,0.0,0.0,0.0,0.0,0.0,0.0,0.0,0.0,2.859,2.7585,0.0,0.0,0.0,0.0,0.0,0.0,0.0,0.0,0.0,3.1959,3.329,3.4458,3.5326,3.6118,3.6776,3.7362,3.7691,3.829,3.9128,4.0008,4.0408,4.0468,4.1564,4.1773,4.1294,4.1852,4.2541,4.3249,4.301,4.3329,4.3967,4.3758,4.3997,0.0,4.5852,4.716,4.841,4.9135,5.1508,5.473,5.7663,5.9608,6.1014,6.2361,6.3258,6.3827,6.3827,6.4814,6.5712,6.5144,6.4994,6.4845,6.4306,6.4515,6.4516,6.3468,6.4006,6.4725,6.4964,6.4426,6.4186,6.4725,6.4904,6.4964,6.4845,6.5592,6.658,6.7688,6.8047,6.8466,6.9093,7.0021,7.047,7.0171,7.029,7.0171,6.9602,6.9093,6.9123,6.972,7.029,7.062,7.0739,7.0859,7.0889,7.0889,7.0889,7.0889,7.0889,7.0889,7.0889,7.0889,7.0889,0.0,7.0986,7.2268,7.283,7.3077,7.4948,7.6711,7.8276,7.8896,8.0708,8.291,0.0,0.0,0.0,0.0,0.0,0.0,0.0,2.8891,2.9847,3.1809,3.0941,3.0013,2.9684,2.874,2.8111,0.0,0.0,0.0,0.0,0.0,0.0,3.0478,3.1764,3.2751,3.3455,3.4442,3.4967,3.4937,0.0,3.6464,3.6404,3.7734,3.8542,3.8901,3.9529,3.9858,3.99,4.0217,4.0756,4.1373,4.1373,4.1743,4.2284,4.201,4.2749,0.0,4.4598,4.6312,4.8239,4.7762,4.9965,5.337,5.5868,5.8116,6.0118,6.1351,6.3061,6.4516,6.4516,6.5503,6.637,6.5712,6.5263,6.4815,6.4156,6.4006,6.3917,6.3617,6.4066,6.4575,6.4934,6.4725,6.4635,6.4934,6.4695,6.4485,6.4485,6.5084,6.5742,6.637,6.7029,6.7717,6.8405,6.9632,7.056,7.0949,7.1577,7.1517,7.047,7.0141,7.0141,7.041,7.0739,7.0889,7.0889,7.0889,7.0889,7.0889,7.0889,7.0889,7.0889,7.0889,7.0889,7.0889,7.0889,0.0,7.2173,7.3355,7.434,7.5217,7.6717,7.8452,8.0172,8.0535,8.2109,8.4065,0.0,0.0,0.0,0.0,0.0,0.0,2.9499,3.0234,3.1344,3.3829,3.3814,3.326,3.2437,3.0478,2.9042,0.0,0.0,0.0,0.0,0.0,0.0,0.0,0.0,0.0,3.2063,0.0,0.0,3.3275,3.4861,0.0,0.0,0.0,0.0,0.0,3.7644,3.8003,3.8374,3.8644,3.917,0.0,0.0,4.0475,4.114,0.0,0.0,0.0,0.0,4.4862,4.7177,4.6511,4.8052,5.0688,5.2666,5.5509,5.8426,5.9871,6.2167,6.4307,6.4426,6.55,6.646,6.5922,6.5383,6.4785,6.3977,6.3647,6.3498,6.3588,6.3797,6.4126,6.4516,6.4695,6.4815,6.4964,6.4455,6.4066,6.4186,6.4516,6.4934,6.5383,6.6251,6.7148,6.8137,6.9363,7.062,7.1787,7.2654,7.2595,7.1398,7.1188,7.1188,7.1338,7.1188,7.1098,7.1098,7.1098,7.1038,7.0889,7.0889,7.0889,7.0889,7.0889,7.1173,7.165,7.1468,0.0,0.0,7.5047,7.62,7.7506,7.8593,8.0132,8.1702,8.1868,8.3056,8.4614,0.0,0.0,0.0,0.0,0.0,0.0,2.8286,3.1125,3.3873,3.5955,3.6656,3.6507,3.528,3.2796,3.0524,0.0,0.0,0.0,0.0,0.0,0.0,0.0,0.0,0.0,0.0,0.0,0.0,3.2572,3.2781,0.0,0.0,0.0,0.0,0.0,0.0,3.5459,3.5027,3.6254,0.0,0.0,0.0,0.0,0.0,0.0,0.0,0.0,0.0,4.2763,4.4173,4.5628,4.5859,4.6032,4.8803,5.2791,5.684,5.8967,6.0628,6.1935,6.2545,6.394,6.5174,6.5114,6.5054,6.4665,6.3438,6.4036,6.4336,6.263,6.3199,6.3857,6.3348,6.3707,6.4306,6.4904,6.4455,6.4216,6.4815,6.4455,6.4784,6.658,6.64,6.6849,6.8704,7.0051,7.1098,7.1816,7.3073,7.3492,7.2774,7.2146,7.2086,7.2714,7.2116,7.1787,7.1787,7.1787,7.1487,7.0889,7.0889,7.0889,7.0889,7.0889,7.2062,7.4035,7.3386,0.0,0.0,7.8242,7.9054,8.0023,8.2167,8.3098,8.3373,8.4021,8.4405,8.4614,0.0,0.0,0.0,0.0,0.0,0.0,2.8888,3.0123,3.224,3.626,3.6734,3.6532,3.6128,3.516,3.3095,2.9518,0.0,0.0,0.0,0.0,0.0,0.0,0.0,0.0,0.0,0.0,3.1839,3.2512,3.2512,0.0,0.0,0.0,0.0,0.0,0.0,3.4275,3.4275,3.541,0.0,0.0,0.0,0.0,0.0,0.0,0.0,0.0,0.0,0.0,4.343,4.2907,4.3677,4.5308,4.7634,4.9673,5.1843,5.5123,5.8705,6.1639,6.1837,6.3701,6.5383,6.4605,6.4425,6.4186,6.3317,6.3169,6.3169,6.278,6.278,6.2899,6.3078,6.3588,6.4216,6.4874,6.4785,6.4994,6.6071,6.5981,6.6251,6.7479,6.7717,6.8136,6.8914,7.05,7.2116,7.3616,7.418,7.436,7.4121,7.3073,7.2624,7.2894,7.2654,7.2505,7.2505,7.2086,7.1757,7.1487,7.1487,7.2043,7.3005,7.3402,7.4625,7.6408,7.6155,0.0,0.0,7.9987,8.1033,8.2282,8.365,8.4167,8.42,8.4478,8.4614,8.4614,0.0,0.0,0.0,0.0,0.0,2.6283,2.8919,2.9833,3.1653,3.5661,3.6568,3.6681,3.6247,3.5978,3.4383,3.0777,2.9505,0.0,0.0,0.0,0.0,0.0,0.0,0.0,0.0,0.0,3.2033,3.2512,3.2691,3.3036,0.0,0.0,3.3769,3.4188,0.0,0.0,0.0,0.0,0.0,0.0,0.0,0.0,0.0,0.0,0.0,0.0,0.0,0.0,0.0,0.0,0.0,4.4037,4.647,4.7095,4.7942,5.3026,5.7187,6.0312,6.1254,6.3407,6.5144,6.4006,6.4006,6.4036,6.3019,6.272,6.269,6.278,6.2599,6.248,6.2748,6.3438,6.4216,6.4874,6.4994,6.5383,6.655,6.6879,6.7298,6.8197,6.8884,6.9512,7.0111,7.1577,7.3133,7.4783,7.4903,7.4903,7.4903,7.4001,7.3492,7.3492,7.3313,7.3223,7.3223,7.2714,7.2385,7.2176,7.2674,7.3518,7.4687,7.562,7.7036,7.8772,0.0,0.0,0.0,8.1768,8.267,8.3896,8.4377,8.4614,8.4614,8.4614,8.4614,8.4614,0.0,0.0,0.0,0.0,0.0,0.0,2.7835,3.0951,3.3409,3.4124,3.6655,3.7644,3.5729,3.4739,3.3755,3.2572,3.0702,0.0,0.0,0.0,0.0,0.0,0.0,0.0,0.0,0.0,3.2482,3.2512,3.3155,3.3484,3.3484,3.3484,3.3484,3.3514,0.0,0.0,0.0,0.0,0.0,0.0,0.0,0.0,3.6305,0.0,0.0,0.0,0.0,0.0,0.0,0.0,0.0,0.0,0.0,4.5307,4.6148,5.39,5.6243,5.709,6.0574,6.2731,6.3857,6.3257,6.4066,6.4486,6.254,6.3079,6.3617,6.2361,6.263,6.2898,6.2241,6.3139,6.4216,6.4874,6.4994,6.5233,6.5922,6.658,6.7478,6.8824,6.9572,7.0739,7.2684,7.3492,7.4151,7.4873,7.4903,0.0,7.4903,7.4903,7.4903,7.4903,7.424,7.3881,7.3881,7.3881,7.3552,7.2894,7.4479,7.5276,7.5339,7.7001,7.9014,0.0,0.0,0.0,0.0,8.3768,8.3903,8.458,8.4614,8.4614,8.4614,8.4614,8.4614,8.4614,0.0,0.0,0.0,0.0,0.0,0.0,0.0,2.779,2.9799,3.2235,3.3897,3.4785,3.4639,3.4493,3.3846,3.2427,3.0105,0.0,0.0,0.0,0.0,0.0,0.0,0.0,0.0,0.0,3.2777,3.522,3.4764,3.4942,3.5752,3.5752,3.4923,3.3394,3.3009,3.2302,0.0,0.0,0.0,0.0,0.0,3.4851,3.5242,0.0,0.0,0.0,0.0,0.0,0.0,0.0,0.0,0.0,0.0,0.0,0.0,5.1133,5.3455,5.4662,5.7191,5.977,6.185,6.2311,6.3049,6.3408,6.2331,6.2421,6.26,6.2181,6.2271,6.248,6.2748,6.3438,6.4216,6.4874,6.5383,6.6071,6.7208,6.7926,6.8675,6.9572,7.0652,7.1697,7.2804,7.3522,7.418,7.4873,7.4903,7.4903,7.4903,7.4903,7.4903,7.4903,7.4659,7.4569,7.4569,7.4121,7.4369,7.5217,7.5765,7.7148,7.937,8.0355,8.1779,0.0,0.0,0.0,0.0,8.4343,8.4377,8.4614,8.4614,8.4614,8.4614,8.4614,8.4614,8.4614,0.0,0.0,0.0,0.0,0.0,0.0,0.0,2.6363,2.8012,2.9721,3.1422,3.2585,3.2951,3.2581,3.2168,3.1769,2.9083,0.0,0.0,0.0,0.0,0.0,0.0,0.0,0.0,3.1349,3.2701,3.5595,3.542,3.5845,3.6767,3.6767,3.5889,3.4338,3.3943,3.3155,0.0,0.0,0.0,0.0,3.3647,3.4048,3.4753,0.0,0.0,0.0,0.0,0.0,0.0,0.0,0.0,0.0,0.0,0.0,0.0,0.0,5.0371,5.2536,5.6219,5.8929,6.0875,6.1542,6.2421,6.2868,6.1942,6.1912,6.2181,6.2421,6.248,6.266,6.3347,6.3947,6.4605,6.5263,6.6161,6.6939,6.7538,6.8615,6.9692,7.059,7.1846,7.2804,7.3253,7.3881,7.442,7.4873,7.4903,7.4903,7.4903,7.4903,7.4903,7.4903,7.4903,7.518,7.5796,7.5404,7.5987,7.7622,7.8213,7.9609,8.1624,8.2626,8.3674,0.0,0.0,0.0,0.0,8.4614,8.4614,8.4614,8.4614,8.4614,8.4614,8.4614,8.4614,8.4614,0.0,0.0,0.0,0.0,0.0,0.0,0.0,2.6263,2.7704,2.6956,2.9211,3.0861,3.0732,2.945,2.9174,3.0582,0.0,0.0,0.0,0.0,0.0,0.0,0.0,0.0,0.0,3.0986,3.2471,3.4325,3.5405,3.6245,3.6797,3.6831,3.6484,3.5817,3.5817,3.5029,0.0,0.0,0.0,0.0,3.2964,3.3796,0.0,0.0,0.0,0.0,0.0,0.0,0.0,0.0,0.0,0.0,0.0,0.0,0.0,0.0,0.0,0.0,0.0,5.9475,6.0584,6.1007,6.2032,6.263,6.1463,6.1642,0.0,6.2958,6.3138,6.3347,6.3887,6.4605,6.5263,6.5862,6.7029,6.7748,6.7148,6.8734,7.0472,7.1667,7.3013,7.3851,7.3881,7.448,7.4903,7.4903,7.4903,7.4903,7.4903,7.5006,7.5044,7.5044,7.518,7.5899,7.729,7.7419,7.8345,7.9986,8.1505,8.2288,8.243,8.392,8.4614,0.0,0.0,0.0,0.0,8.4614,8.4614,8.4614,8.4614,8.4614,8.4614,8.4614,8.4614,8.4614,0.0,0.0,0.0,0.0,0.0,0.0,0.0,0.0,0.0,0.0,2.741,2.8142,2.7878,2.7725,2.7693,0.0,0.0,0.0,0.0,0.0,0.0,0.0,0.0,0.0,0.0,3.1146,3.2877,3.6368,3.6356,3.6844,3.779,3.817,3.7172,3.4985,3.4985,3.4313,0.0,0.0,0.0,0.0,3.3947,3.4477,0.0,0.0,0.0,0.0,3.7864,3.8467,0.0,0.0,0.0,0.0,0.0,0.0,0.0,0.0,4.703,5.0201,5.3434,0.0,5.8842,6.065,6.1343,6.1613,0.0,6.2002,6.2271,6.2958,6.3468,6.3827,6.3977,6.4964,6.5622,6.5293,6.637,6.7389,6.7718,6.9065,7.026,7.1038,7.2325,7.3343,7.3851,7.448,7.4903,7.4903,7.4903,7.4903,7.4903,7.6066,7.6765,7.6765,7.7995,7.8218,7.729,7.8597,8.0046,8.165,8.2026,8.2858,8.4062,8.4419,8.4614,0.0,0.0,0.0,8.4614,8.4614,8.4614,8.4614,8.4614,8.4614,8.4614,8.4614,8.4614,8.4614,0.0,0.0,0.0,0.0,0.0,0.0,0.0,0.0,0.0,0.0,0.0,2.6547,2.6009,2.6054,0.0,0.0,0.0,0.0,0.0,0.0,0.0,0.0,0.0,0.0,3.1106,3.1403,3.3129,3.6356,3.6438,3.7,3.8063,3.8088,3.7298,3.583,3.5305,3.4603,0.0,0.0,0.0,3.3165,3.3997,0.0,0.0,0.0,0.0,0.0,3.7814,3.8391,0.0,3.9798,4.0074,4.0275,0.0,0.0,0.0,0.0,4.6853,5.0201,5.226,5.5195,5.8175,6.0144,6.1104,6.1642,6.2002,6.254,6.3169,6.3827,6.4485,6.4934,6.4934,6.5772,6.634,6.5981,6.7029,6.8345,6.9634,7.0173,7.0769,7.1727,7.2744,7.3492,7.3851,7.448,7.4903,7.4903,7.556,7.5999,7.5999,7.7579,7.8471,7.8471,8.0014,8.0468,7.9556,8.0468,8.1708,8.331,8.331,8.3756,8.4614,8.4614,8.4614,0.0,0.0,0.0,8.4614,8.4614,8.4614,8.4614,8.4614,8.4614,8.4614,8.4614,8.4614,8.4614,0.0,0.0,0.0,0.0,0.0,0.0,0.0,0.0,0.0,0.0,0.0,0.0,0.0,0.0,0.0,0.0,0.0,0.0,0.0,0.0,0.0,0.0,0.0,2.9101,3.0688,3.1943,3.3599,3.5656,3.6309,3.7161,3.814,3.7739,3.7512,3.7262,3.6133,3.5305,0.0,0.0,3.3165,3.3165,3.3771,0.0,0.0,0.0,0.0,0.0,0.0,0.0,0.0,4.0023,4.0424,4.0575,4.1152,0.0,0.0,0.0,0.0,0.0,5.2153,5.5197,5.8286,5.9842,6.1014,6.1882,6.2181,6.3079,6.4066,6.4845,6.5532,6.6011,6.6011,6.655,6.6969,6.6849,6.8046,6.9572,7.1218,7.1218,7.1487,7.2624,7.3432,7.3941,7.4031,7.4782,7.5282,7.5282,7.6765,7.7676,7.7676,7.925,8.0167,8.0167,8.1737,8.2572,8.2572,8.2572,8.3254,8.4614,8.4614,8.4614,8.4614,8.4614,8.4614,0.0,0.0,0.0,8.4614,8.4614,8.4614,8.4614,8.4614,8.4614,8.4614,8.4614,8.4614,8.4614,0.0,0.0,0.0,0.0,0.0,0.0,0.0,0.0,0.0,0.0,0.0,0.0,0.0,0.0,0.0,0.0,0.0,0.0,0.0,0.0,0.0,0.0,0.0,0.0,3.1235,3.3273,3.4951,3.6256,3.7262,3.809,3.8768,3.912,3.8793,3.7839,3.6758,3.568,3.4653,3.4048,3.3517,3.319,3.4198,0.0,0.0,0.0,0.0,0.0,0.0,0.0,0.0,3.9446,4.0124,4.0575,4.1152,0.0,0.0,0.0,0.0,0.0,5.1793,5.5384,5.9215,6.0599,6.0685,6.0862,6.2569,6.3108,6.3558,6.4755,6.5532,6.6011,6.6011,6.655,6.6819,6.6251,6.7747,6.9093,6.9393,7.0769,7.1816,7.2026,7.3133,7.4121,7.4693,7.6075,7.6931,7.6931,7.8471,7.9436,7.9436,8.0944,8.1824,8.1824,8.3393,8.4224,8.4224,8.4224,8.4366,8.4614,8.4614,8.4614,8.4614,8.4614,8.4614,0.0,0.0,8.4614,8.4614,8.4614,8.4614,8.4614,8.4614,8.4614,8.4614,8.4614,8.4614,8.4614,0.0,0.0,0.0,0.0,0.0,0.0,0.0,0.0,0.0,0.0,0.0,0.0,0.0,0.0,0.0,0.0,0.0,0.0,0.0,0.0,0.0,0.0,0.0,0.0,0.0,3.4151,3.5832,3.7261,3.8366,3.9195,3.9747,3.9722,3.9094,3.7965,3.7185,3.6381,3.5581,3.5004,3.4452,3.4048,0.0,0.0,0.0,0.0,0.0,0.0,0.0,0.0,0.0,0.0,4.0725,4.1076,4.1957,0.0,0.0,0.0,0.0,0.0,5.3048,5.6246,5.9518,6.1224,6.1672,6.215,6.3767,6.4126,6.4395,6.5323,6.5802,6.6011,6.6011,6.6251,6.649,6.652,6.8226,6.9632,6.9991,7.1427,7.2565,7.2924,7.3821,7.4917,7.6102,7.6865,7.7676,7.8597,8.0197,8.1092,8.1092,8.2628,8.3503,8.3503,8.4197,8.4614,8.4614,8.4614,8.4614,8.4614,8.4614,8.4614,8.4614,8.4614,8.4614,8.4614,0.0,8.4614,8.4614,8.4614,8.4614,8.4614,8.4614,8.4614,8.4614,8.4614,8.4614,8.4614,0.0,0.0,0.0,0.0,0.0,0.0,0.0,0.0,0.0,0.0,0.0,0.0,0.0,0.0,0.0,0.0,0.0,0.0,0.0,0.0,0.0,0.0,0.0,0.0,0.0,3.518,3.6836,3.8391,3.9673,4.0425,4.0675,4.0023,3.917,3.8191,3.7613,3.701,3.6359,3.5757,3.5182,3.4753,0.0,0.0,0.0,0.0,0.0,0.0,0.0,0.0,0.0,0.0,0.0,0.0,0.0,0.0,0.0,4.6322,4.8894,5.1655,5.4219,5.7061,5.9817,6.1822,6.272,6.3408,6.4695,6.4994,6.5174,6.5862,6.6011,6.6071,6.6221,6.6251,6.655,6.7537,6.8854,7.0081,7.1009,7.2146,7.3163,7.3821,7.4793,7.5933,7.716,7.7996,7.8971,8.0258,8.1853,8.2741,8.2741,8.392,8.4614,8.4614,8.4614,8.4614,8.4614,8.4614,8.4614,8.4614,8.4614,8.4614,8.4614,8.4614,8.4614,8.4614,8.4614,8.4614,8.4614,8.4614,8.4614,8.4614,8.4614,8.4614,8.4614,8.4614,8.4614,8.4614,0.0,0.0,0.0,0.0,0.0,0.0,0.0,0.0,0.0,0.0,0.0,0.0,0.0,0.0,0.0,0.0,0.0,0.0,0.0,0.0,0.0,0.0,0.0,0.0,0.0,3.671,3.8391,3.9572,4.1205,4.1731,4.1227,4.0199,3.9371,3.8818,3.8216,3.7387,0.0,0.0,3.5182,3.4753,3.5282,0.0,0.0,0.0,0.0,0.0,0.0,0.0,0.0,0.0,0.0,0.0,0.0,0.0,4.4832,4.6453,4.9164,5.2128,5.4304,5.7384,6.0533,6.2539,6.3078,6.3408,6.4695,6.4994,6.5174,6.5862,6.6011,6.6191,6.6819,6.6909,6.7537,6.9453,6.9363,6.9722,7.1547,7.2445,7.3163,7.3821,7.5805,7.716,7.729,8.0075,8.1911,8.2026,8.3503,8.4419,8.4419,8.4526,8.4614,8.4614,8.4614,8.4614,8.4614,8.4614,8.4614,8.4614,8.4614,8.4614,8.4614,8.4614,8.4614,8.4614,8.4614,8.4614,8.4614,8.4614,8.4614,8.4614,8.4614,8.4614,8.4614,8.4614,8.4614,8.4614,0.0,0.0,0.0,0.0,0.0,0.0,0.0,0.0,0.0,0.0,0.0,0.0,0.0,0.0,0.0,0.0,0.0,0.0,0.0,0.0,0.0,0.0,0.0,3.2788,3.5703,3.7236,3.8894,4.07,4.1354,4.1731,4.1833,4.0375,3.9572,3.9371,3.8818,0.0,0.0,0.0,0.0,3.5778,3.5981,3.6056,0.0,0.0,0.0,0.0,0.0,0.0,0.0,0.0,4.1254,4.2338,4.2989,4.384,4.5135,4.7939,5.0435,5.2995,5.6063,5.9048,6.1613,6.2808,6.4036,6.5144,6.6041,6.5293,6.4695,6.5772,6.6011,6.634,6.7449,6.8286,6.8974,6.9303,6.9842,7.044,7.1158,7.2206,7.3503,7.5169,7.653,7.8092,8.0165,8.1472,8.26,8.3647,8.4251,0.0,8.4614,8.4614,8.4614,8.4614,8.4614,8.4614,8.4614,8.4614,8.4614,8.4614,8.4614,8.4614,8.4614,8.4614,8.4614,8.4614,8.4614,8.4614,8.4614,8.4614,8.4614,8.4614,8.4614,8.4614,8.4614,8.4614,8.4614,8.4614,0.0,0.0,0.0,0.0,0.0,0.0,0.0,0.0,0.0,0.0,0.0,0.0,0.0,0.0,0.0,0.0,0.0,0.0,0.0,2.7268,2.8524,0.0,0.0,3.3043,3.6031,3.7362,3.8994,4.1051,4.1051,4.1354,4.1884,4.0401,3.9798,0.0,0.0,0.0,0.0,0.0,0.0,0.0,3.648,3.6405,0.0,0.0,0.0,0.0,0.0,0.0,0.0,0.0,4.1254,4.2471,4.4003,4.4883,4.6073,4.9802,5.2378,5.4658,5.7616,6.0505,6.275,6.3048,6.4395,6.5922,6.6789,6.5922,6.5263,6.64,6.6969,6.7478,6.8197,6.9245,6.9901,6.9632,7.0171,7.0829,7.1457,7.2759,7.4391,7.6387,7.7936,7.9709,8.1968,8.2656,8.3421,8.45,8.4614,0.0,0.0,8.4614,8.4614,8.4614,8.4614,8.4614,8.4614,8.4614,8.4614,8.4614,8.4614,8.4614,8.4614,8.4614,8.4614,8.4614,8.4614,8.4614,8.4614,8.4614,8.4614,8.4614,8.4614,8.4614,8.4614,8.4614,8.4614,8.4614,0.0,0.0,0.0,0.0,0.0,0.0,0.0,0.0,0.0,0.0,0.0,0.0,0.0,0.0,0.0,0.0,0.0,0.0,2.6449,2.7494,2.8329,2.8881,3.1014,3.3222,3.5433,3.7137,3.8818,4.0499,4.0499,4.0775,4.1277,4.0199,0.0,0.0,0.0,0.0,0.0,0.0,0.0,0.0,3.6607,3.6381,3.6405,0.0,0.0,0.0,0.0,0.0,0.0,0.0,4.1229,4.2635,4.5169,4.6397,4.7723,5.1873,5.4885,5.7215,5.8689,6.1493,6.3857,6.3287,6.4066,6.5353,6.67,6.6999,6.7178,6.7868,6.9065,6.9782,6.9123,6.9542,7.0201,7.0799,7.038,7.0712,7.2624,7.4315,7.5803,7.7199,8.0225,8.223,8.223,8.3641,8.4614,8.4614,8.4614,0.0,0.0,8.4614,8.4614,8.4614,8.4614,8.4614,8.4614,8.4614,8.4614,8.4614,8.4614,8.4614,8.4614,8.4614,8.4614,8.4614,8.4614,8.4614,8.4614,8.4614,8.4614,8.4614,8.4614,8.4614,8.4614,8.4614,8.4614,8.4614,0.0,0.0,0.0,0.0,0.0,0.0,0.0,0.0,0.0,0.0,0.0,0.0,0.0,0.0,0.0,0.0,0.0,0.0,2.6474,2.7494,2.8329,2.8881,3.0658,3.2491,3.4327,3.6759,3.8994,4.1076,4.0675,4.0575,4.07,3.9622,0.0,0.0,0.0,0.0,0.0,0.0,0.0,0.0,3.7034,3.6733,3.6405,0.0,0.0,0.0,0.0,0.0,0.0,0.0,0.0,0.0,4.4102,4.5821,4.8086,5.1183,5.4032,5.6839,5.97,6.1912,6.3528,6.4276,6.5084,6.5951,6.6789,6.6999,6.7448,6.9095,6.9333,6.9512,7.0201,7.05,7.0679,7.0859,7.0739,7.1582,7.4231,7.4991,7.665,8.0334,8.1589,8.2628,8.3784,8.4339,8.4614,8.4614,0.0,0.0,0.0,8.4614,8.4614,8.4614,8.4614,8.4614,8.4614,8.4614,8.4614,8.4614,8.4614,8.4614,8.4614,8.4614,8.4614,8.4614,8.4614,8.4614,8.4614,8.4614,8.4614,8.4614,8.4614,8.4614,8.4614,8.4614,8.4614,8.4614,0.0,0.0,0.0,0.0,0.0,0.0,0.0,0.0,0.0,0.0,2.3296,2.3738,0.0,0.0,0.0,0.0,0.0,0.0,2.6499,2.7311,2.8122,2.8881,3.0105,3.1738,3.3847,3.6609,3.8642,3.9997,4.0098,4.0199,4.0174,0.0,0.0,0.0,0.0,0.0,0.0,0.0,0.0,0.0,3.7588,3.721,3.6708,0.0,0.0,0.0,0.0,0.0,0.0,0.0,0.0,0.0,4.5784,4.7401,4.9034,5.3074,5.5832,5.8206,6.1118,6.2839,6.4036,6.4815,6.5682,6.67,6.7897,6.8166,6.8435,6.9393,6.9901,7.0231,7.05,7.0949,7.1218,7.0949,7.1683,7.2967,7.5026,7.6644,7.879,8.1837,8.2741,8.3531,8.45,8.4614,8.4614,8.4614,0.0,0.0,0.0,8.4614,8.4614,8.4614,8.4614,8.4614,8.4614,8.4614,8.4614,8.4614,8.4614,8.4614,8.4614,8.4614,8.4614,8.4614,8.4614,8.4614,8.4614,8.4614,8.4614,8.4614,8.4614,8.4614,8.4614,8.4614,8.4614,8.4614,0.0,0.0,0.0,0.0,0.0,0.0,0.0,0.0,0.0,2.3095,2.3587,2.3929,0.0,0.0,0.0,2.5586,2.6147,2.6499,2.6499,2.6984,2.7745,2.8781,2.9553,3.1185,3.3847,3.6458,3.7814,3.7864,3.9094,3.9697,0.0,0.0,4.075,0.0,0.0,4.1227,0.0,0.0,0.0,0.0,0.0,3.7638,3.7135,3.7135,0.0,0.0,0.0,0.0,0.0,0.0,0.0,0.0,4.8714,5.0051,5.0466,5.6164,5.8901,6.0563,6.2569,6.3977,6.4934,6.5144,6.6161,6.7567,6.9424,6.9901,6.9842,6.9303,7.053,7.14,7.0293,7.1009,7.1607,7.1068,7.291,7.4687,7.5496,7.8863,8.1515,8.2331,8.3729,8.4614,8.4614,8.4614,8.4614,8.4614,0.0,0.0,0.0,8.4614,8.4614,8.4614,8.4614,8.4614,8.4614,8.4614,8.4614,8.4614,8.4614,8.4614,8.4614,8.4614,8.4614,8.4614,8.4614,8.4614,8.4614,8.4614,8.4614,8.4614,8.4614,8.4614,8.4614,8.4614,8.4614,8.4614,0.0,0.0,0.0,0.0,0.0,0.0,0.0,0.0,2.3095,2.3095,2.3221,2.3471,2.3954,2.4566,0.0,2.5561,2.6147,2.6499,2.6499,2.6984,2.7587,2.8229,3.0055,3.1938,3.3847,3.5305,3.6259,3.6733,3.8743,3.9697,0.0,0.0,0.0,4.0675,0.0,4.0675,0.0,0.0,0.0,0.0,0.0,3.7436,3.6557,3.6557,3.6758,0.0,0.0,0.0,0.0,0.0,0.0,0.0,4.6357,4.9075,5.1928,5.4757,5.7721,6.0563,6.2569,6.3647,6.4605,6.6191,6.7178,6.7898,6.8347,6.9245,7.0081,7.041,7.044,7.044,7.0679,7.0919,7.1248,7.1607,7.3215,7.5246,7.7728,7.986,8.1912,8.3853,8.4392,8.4614,8.4614,8.4614,8.4614,0.0,0.0,0.0,8.4614,8.4614,8.4614,8.4614,8.4614,8.4614,8.4614,8.4614,8.4614,0.0,8.4614,8.4614,8.4614,8.4614,8.4614,8.4614,8.4614,8.4614,8.4614,8.4614,8.4614,8.4614,8.4614,8.4614,8.4614,8.4614,8.4614,8.4614,0.0,0.0,0.0,0.0,0.0,0.0,0.0,0.0,2.3095,2.3095,2.3346,2.3637,2.3979,2.4707,0.0,0.0,2.6147,2.6499,2.6499,2.6776,2.7386,2.843,3.0357,3.1788,3.2667,3.4552,3.5531,3.5602,3.7789,3.9019,0.0,0.0,0.0,4.0499,0.0,4.0876,0.0,0.0,0.0,0.0,0.0,0.0,3.7587,3.7587,3.7587,3.7638,3.8191,0.0,0.0,0.0,0.0,0.0,0.0,0.0,5.2082,5.4738,5.7016,5.9219,6.191,6.26,6.3258,6.5862,6.7029,6.7778,6.8736,6.9275,6.9782,7.0709,7.0649,7.053,7.0829,7.0889,7.139,7.2864,7.4749,7.6933,7.9562,8.1604,8.326,8.4466,8.4614,8.4614,8.4614,8.4614,8.4614,0.0,0.0,8.4614,8.4614,8.4614,8.4614,8.4614,8.4614,8.4614,8.4614,8.4614,8.4614,8.4614,8.4614,8.4614,8.4614,8.4614,8.4614,8.4614,8.4614,8.4614,8.4614,8.4614,8.4614,8.4614,8.4614,8.4614,8.4614,8.4614,8.4614,8.4614,0.0,0.0,0.0,0.0,0.0,0.0,0.0,0.0,0.0,2.3371,2.3838,2.413,2.413,2.5008,2.5586,0.0,0.0,0.0,2.6499,2.6575,2.7261,2.8706,3.0382,3.1331,3.1406,3.39,3.5054,3.4703,3.6835,3.8216,0.0,0.0,0.0,4.0499,0.0,0.0,0.0,0.0,0.0,0.0,0.0,0.0,0.0,0.0,0.0,0.0,3.9747,4.0281,4.1054,4.4813,0.0,0.0,0.0,0.0,5.2074,5.5138,5.6701,5.8082,6.1104,6.1852,6.2452,6.5293,6.643,6.7298,6.9245,6.9303,6.9333,7.05,7.0829,7.0889,7.0889,7.1238,7.2154,7.4221,7.6717,7.9108,8.1092,8.3245,8.4614,8.4614,8.4614,8.4614,8.4614,8.4614,8.4614,0.0,0.0,8.4614,8.4614,8.4614,8.4614,8.4614,8.4715,8.4783,8.4783,8.4918,8.4986,8.4986,8.485,8.4715,8.4614,8.4614,8.4614,8.4614,8.4614,8.4614,8.4614,8.4614,8.4614,8.4614,8.4614,8.4614,8.4614,8.4614,8.4614,8.4614,0.0,0.0,0.0,0.0,0.0,0.0,0.0,0.0,0.0,0.0,2.4641,2.4691,2.4691,2.5234,2.5586,2.5586,2.6147,2.6499,2.6499,0.0,0.0,2.8197,2.981,3.0934,3.1386,3.3194,3.4324,3.4703,3.6458,3.7864,0.0,0.0,0.0,4.0499,0.0,0.0,0.0,0.0,0.0,0.0,0.0,0.0,0.0,0.0,0.0,0.0,0.0,4.2617,4.3756,4.4811,4.6319,0.0,0.0,0.0,5.3247,5.4859,5.7004,5.9189,6.0805,6.2811,6.4725,6.5772,6.6071,6.652,6.7958,6.8645,6.9213,6.9961,7.053,7.0889,7.0889,7.2534,7.419,7.5027,7.8315,8.1068,8.1938,8.3552,8.4614,8.4614,8.4614,8.4614,8.4614,8.4614,8.4614,0.0,8.4614,8.4614,8.4614,8.4614,8.4614,8.4614,8.5283,8.5621,8.5621,8.6264,8.6575,8.6602,8.596,8.5283,8.4614,8.4614,8.4614,8.4614,8.4614,8.4614,8.4614,8.4614,8.4614,8.4614,8.4614,8.4614,8.4614,8.4614,8.4614,8.4614,0.0,0.0,0.0,0.0,0.0,0.0,0.0,0.0,0.0,0.0,0.0,2.5259,2.5259,2.5778,2.6105,2.6105,2.6348,2.6499,2.6499,2.6725,2.7236,2.8072,2.9428,3.0407,3.0934,3.2893,3.4022,3.4248,3.5929,3.7487,0.0,3.9697,4.0224,0.0,0.0,0.0,0.0,0.0,0.0,0.0,4.1456,4.2044,0.0,0.0,0.0,0.0,0.0,0.0,0.0,4.8001,4.8836,4.9589,5.0911,0.0,0.0,0.0,5.5418,5.7363,5.9428,6.2181,6.4605,6.5263,6.6011,6.6819,6.7778,6.8495,6.9183,6.9842,7.1177,7.2174,7.2174,7.3415,7.5212,7.759,7.979,8.1739,8.332,8.4143,8.4614,8.4614,8.4614,8.4614,8.4614,8.4614,8.4614,0.0,8.4614,8.4614,8.4614,8.4614,8.4614,8.4614,8.5384,8.5817,8.5817,8.6535,8.6704,8.6264,8.5926,8.5384,8.4614,8.4614,8.4614,8.4614,8.4614,8.4614,8.4614,8.4614,8.4614,8.4614,8.4614,8.4614,8.4614,8.4614,8.4614,8.4614,0.0,0.0,0.0,0.0,0.0,0.0,0.0,0.0,0.0,0.0,0.0,2.5829,2.5829,0.0,0.0,0.0,2.6499,2.6499,2.6499,2.6499,2.6876,2.7645,2.89,2.9829,3.0362,3.2416,3.3671,3.4098,0.0,0.0,3.8894,3.9446,4.0074,0.0,4.03,0.0,0.0,0.0,0.0,0.0,4.3335,4.4576,0.0,0.0,0.0,0.0,0.0,0.0,0.0,0.0,0.0,0.0,5.2137,5.2905,0.0,0.0,0.0,5.6226,5.868,6.1134,6.3318,6.4665,6.5622,6.649,6.7538,6.8568,6.951,7.0206,7.2029,7.3709,7.4284,7.5192,7.6788,7.9617,8.1205,8.2643,8.4379,8.4614,8.4614,8.4614,8.4614,8.4614,8.4614,8.4614,8.4614,0.0,8.4614,8.4614,8.4614,8.4614,8.4614,8.4614,8.5384,8.5892,8.6061,8.7008,8.7008,8.6061,8.6061,8.5554,8.4614,8.4614,8.4614,8.4614,8.4614,8.4614,8.4614,8.4614,8.4614,8.4614,8.4614,8.4614,8.4614,8.4614,8.4614,8.4614,0.0,0.0,0.0,0.0,0.0,0.0,0.0,0.0,0.0,0.0,0.0,2.6449,2.6449,2.6474,2.6499,2.6499,2.6499,2.6499,2.6499,2.6499,2.6524,2.6575,2.8097,0.0,2.9829,3.1461,3.3072,3.4653,0.0,0.0,3.8894,3.9446,4.0275,4.1277,4.1227,4.1252,4.1378,0.0,0.0,0.0,4.6493,4.7589,0.0,0.0,0.0,0.0,0.0,0.0,0.0,0.0,0.0,0.0,0.0,0.0,5.4162,0.0,0.0,0.0,5.9488,6.0174,6.1044,6.4216,6.4575,6.4665,6.661,6.8636,7.0354,7.1064,7.2931,7.5096,7.7287,7.8842,7.9879,8.0051,8.2528,8.4466,8.458,8.4614,8.4614,8.4614,8.4614,8.4614,8.4614,8.4614,8.4614,0.0,8.4614,8.4614,8.4614,8.4614,8.4614,8.4614,8.5384,8.6129,8.6839,8.826,8.826,8.6839,8.6839,8.6034,8.4614,8.4614,8.4614,8.4614,8.4614,8.4614,8.4614,8.4614,8.4614,8.4614,8.4614,8.4614,8.4614,8.4614,8.4614,8.4614,0.0,0.0,0.0,0.0,0.0,0.0,0.0,0.0,0.0,0.0,0.0,0.0,0.0,0.0,0.0,0.0,0.0,0.0,0.0,2.6499,2.665,2.7002,2.8247,2.9183,2.9779,3.1386,3.2692,0.0,0.0,3.5932,3.7838,3.8743,3.9948,4.1275,4.0951,4.1378,4.2384,4.2462,0.0,0.0,0.0,0.0,0.0,0.0,0.0,0.0,0.0,0.0,0.0,0.0,0.0,0.0,0.0,0.0,0.0,5.473,5.5628,5.6761,5.7872,5.9428,6.1224,6.3258,6.4216,6.5321,6.784,6.9376,7.0606,7.1781,7.4502,7.6796,7.7148,7.8799,8.0416,8.1437,8.3281,8.4614,8.4614,8.4614,8.4614,8.4614,8.4614,8.4614,8.4614,8.4614,8.4614,0.0,0.0,8.4614,8.4614,8.4614,8.4614,8.4614,8.5384,8.6366,8.7583,8.8598,8.8361,8.6907,8.6907,8.6068,8.4614,8.4614,8.4614,8.4614,8.4614,8.4614,8.4614,8.4614,8.4614,8.4614,8.4614,8.4614,8.4614,8.4614,8.4614,8.4614,0.0,0.0,0.0,0.0,0.0,0.0,0.0,0.0,0.0,0.0,0.0,0.0,0.0,0.0,0.0,0.0,2.7236,2.6959,2.6776,2.6952,2.711,2.7286,2.8348,2.9258,3.0055,3.1135,0.0,0.0,0.0,0.0,0.0,3.8467,4.0107,4.1743,4.1975,4.2794,0.0,0.0,0.0,4.5956,0.0,0.0,5.2434,0.0,0.0,0.0,0.0,0.0,0.0,0.0,0.0,0.0,0.0,0.0,0.0,0.0,5.5534,5.6013,5.6641,5.8231,6.0206,6.1972,6.3408,6.502,6.7534,6.9474,7.1008,7.2186,7.5385,7.7773,7.7281,7.9003,8.0916,8.2184,8.3633,8.4614,8.4614,8.4614,8.4614,8.4614,8.4614,8.4614,8.4614,8.4614,8.4614,0.0,0.0,0.0,8.4614,8.4614,8.4715,8.4986,8.552,8.6501,8.7989,8.8226,8.7854,8.6907,8.667,8.5858,8.4614,8.4614,8.4614,8.4614,8.4614,8.4614,8.4614,8.4614,8.4614,8.4614,8.4614,8.4614,8.4614,8.4614,8.4614,8.4614,0.0,0.0,0.0,0.0,0.0,0.0,0.0,0.0,0.0,0.0,0.0,0.0,0.0,0.0,0.0,0.0,2.8172,2.7921,2.7386,2.7821,2.7896,2.7412,0.0,0.0,0.0,0.0,0.0,0.0,0.0,0.0,0.0,0.0,4.085,4.2719,4.452,4.5607,4.619,0.0,4.7135,4.8135,0.0,5.3522,5.3328,0.0,0.0,0.0,6.1373,6.1553,0.0,0.0,0.0,0.0,0.0,0.0,0.0,0.0,0.0,0.0,0.0,0.0,0.0,6.0386,6.2061,6.3557,6.5593,6.8792,7.1552,7.233,7.5396,7.7985,7.7976,7.9794,8.1494,8.2272,8.3565,8.4546,8.4546,8.458,8.458,8.4614,8.4614,8.4614,8.4614,8.4614,8.4614,0.0,8.4614,8.4614,8.4614,8.4614,8.4979,8.575,8.5784,8.6467,8.7922,8.7245,8.6907,8.6873,8.6129,8.5384,8.4614,8.4614,8.4614,8.4614,8.4614,8.4614,8.4614,8.4614,8.4614,8.4614,8.4614,8.4614,8.4614,8.4614,8.4614,8.4614,0.0,0.0,0.0,0.0,0.0,2.8072,2.8605,2.8681,0.0,0.0,0.0,0.0,0.0,0.0,0.0,0.0,2.9553,2.9076,2.8505,2.8605,2.8806,2.912,2.9402,2.988,3.0588,0.0,0.0,0.0,0.0,0.0,0.0,0.0,0.0,4.3859,4.6241,4.8416,5.0264,4.8975,0.0,4.9556,5.42,5.5645,0.0,0.0,0.0,0.0,0.0,6.1942,6.1972,0.0,6.0505,5.9727,0.0,0.0,0.0,0.0,0.0,0.0,5.5444,0.0,0.0,0.0,0.0,0.0,6.6088,6.8448,7.0382,7.2091,7.4943,7.713,7.7196,7.8991,8.075,8.146,8.2408,8.3219,8.3727,8.3795,8.3998,8.4546,8.4614,8.4614,8.4614,8.4614,0.0,0.0,8.4945,8.485,8.5452,8.4918,8.4681,8.4918,8.5486,8.602,8.6399,8.6738,8.6636,8.6095,8.5919,8.5384,8.4614,8.4614,8.4614,8.4614,8.4614,8.4614,8.4614,8.4614,8.4614,8.4614,8.4614,8.4614,8.4614,8.4614,8.4614,8.4614,0.0,0.0,2.7871,2.8674,2.8982,2.9308,2.986,3.0357,0.0,0.0,0.0,0.0,0.0,0.0,0.0,0.0,3.121,3.0829,3.0005,3.0161,3.0337,3.0457,3.0477,3.0708,3.124,3.1802,0.0,0.0,0.0,0.0,0.0,0.0,0.0,0.0,4.8213,5.0363,5.2084,5.2087,0.0,0.0,5.5128,0.0,0.0,6.0538,6.2421,0.0,0.0,0.0,6.3288,6.3199,6.2151,0.0,0.0,0.0,0.0,0.0,0.0,0.0,0.0,0.0,0.0,5.8351,0.0,0.0,6.5853,6.8364,7.0389,7.2473,7.5249,7.7126,7.6511,7.7976,7.9329,7.9431,8.0073,8.1257,8.3219,8.349,8.3896,8.4979,8.4539,8.4512,8.5459,8.5256,8.5418,8.6196,8.5824,8.5757,8.623,8.552,8.5249,8.5527,8.5723,8.5953,8.6264,8.6366,8.623,8.5817,8.5452,8.5046,8.4614,8.4614,8.4614,8.4614,8.4614,8.4614,8.4614,8.4614,8.4614,8.4614,8.4614,8.4614,8.4614,8.4614,8.4614,8.4614,0.0,0.0,2.8649,2.9779,3.0432,3.0989,3.1662,3.2587,3.304,0.0,0.0,0.0,0.0,0.0,0.0,0.0,0.0,3.3127,3.204,3.2424,3.2474,3.1989,3.1842,3.2106,3.286,3.3275,3.4659,0.0,0.0,0.0,0.0,0.0,0.0,0.0,5.0217,5.1703,5.2486,5.5025,5.5079,5.3648,5.5849,5.6648,0.0,0.0,6.3049,0.0,6.4725,6.4964,6.4964,6.5592,6.4186,0.0,0.0,0.0,0.0,0.0,5.6346,0.0,0.0,0.0,0.0,0.0,0.0,0.0,6.4764,6.7758,7.037,7.2455,7.5214,7.6914,7.5797,7.6826,7.7671,7.713,7.7638,7.9295,8.2644,8.3118,8.3727,8.5351,8.4336,8.4336,8.6467,8.6061,8.5993,8.6839,8.6974,8.7008,8.6907,8.6264,8.6196,8.6771,8.6129,8.6061,8.6636,8.5993,8.5682,8.5655,8.4945,8.4614,8.4614,8.4614,8.4614,8.4614,8.4614,8.4614,8.4614,8.4614,8.4614,8.4614,8.4614,8.4614,8.4614,8.4614,8.4614,8.4614,2.8631,2.9132,2.9804,3.0904,3.1537,3.239,3.3825,3.3872,0.0,0.0,0.0,0.0,0.0,0.0,0.0,0.0,0.0,0.0,3.5545,3.5641,3.5667,3.5493,3.4585,3.5057,3.7133,3.6768,3.7503,3.9498,4.2158,4.313,4.2667,0.0,0.0,0.0,5.1361,5.2865,5.3109,5.4725,5.5769,5.6519,5.911,0.0,6.0384,6.3322,6.3947,6.3437,6.4575,6.4635,6.4216,0.0,6.3707,6.2748,0.0,0.0,0.0,0.0,0.0,0.0,0.0,0.0,0.0,0.0,0.0,0.0,6.1554,6.3734,6.5852,6.8014,7.0732,7.3129,7.4551,7.6082,7.7266,7.7705,7.8416,7.9329,8.0648,8.0851,8.1629,8.3693,8.3659,8.3896,8.4952,8.4918,8.5391,8.6805,8.7448,8.7516,8.6941,8.6771,8.6467,8.6027,8.5885,8.5554,8.5053,8.4884,8.4817,8.4817,8.4681,8.4614,8.4614,8.4614,8.4614,8.4614,8.4614,8.4614,8.4614,8.4614,8.4614,8.4614,8.4614,8.4614,8.4614,8.4614,8.4614,8.4614,2.9584,2.9986,3.0633,3.2009,3.2918,3.3825,3.4929,3.5353,0.0,0.0,0.0,0.0,0.0,0.0,0.0,0.0,0.0,0.0,0.0,3.9271,3.8999,3.8266,3.8374,3.8532,3.8797,3.9625,4.0659,4.1952,4.4013,4.5347,4.6044,4.8554,5.0453,0.0,5.2757,5.4102,5.5688,5.6376,5.7603,5.9159,5.9847,0.0,6.1343,6.3318,6.4066,6.4126,6.4755,6.5203,6.5503,6.5503,6.5054,0.0,0.0,6.2869,6.1822,0.0,5.9159,5.7962,0.0,0.0,0.0,5.7274,0.0,0.0,0.0,6.3232,6.4854,6.7222,6.9719,7.1796,7.279,7.4492,7.5879,7.6251,7.7266,7.8145,7.8483,7.9498,8.1021,8.3219,8.2847,8.2983,8.4444,8.4614,8.5222,8.6805,8.7583,8.7854,8.7482,8.7448,8.711,8.6366,8.6332,8.579,8.4614,8.5012,8.5012,8.4614,8.4614,8.4614,8.4614,8.4614,8.4614,8.4614,8.4614,8.4614,8.4614,8.4614,8.4614,8.4614,8.4614,8.4614,8.4614,8.4614,8.4614,8.4614,3.0462,3.0663,3.1347,3.3259,3.4202,3.5113,3.6327,3.7104,0.0,0.0,0.0,0.0,0.0,0.0,0.0,0.0,0.0,0.0,0.0,0.0,4.2929,4.1831,4.2464,4.2366,4.134,4.2918,4.4042,4.461,4.5463,4.7001,4.9097,4.9366,5.1253,5.4401,5.3977,5.5179,5.7606,5.8474,5.964,6.0864,0.0,6.0924,6.2391,6.3707,6.4725,6.5353,6.5233,6.5981,6.6999,6.6999,0.0,6.634,6.6101,6.4994,0.0,0.0,0.0,0.0,0.0,0.0,0.0,0.0,0.0,5.8215,0.0,0.0,0.0,6.6882,6.9074,7.0713,7.1209,7.2902,7.4086,7.3815,7.5168,7.6149,7.5879,7.7976,0.0,8.2408,8.1596,8.1697,8.3734,8.4614,8.5425,8.6372,8.755,8.8158,8.7989,8.7989,8.7651,8.6941,8.7042,8.6305,8.4614,8.5384,8.5384,8.4614,8.4614,8.4614,8.4614,8.4614,8.4614,8.4614,8.4614,8.4614,8.4614,8.4614,8.4614,8.4614,8.4614,8.4614,8.4614,8.4614,8.4614,8.4614,3.0763,3.0984,3.2158,3.4847,3.4977,3.5904,3.9568,3.9425,0.0,0.0,0.0,0.0,0.0,0.0,0.0,0.0,0.0,0.0,4.9445,0.0,0.0,4.8249,4.6258,4.6328,4.8899,4.8105,4.7694,4.7784,4.7894,4.8109,4.8438,4.9561,5.0637,5.1774,5.4581,5.5743,5.5807,5.9907,6.1074,0.0,6.257,6.4605,0.0,6.7807,6.7687,6.67,6.6101,6.637,6.6999,0.0,6.7328,6.7568,0.0,6.6251,6.6191,6.4336,0.0,0.0,0.0,0.0,0.0,0.0,5.8474,0.0,0.0,0.0,6.1348,6.4006,0.0,6.7728,7.0769,0.0,0.0,0.0,0.0,7.3409,7.2124,7.5033,7.7841,7.9431,7.9439,7.9972,0.0,8.4708,8.6135,8.4952,8.7414,8.8666,8.8023,8.7989,8.7651,8.6941,8.755,8.6839,8.4614,8.5384,8.5384,8.4614,8.4614,8.4614,8.4614,8.4614,8.4614,8.4614,8.4614,8.4614,8.4614,8.4614,8.4614,8.4614,8.4614,8.4614,8.4614,8.4614,8.4614,8.4614,3.3277,3.3238,0.0,3.7572,3.8204,3.9069,4.1484,4.331,0.0,0.0,0.0,0.0,0.0,0.0,0.0,0.0,0.0,5.4369,0.0,0.0,0.0,0.0,5.0868,5.0846,5.0226,5.0451,5.0182,4.9411,4.9411,4.9411,4.9411,5.0338,5.1953,5.4162,5.5953,5.7633,5.9338,6.1672,6.3228,0.0,0.0,0.0,0.0,6.6909,6.646,6.7059,6.7567,6.7657,6.7658,0.0,6.8585,0.0,0.0,0.0,0.0,0.0,0.0,0.0,0.0,0.0,0.0,0.0,0.0,0.0,5.9697,0.0,6.0415,0.0,0.0,0.0,0.0,0.0,0.0,0.0,7.1684,0.0,7.1424,7.3037,7.5168,7.7536,0.0,0.0,0.0,0.0,0.0,0.0,8.6771,8.8125,8.7414,8.7753,8.7854,8.755,8.7414,8.6704,8.5317,8.5182,8.4918,8.4614,8.4614,8.4614,8.4614,8.4614,8.4614,8.4614,8.4614,8.4614,8.4614,8.4614,8.4614,8.4614,8.4614,8.4614,8.4614,8.4614,8.4614,8.4713,3.7119,0.0,0.0,3.9948,4.0684,4.1463,4.3197,4.6664,4.9358,5.015,0.0,0.0,5.5867,5.6226,0.0,0.0,0.0,5.7929,0.0,0.0,5.6645,0.0,5.497,0.0,0.0,5.2516,5.2097,5.0757,5.0757,5.0757,5.0757,5.1415,5.3144,5.5713,5.6855,5.883,6.1373,6.2959,6.4605,6.6221,6.6759,6.8136,6.9512,6.67,6.643,6.7657,6.8645,6.8794,6.8616,6.9093,6.9692,0.0,6.8916,0.0,6.9871,0.0,0.0,0.0,6.4276,0.0,0.0,0.0,0.0,0.0,0.0,0.0,0.0,0.0,0.0,0.0,0.0,0.0,0.0,0.0,0.0,0.0,0.0,7.0804,7.2766,7.5371,0.0,0.0,0.0,0.0,0.0,0.0,0.0,8.7482,8.6305,8.7177,8.7719,8.7719,8.7583,8.6941,8.5817,8.5418,8.5019,8.4614,8.4614,8.4614,8.4614,8.4614,8.4614,8.4614,8.4614,8.4614,8.4614,8.4614,8.4614,8.4614,8.4614,8.4614,8.4614,8.4614,8.4614,8.4826,4.2337,4.0236,0.0,4.1352,4.134,4.1976,4.4975,4.865,5.1338,5.2019,0.0,0.0,0.0,0.0,0.0,0.0,0.0,6.2329,6.1044,0.0,5.9964,0.0,0.0,5.6974,0.0,5.5089,5.3473,5.2127,5.2127,5.2127,5.2157,5.2815,5.3533,5.4401,5.6918,5.8474,5.9458,6.3289,6.4605,6.4276,6.6221,6.7029,6.7298,0.0,6.9423,6.8944,6.8974,0.0,0.0,6.9963,7.035,0.0,0.0,0.0,0.0,0.0,0.0,0.0,0.0,0.0,0.0,6.4545,0.0,0.0,0.0,0.0,6.2817,0.0,0.0,0.0,0.0,0.0,0.0,0.0,0.0,0.0,0.0,0.0,7.0838,7.236,0.0,0.0,0.0,0.0,0.0,0.0,0.0,0.0,8.4783,8.6102,8.6941,8.6941,8.8294,8.7983,8.5817,8.6501,8.6068,8.4614,8.4614,8.4614,8.4614,8.4614,8.4614,8.4614,8.4614,8.4614,8.4614,8.4614,8.4614,8.4614,8.4614,8.4614,8.4614,8.4614,8.4614,8.4894,0.0,0.0,0.0,4.4621,4.4624,4.5434,4.8197,5.0845,0.0,0.0,0.0,0.0,0.0,0.0,6.2778,0.0,0.0,6.3318,6.248,6.257,0.0,0.0,0.0,5.8441,0.0,0.0,5.5269,5.3533,5.3952,5.3713,5.2899,5.3533,5.4221,5.4999,5.8052,6.0027,6.1283,6.4366,6.655,0.0,0.0,6.9333,6.9004,0.0,0.0,6.9662,6.9662,6.9782,0.0,7.0023,7.0712,7.1368,7.0352,7.0739,7.1218,6.9243,6.8645,0.0,0.0,0.0,6.7959,6.5591,0.0,0.0,0.0,0.0,0.0,0.0,0.0,0.0,0.0,0.0,0.0,0.0,0.0,0.0,0.0,0.0,6.759,6.8571,0.0,0.0,0.0,0.0,0.0,0.0,0.0,0.0,0.0,8.5587,8.6602,8.7617,8.7651,8.7279,8.6535,8.5763,8.5121,8.4614,8.4614,8.4614,8.4614,8.4614,8.4614,8.4614,8.4614,8.4614,8.4614,8.4614,8.4614,8.4614,8.4614,8.4614,8.4614,8.4614,8.5485,8.7119,4.5992,0.0,0.0,4.633,4.7078,4.8424,0.0,0.0,0.0,0.0,5.9338,0.0,6.2032,0.0,6.3287,0.0,6.3707,6.3887,6.4455,6.3977,0.0,6.2599,6.1671,0.0,0.0,0.0,5.7094,5.5598,5.5568,5.4995,5.3917,5.4341,5.491,5.5683,5.8231,6.0386,6.2241,6.4395,6.6819,0.0,0.0,7.026,0.0,0.0,7.0231,7.1038,0.0,7.1038,7.1038,7.1038,7.1398,7.1789,7.0919,7.1218,7.1547,6.9842,6.9482,6.9363,6.8046,6.9306,0.0,6.7845,6.9156,0.0,6.6927,0.0,0.0,0.0,0.0,0.0,0.0,0.0,0.0,0.0,0.0,0.0,0.0,0.0,0.0,0.0,0.0,0.0,0.0,0.0,0.0,0.0,0.0,0.0,0.0,0.0,8.623,8.7177,8.7008,8.6907,8.6907,8.5655,8.4884,8.4614,8.4614,8.4614,8.4614,8.4614,8.4614,8.4614,8.4614,8.4614,8.4614,8.4614,8.4614,8.4614,8.4614,8.4749,8.5066,8.5561,8.7448,9.021,4.7369,0.0,0.0,0.0,4.8663,0.0,0.0,0.0,5.7663,0.0,6.0356,6.1912,6.3737,6.3528,6.3707,6.4845,6.3887,0.0,6.6789,6.4575,0.0,0.0,6.4515,6.3138,6.3108,0.0,0.0,0.0,5.6941,5.5983,5.5239,5.5209,5.5593,5.6312,5.7573,5.9668,6.2241,6.3498,6.5562,6.8077,6.8794,6.9871,7.1009,7.1038,7.1876,7.3043,7.2954,7.2924,7.2924,7.2924,7.2475,7.1936,7.1936,7.1131,7.0143,7.0143,6.9756,6.928,6.922,6.9976,7.0826,7.124,0.0,0.0,0.0,0.0,6.9064,0.0,0.0,0.0,0.0,0.0,0.0,0.0,0.0,0.0,0.0,0.0,0.0,0.0,0.0,0.0,0.0,0.0,0.0,0.0,0.0,0.0,0.0,0.0,8.5784,8.575,8.6467,8.6839,8.6778,8.6095,8.5351,8.4614,8.4614,8.4614,8.4614,8.4614,8.4614,8.4614,8.4614,8.4614,8.4614,8.4614,8.4614,8.4614,8.4614,8.5194,8.6193,8.7439,9.035,9.3699,4.8027,4.8438,4.9187,0.0,5.1648,5.2725,0.0,0.0,0.0,0.0,6.1433,6.278,6.3287,6.4485,6.4994,6.4336,6.4874,0.0,0.0,0.0,0.0,6.6221,6.4665,6.3558,6.3108,6.2449,0.0,5.886,0.0,5.7513,5.5923,5.5418,5.5777,5.6941,5.8261,6.0326,6.2928,6.4216,6.6011,6.8137,6.9752,7.1218,0.0,0.0,7.3971,7.4929,7.3462,7.2924,7.2924,7.2924,7.2804,7.2654,7.2654,7.2415,7.2176,7.2176,7.2882,7.3474,7.249,7.4419,7.6159,7.3622,7.4757,7.5864,0.0,0.0,0.0,0.0,0.0,0.0,0.0,0.0,0.0,0.0,0.0,0.0,0.0,0.0,0.0,0.0,0.0,0.0,0.0,0.0,0.0,0.0,0.0,0.0,0.0,0.0,0.0,8.4945,8.5655,8.579,8.5189,8.4986,8.4783,8.4614,8.4614,8.4614,8.4614,8.4614,8.4614,8.4614,8.4614,8.4614,8.4614,8.4614,8.4614,8.4614,8.4614,8.656,8.9562,9.041,9.1982,9.3912,4.8798,4.9726,0.0,5.3174,0.0,0.0,5.5508,0.0,0.0,6.2091,6.3468,0.0,6.5562,6.5862,6.5832,6.5353,6.5473,0.0,6.7238,0.0,0.0,6.7687,6.6191,6.5263,6.5233,6.4366,0.0,6.0835,0.0,5.868,5.7004,5.6346,5.6885,5.8441,5.9518,6.1463,6.4066,6.5951,6.7717,6.9363,7.0769,7.2146,0.0,7.3762,7.454,7.5318,7.418,7.3762,7.3762,7.3762,7.4058,7.4382,7.4382,7.4691,7.5022,7.5022,7.5683,7.6236,7.5481,7.7348,7.8831,7.6167,7.7208,7.8239,7.5598,7.4778,7.4664,0.0,0.0,0.0,0.0,0.0,0.0,0.0,0.0,0.0,0.0,0.0,0.0,0.0,0.0,0.0,0.0,0.0,0.0,0.0,0.0,0.0,0.0,0.0,8.4268,8.4106,8.5215,8.5587,8.5148,8.5425,8.5256,8.4614,8.4614,8.4614,8.4614,8.4614,8.4614,8.4614,8.4614,8.4614,8.4614,8.4614,8.4614,8.4727,8.5939,8.8162,9.0898,9.2513,9.3928,9.515,5.0145,5.1492,0.0,0.0,0.0,0.0,0.0,6.0416,0.0,6.4635,0.0,6.658,6.8405,6.7059,6.6281,6.6939,0.0,6.646,6.8974,6.7508,6.7567,6.9903,6.8347,6.7597,6.8137,6.634,0.0,0.0,0.0,5.9847,5.8593,5.7752,5.8321,6.0116,6.0894,6.2721,6.5413,6.8046,6.9812,7.0949,7.1607,7.2684,7.3911,7.4001,7.436,7.4937,7.5146,7.5108,7.4903,7.4903,7.5435,7.6133,7.6358,7.7025,7.7798,7.8007,7.8214,7.833,7.8265,7.9362,8.019,7.8806,7.9503,7.9971,7.8014,7.708,7.6776,7.7159,7.5764,7.5379,0.0,0.0,0.0,0.0,0.0,0.0,0.0,0.0,0.0,0.0,0.0,0.0,0.0,0.0,0.0,0.0,0.0,0.0,0.0,0.0,8.2915,8.3321,8.4742,8.5614,8.5817,0.0,8.6034,8.4884,8.4681,8.4614,8.4614,8.4614,8.4614,8.4614,8.4614,8.4614,8.4614,8.4614,8.4686,8.5079,8.7752,8.9687,9.1228,9.3848,9.5627,9.6685,5.4072,5.4905,0.0,0.0,0.0,6.1044,6.194,6.2959,6.3797,6.4126,6.4784,6.5503,6.643,6.6221,6.6281,6.6939,6.7299,0.0,0.0,0.0,0.0,6.9993,6.9632,6.9243,6.8824,6.7926,6.7089,0.0,0.0,6.2151,6.1373,5.9578,5.9219,6.0146,6.1373,6.3677,6.6789,6.8914,0.0,7.0949,7.1607,7.2684,7.3941,7.448,7.4813,7.5044,7.6401,7.6033,7.4903,7.4903,7.5018,7.5375,7.6711,7.7236,7.7652,7.9053,8.0378,8.1299,8.0709,8.1702,8.2708,8.184,8.182,8.189,8.1521,8.1335,8.0923,7.9819,7.9306,7.8876,7.8323,0.0,0.0,0.0,0.0,0.0,0.0,0.0,0.0,0.0,0.0,0.0,0.0,0.0,0.0,0.0,0.0,0.0,0.0,0.0,8.37,0.0,8.3456,0.0,0.0,0.0,8.5493,8.6501,8.5189,8.4614,8.4614,8.4614,8.4614,8.4614,8.4614,8.4614,8.4614,8.4614,8.5196,8.6266,8.8096,9.0176,9.2408,9.4164,9.5627,9.6685,5.5593,5.709,0.0,0.0,0.0,0.0,0.0,6.4844,0.0,6.5503,6.643,6.7328,6.7986,6.7747,6.7687,6.8016,6.8315,6.8764,6.9423,6.9782,7.0143,7.044,7.0141,0.0,6.9512,6.8526,6.7508,6.649,0.0,6.4246,6.3558,6.2601,6.272,6.3737,6.5084,6.6759,6.8615,0.0,0.0,7.1966,7.2295,7.3729,7.5709,7.6014,7.6667,7.7515,7.8313,7.8091,7.745,7.745,7.7996,7.8815,7.9619,8.0403,8.1235,8.2054,8.2858,8.3381,8.3014,8.3464,8.3896,8.3152,8.2983,8.2881,8.2509,8.2408,8.2205,8.1494,8.0716,7.9735,7.8271,7.8948,0.0,0.0,0.0,0.0,0.0,0.0,0.0,0.0,0.0,0.0,0.0,0.0,0.0,0.0,0.0,0.0,0.0,0.0,8.1596,0.0,0.0,0.0,0.0,0.0,0.0,8.5696,8.4952,8.4614,8.4614,8.4614,8.4614,8.4614,8.4614,8.4614,8.4633,8.5266,8.6153,8.7314,8.9741,9.1715,9.3344,9.515,9.6183,9.6685,5.7539,5.9425,0.0,0.0,6.3917,0.0,6.6311,6.655,6.6819,6.7358,6.8226,6.9093,6.9901,6.9393,6.9064,6.9183,6.9213,6.9273,6.9393,7.0021,7.053,7.0889,7.0709,7.047,7.0201,6.9185,6.8047,0.0,0.0,0.0,6.4785,6.5203,6.5922,6.6849,6.8345,6.9273,0.0,0.0,7.1716,7.3428,7.3578,7.533,7.7805,7.7836,7.8659,7.9834,8.0167,8.0318,8.0376,8.0704,8.1209,8.1737,8.2083,8.3054,8.4143,8.45,8.4614,8.4614,8.4614,8.4614,8.4444,8.3896,8.3727,8.3592,8.3016,8.2855,8.2821,8.2678,8.1596,8.031,7.9126,8.0344,0.0,0.0,0.0,0.0,0.0,0.0,0.0,0.0,0.0,0.0,0.0,0.0,0.0,0.0,7.987,0.0,8.0412,0.0,0.0,0.0,0.0,8.42,8.4674,0.0,8.6163,0.0,8.4749,8.4614,8.4614,8.4614,8.4614,8.4614,8.4614,8.4766,8.5066,8.6003,8.7207,8.872,9.1441,9.3153,9.4316,9.6028,9.6685,9.6685,0.0,0.0,0.0,0.0,0.0,0.0,6.7628,6.8315,6.8734,6.8794,6.8375,6.8586,6.9873,6.9393,6.9243,6.9842,6.9901,7.0141,7.0679,7.1338,7.1457,7.0919,7.2026,7.2056,7.0829,7.0679,7.029,0.0,0.0,6.7119,6.4126,6.5951,6.655,6.6191,6.8136,0.0,0.0,7.1637,7.361,7.5179,7.5766,7.7434,7.9588,7.9589,7.965,7.9986,8.1476,8.1968,8.2198,8.3641,8.2316,8.0288,8.1737,8.2316,8.2713,8.417,8.4614,8.4614,8.4614,8.4614,8.458,8.4512,8.4478,8.4478,8.4411,8.4377,8.4208,8.3524,8.278,8.2171,8.2035,8.2171,8.2441,0.0,0.0,0.0,0.0,0.0,0.0,0.0,0.0,0.0,0.0,0.0,0.0,0.0,8.0175,0.0,0.0,0.0,0.0,8.414,8.5114,8.6562,8.8558,8.6799,8.6163,8.667,8.5256,8.4614,8.4614,8.4614,8.4614,8.4614,8.4614,8.5214,8.6217,8.6365,8.8181,9.1056,9.2093,9.3676,9.5451,9.6353,9.6685,9.6685,0.0,0.0,0.0,0.0,0.0,0.0,0.0,6.9423,6.9722,7.0081,6.9572,6.9424,6.9963,6.9752,6.9842,7.047,7.053,7.0649,7.0889,7.1158,7.1368,7.1487,7.1996,7.2056,7.1517,7.1098,7.059,0.0,0.0,0.0,0.0,6.8794,6.9004,6.8435,0.0,7.0928,7.2301,7.3372,7.5214,7.7454,7.7708,7.9192,8.1239,8.1239,8.1853,8.2774,8.3421,8.3647,8.3756,8.4392,8.3756,8.2769,8.3448,8.3647,8.3784,8.4419,8.4614,8.4614,8.4614,8.4614,8.4614,8.4614,8.4614,8.4614,8.4614,8.4614,8.4512,8.4208,8.3592,8.2915,8.2475,8.3126,8.3667,0.0,0.0,0.0,0.0,0.0,0.0,0.0,0.0,0.0,0.0,0.0,0.0,0.0,0.0,0.0,0.0,0.0,0.0,8.4512,0.0,8.4396,8.7103,8.5757,8.5249,8.5493,8.4884,8.4614,8.4614,8.4614,8.4614,8.4633,8.5369,8.5953,8.6536,8.801,8.9965,9.213,9.3178,9.4653,9.6282,9.6575,9.6685,9.6685,6.4515,0.0,6.7389,0.0,6.9273,7.05,7.0083,7.0173,7.035,7.059,7.041,7.026,7.026,7.026,7.044,7.0859,7.0889,7.0889,7.0889,7.0889,7.1098,7.1577,7.1787,0.0,7.1876,7.1637,7.1098,7.026,7.1098,0.0,0.0,6.9453,6.9722,0.0,7.1256,7.2757,7.419,7.5245,7.716,7.9521,7.9715,8.1044,8.2914,8.2914,8.3586,8.4614,8.4614,8.4614,8.4614,8.4614,8.4614,8.4614,8.4614,8.4614,8.4614,8.4614,8.4614,8.4614,8.4614,8.4614,8.4614,8.4614,8.4614,8.4614,8.4614,8.4614,8.4614,8.4614,8.4174,8.3592,8.2881,8.3734,8.4512,8.4234,0.0,0.0,0.0,0.0,0.0,0.0,0.0,0.0,0.0,0.0,0.0,0.0,0.0,0.0,0.0,0.0,0.0,0.0,0.0,0.0,0.0,8.5351,8.4817,8.4614,8.4614,8.4614,8.4614,8.4614,8.4614,8.466,8.5887,8.6599,8.7104,8.9178,9.1112,9.278,9.3888,9.5144,9.6392,9.6612,9.6685,9.6685,6.5981,6.7059,6.8197,6.8854,6.9542,7.0023,7.0023,7.05,7.0679,7.0081,7.053,7.0889,7.0889,7.0889,7.0889,7.0889,7.0889,7.0889,7.0889,7.0889,7.0889,0.0,0.0,7.1876,7.1876,7.2535,7.2235,7.0889,0.0,0.0,6.6071,6.6729,6.7747,6.9157,7.2765,7.4005,7.3661,7.725,7.9694,8.1228,8.1901,8.3138,8.4553,8.4553,8.458,8.4614,8.4614,8.4614,8.4614,8.4614,8.4614,8.4614,8.4614,8.4614,8.4614,8.4614,8.4614,8.4614,8.4614,8.4614,8.4614,8.4614,8.4614,8.4614,8.4614,8.4614,8.4614,8.4614,8.458,8.4343,8.3625,8.4099,8.485,8.5621,0.0,0.0,0.0,0.0,0.0,0.0,8.4546,8.4877,8.5682,0.0,0.0,0.0,0.0,0.0,0.0,0.0,0.0,8.4708,8.5384,0.0,8.6907,8.6163,8.5384,8.4614,8.4614,8.4614,8.4614,8.4614,8.4614,8.466,8.5887,8.708,8.8268,8.9495,9.1205,9.318,9.3969,9.4813,9.5602,9.6428,9.6685,9.6685,6.8645,6.9095,6.9574,7.0201,7.0829,7.1128,7.0679,7.1158,7.1338,7.0709,7.0769,7.0889,7.0889,7.0889,7.0889,0.0,7.0889,7.0889,0.0,7.0889,7.0889,7.0889,7.1517,7.1876,7.1876,7.2565,7.2714,7.2265,0.0,0.0,0.0,7.0919,7.1594,7.2735,7.4344,7.6387,7.8809,7.9924,8.1632,8.353,8.3737,8.4143,8.4614,8.4614,8.4614,8.4614,8.4614,8.4614,8.4614,8.4614,8.4614,8.4614,8.4614,8.4614,8.4614,8.4614,8.4614,8.4614,8.4614,8.4614,8.4614,8.4614,8.4614,8.4614,8.4614,8.4614,8.4614,8.4614,8.4614,8.4512,8.4275,8.4444,8.485,8.5682,8.4505,0.0,0.0,0.0,0.0,0.0,0.0,8.3558,0.0,8.4336,0.0,0.0,0.0,0.0,0.0,0.0,0.0,0.0,8.4167,0.0,8.6129,8.5384,8.485,8.4614,8.4614,8.4614,8.4614,8.4614,8.4614,8.4713,8.6803,8.7896,8.8357,9.0384,9.1966,9.3198,9.3969,9.4777,9.5602,9.6392,9.6685,9.6685,7.0303,7.0197,7.0305,7.1272,7.1459,7.1368,7.0949,7.1248,7.1368,7.0949,7.0889,7.0889,7.0889,7.0889,0.0,7.0889,7.0889,7.0889,7.0889,7.0889,7.0889,7.0889,7.1308,7.1637,7.1876,0.0,0.0,7.2924,7.3919,7.4548,7.4734,7.498,7.5337,7.5767,7.723,7.9118,8.1251,8.2112,8.3293,8.4614,8.4614,8.4614,8.4614,8.4614,8.4614,8.4614,8.4614,8.4614,8.4614,8.4614,8.4614,8.4614,8.4614,8.4614,8.4614,8.4614,8.4614,8.4614,8.4614,8.4614,8.4614,8.4614,8.4614,8.4614,8.4614,8.4614,8.4614,8.4614,8.4614,8.4614,8.4614,8.4614,8.4749,8.5283,8.4539,8.4167,8.4843,0.0,0.0,0.0,0.0,0.0,0.0,8.4437,0.0,0.0,0.0,0.0,0.0,0.0,0.0,8.4911,8.3287,0.0,8.5317,8.485,8.4614,8.4614,8.4614,8.4614,8.4614,8.4614,8.4614,8.4739,8.721,8.8259,8.838,9.0793,9.2134,9.2684,9.3529,9.4153,9.4721,9.5841,9.6245,9.6282,7.1312,7.0861,0.0,0.0,7.1556,0.0,7.0889,7.0889,7.0889,7.0889,7.0889,7.0889,7.0889,7.0889,7.0889,7.0889,0.0,0.0,0.0,7.0889,7.0889,7.0889,7.0889,7.1188,7.1849,7.1909,7.2302,7.312,7.4733,7.6366,7.7938,7.8581,7.8609,7.8239,8.0971,8.192,8.1579,8.3705,8.4614,8.4614,8.4614,8.4614,8.4614,8.4614,8.4614,8.4681,8.4681,8.4715,8.4749,8.4749,8.4749,8.4749,8.4749,8.4749,8.4749,8.4614,8.4614,8.4614,8.4614,8.4614,8.4614,8.4614,8.4614,8.4614,8.4614,8.4614,8.4614,8.4614,8.4614,8.4614,8.4614,8.4614,8.4614,8.4614,8.4614,8.4343,8.3659,0.0,0.0,0.0,0.0,0.0,0.0,8.6027,8.5114,0.0,0.0,0.0,0.0,0.0,8.5046,8.3456,8.2813,8.3152,8.4512,8.458,8.4614,8.4614,8.4614,8.4614,8.4614,8.4614,8.4614,8.4739,8.7151,8.8201,8.838,9.0793,9.1803,9.1877,9.2758,9.3088,9.3308,9.4905,9.5492,9.5602,0.0,0.0,7.2552,7.2921,7.1829,7.0889,7.0889,7.0889,7.0889,7.0889,7.0889,7.0889,7.0889,7.0889,7.0889,7.0889,7.0889,7.0889,7.0889,7.0889,7.0889,7.0889,7.0889,7.0979,7.1128,7.1637,7.3076,7.5504,7.7056,7.8354,7.9353,7.9483,8.0113,8.1184,8.1894,8.2787,8.382,8.4379,8.4614,8.4614,8.4614,8.4614,8.4614,8.4614,8.4979,8.552,8.552,8.5892,8.6366,8.6366,8.6366,8.6366,8.6366,8.6366,8.6102,8.4952,8.4614,8.4614,8.4614,8.4614,8.4614,8.4614,8.4614,8.4614,8.4614,8.4614,8.4614,8.4614,8.4614,8.4614,8.4614,8.4614,8.4614,8.4614,8.4614,8.4546,8.4343,8.4343,0.0,0.0,8.4986,8.4742,8.4336,8.4133,8.4606,0.0,0.0,0.0,8.6873,8.6196,8.4843,8.2746,8.305,8.3422,8.3761,8.4309,8.4614,8.4614,8.4614,8.4614,8.4614,8.4614,8.4614,8.4739,8.7151,8.8201,8.838,9.0793,9.1803,9.1877,9.2758,9.3088,9.3308,9.4905,9.5492,9.5602,7.6491,7.5374,7.4318,7.4318,7.3627,7.2799,7.2078,7.2612,7.3046,7.3046,7.3046,7.32,7.3509,7.354,7.3695,7.4035,7.2126,7.0889,7.0889,7.0889,7.0889,7.0889,7.0889,7.0889,7.0889,7.1964,7.4128,7.7515,7.9048,8.0326,8.1504,8.1866,8.2458,8.331,8.331,8.3784,8.4614,8.4614,8.4614,8.4614,8.5012,8.5148,8.5182,8.5493,8.5926,8.6298,8.6298,8.6569,8.6907,8.6907,8.6907,8.6907,8.6907,8.6907,8.6738,8.5899,8.5628,8.5628,8.5628,8.5418,8.508,8.4681,8.4614,8.4614,8.4614,8.4614,8.4614,8.4614,8.4614,8.4614,8.4614,8.4614,8.4614,8.4614,8.4614,8.4614,8.4614,8.4614,8.4614,8.4614,8.4614,8.4309,8.3558,8.349,8.3998,8.5249,0.0,0.0,8.6399,8.6027,8.5046,8.3464,8.349,8.3659,8.3998,8.4377,8.4614,8.4614,8.4614,8.4614,8.4614,8.4614,8.4614,8.4739,8.7151,8.8201,8.8437,9.083,9.1803,9.184,9.2317,9.2501,9.2648,9.3932,9.463,9.507,7.799,7.7027,7.5953,7.5953,7.5752,7.5144,7.387,7.4765,7.564,7.5768,7.5768,7.6056,7.679,7.6854,7.7139,7.7746,7.4222,7.1935,7.1935,7.1935,7.1935,7.1935,7.1935,7.1935,7.1935,7.3448,7.5863,7.9156,8.0735,8.2149,8.3524,8.4242,8.4614,8.4614,8.4614,8.4647,8.4783,8.4783,8.485,8.5019,8.5689,8.596,8.6027,8.667,8.6974,8.7076,8.7076,8.7144,8.7245,8.7245,8.7245,8.7245,8.7245,8.7245,8.7245,8.7245,8.7245,8.7177,8.6974,8.6366,8.5621,8.4952,8.4681,8.4614,8.4614,8.4614,8.4614,8.4614,8.4614,8.4614,8.4614,8.4614,8.4749,8.5189,8.4884,8.4749,8.5222,0.0,8.4614,8.4614,8.4614,8.4343,8.3727,8.3659,8.3659,8.3659,8.4268,8.4614,8.4614,8.5249,8.5317,8.4614,8.3998,8.3964,8.458,8.4614,8.4614,8.4614,8.4614,8.4614,8.4614,8.4614,8.4713,8.5022,8.7246,8.8348,8.8724,9.0907,9.1803,9.1803,9.1803,9.1803,9.1913,9.2794,9.3529,9.4263,7.9785,7.8617,7.7523,7.7523,7.6463,7.5522,7.5261,7.5435,7.5832,7.6441,7.6534,7.6822,7.7553,7.7617,7.7682,7.7778,7.714,7.6714,7.6714,7.6714,7.6714,7.6714,7.6714,7.6714,7.6714,7.8244,7.9308,7.9914,8.208,8.3245,8.3524,8.4242,8.4614,8.4614,8.4614,8.4979,8.5587,8.5587,8.596,8.6569,8.6704,8.6738,8.6738,8.6873,8.7279,8.782,8.782,8.8226,8.8761,8.8761,8.8761,8.8761,8.8761,8.8761,8.8761,8.8761,8.8761,8.8497,8.7245,8.6366,8.5757,8.5621,8.5114,8.4614,8.4614,8.4614,8.4614,8.4614,8.4614,8.4614,8.4614,8.4614,8.5425,8.7989,8.6264,8.5493,8.8023,0.0,8.4614,8.4614,8.4614,8.4546,8.4444,8.4411,8.4411,8.4411,8.4546,8.4614,8.4614,8.4715,8.4715,8.4614,8.4478,8.4478,8.4614,8.4614,8.4614,8.4614,8.4614,8.4614,8.4614,8.4614,8.517,8.6227,8.7585,8.8776,8.9842,9.123,9.1803,9.1803,9.1803,9.1803,9.1913,9.2794,9.3198,9.3492,8.0209,7.9632,7.8855,7.8017,7.799,7.7932,7.7488,7.8141,7.8929,7.9656,7.9755,8.0047,8.0801,8.0867,8.1033,8.1429,8.1462,8.1462,8.1462,7.9166,7.7778,7.7778,7.7778,7.8189,7.9032,7.9744,8.0531,8.1357,8.2768,8.349,8.3524,8.4708,8.5249,8.5249,8.5662,8.6061,8.6399,8.6399,8.6602,8.6941,8.7347,8.7482,8.755,8.7922,8.8294,8.8564,8.8564,8.8829,8.91,8.91,8.91,8.91,8.91,8.91,8.91,8.91,8.91,8.8863,8.7786,8.7245,8.6873,8.6501,8.5824,8.5249,8.5249,8.4884,8.4614,8.4614,8.4614,8.4614,8.4614,8.4614,8.5053,8.6467,8.552,8.5087,8.6501,8.5459,8.4614,8.4614,8.4614,8.4614,8.4614,8.4614,8.4614,8.4614,8.4614,8.4614,8.4614,8.4614,8.4614,8.4614,8.4614,8.4614,8.4614,8.4614,8.4614,8.4614,8.4614,8.4614,8.4606,8.5266,8.5887,8.6571,8.838,8.9495,9.0087,9.1286,9.1803,9.1803,9.1803,9.1803,9.184,9.2244,9.2684,9.3198,8.0209,8.0209,7.9878,7.8843,7.9652,8.0316,7.9841,8.0811,8.1832,8.2577,8.2678,8.2949,8.3693,8.3761,8.3998,8.4546,8.4614,8.4614,8.4614,8.1312,7.9376,7.9376,7.9376,7.992,8.1138,8.1138,8.1651,8.2678,8.3389,8.3659,8.3524,8.5107,8.5817,8.5851,8.6569,8.7008,8.7177,8.7177,8.7245,8.7482,8.8023,8.826,8.8294,8.8897,8.91,8.91,8.91,8.91,8.91,8.91,8.91,8.91,8.91,8.91,8.91,8.91,8.91,8.8998,8.8395,8.8125,8.7854,8.7313,8.6602,8.5993,8.5851,8.5317,8.4817,8.4647,8.4614,8.4614,8.4614,8.4614,8.4817,8.5527,0.0,8.485,8.5527,8.5019,8.4614,8.4614,8.4614,8.4614,8.4614,8.4614,8.4614,8.4614,8.4614,8.4614,8.4614,8.4614,8.4614,8.4614,8.4614,8.4614,8.4614,8.4614,8.4614,8.4614,8.4614,8.4614,8.4633,8.5861,8.6585,8.703,8.9114,9.0184,9.0483,9.1416,9.1803,9.1803,9.1803,9.1803,9.1803,9.1803,9.2207,9.2831,8.0209,8.0209,8.0386,8.0926,8.1139,8.1435,8.2075,8.2228,8.2577,8.3321,8.3422,8.3693,8.4444,8.4512,8.4546,8.4614,8.4614,8.4614,8.4614,8.4291,8.4083,8.4083,8.4083,8.417,8.4277,8.4277,8.3993,8.3422,8.4167,8.4174,8.3524,8.5107,8.5817,8.5851,8.6569,8.7279,8.7922,8.7922,8.8294,8.8965,8.8998,8.9032,8.9032,8.91,8.91,8.91,8.91,8.91,8.91,8.91,8.91,8.91,8.91,8.91,8.91,8.91,8.91,8.91,8.9032,8.8497,8.7989,8.7922,8.738,8.6636,8.596,8.5723,8.5486,8.4749,8.4614,8.4614,8.4614,8.4614,8.5493,8.8294,8.6433,8.5587,8.8361,8.6366,8.4614,8.4614,8.4614,8.4614,8.4614,8.4614,8.4614,8.4614,8.4614,8.4614,8.4614,8.4614,8.4614,8.4614,8.4614,8.4614,8.4614,8.4614,8.4614,8.4614,8.4614,8.4614,8.4633,8.5861,8.7032,8.8236,8.9453,9.0637,9.1675,9.1785,9.1803,9.1803,9.1803,9.1803,9.1803,9.1803,9.184,9.2024,8.0784,8.0885,8.1088,8.1866,8.1968,8.2238,8.2983,8.3084,8.3355,8.4072,8.42,8.4275,8.458,8.4614,8.4614,8.4614,8.4614,8.4614,8.4614,8.4614,8.4614,8.4614,8.4614,8.4614,8.4614,8.4614,8.4444,8.42,8.4444,8.4444,8.4208,8.5283,8.6027,8.6501,8.7245,8.7989,8.8666,8.8666,8.8835,8.91,8.91,8.91,8.91,8.91,8.91,8.91,8.91,8.91,8.91,8.91,8.91,8.91,8.91,8.91,8.91,8.91,8.91,8.91,8.91,8.8897,8.8666,8.8666,8.8125,8.7516,8.7211,8.6433,8.5689,8.5418,8.4945,8.4614,8.4614,8.4614,8.4986,8.6129,8.5358,8.4986,8.6163,8.5324,8.4614,8.4614,8.4614,8.4614,8.4614,8.4614,8.4614,8.4614,8.4614,8.4614,8.4614,8.4614,8.4614,8.4614,8.4614,8.4614,8.4614,8.4614,8.4614,8.4614,8.4614,8.4988,8.576,8.6961,8.8178,8.9411,9.0598,9.1379,9.1803,9.1803,9.1803,9.1803,9.1803,9.1803,9.1803,9.1803,9.1803,9.184,8.1528,8.1629,8.1866,8.2611,8.2746,8.2983,8.3727,8.3862,8.4031,8.4512,8.4614,8.4614,8.4614,8.4614,8.4614,8.4614,8.4614,8.4614,8.4614,8.4614,8.4614,8.4614,8.4614,8.4614,8.4614,8.4614,8.4614,8.4614,8.4614,8.4614,8.4614,8.5655,8.6433,8.6941,8.7922,8.8632,8.91,8.91,8.91,8.91,8.91,8.91,8.91,8.91,8.91,8.91,8.91,8.91,8.91,8.91,8.91,8.91,8.91,8.91,8.91,8.91,8.91,8.91,8.91,8.91,8.91,8.91,8.8728,8.826,8.8057,8.7042,8.6061,8.5851,8.5182,8.4614,8.4614,8.4614,8.4614,8.4614,8.4614,8.4614,8.4614,8.4614,8.4614,8.4614,8.4614,8.4614,8.4614,8.4614,8.4614,8.4614,8.4614,8.4614,8.4614,8.4614,8.4614,8.4614,8.4614,8.4614,8.4614,8.4614,8.4614,8.458,8.4961,8.5617,8.6463,8.8043,8.9221,9.0067,9.1267,9.1803,9.1803,9.1803,9.1803,9.1803,9.1803,9.1803,9.1803,9.1803,9.1803,9.1803,8.2408,8.2408,8.2644,8.3389,8.3524,8.3761,8.4478,8.4614,8.4614,8.4614,8.4614,8.4614,8.4614,8.4614,8.4614,8.4614,8.4614,8.4614,8.4614,8.4614,8.4614,8.4614,8.4614,8.4614,8.4614,8.4614,8.4614,8.4614,8.4614,8.4614,8.4614,8.6169,8.6907,8.6974,8.8395,8.91,8.91,8.91,8.91,8.91,8.91,8.91,8.91,8.91,8.91,8.91,8.91,8.91,8.91,8.91,8.91,8.91,8.91,8.91,8.91,8.91,8.91,8.91,8.91,8.91,8.91,8.91,8.91,8.8903,8.8158,8.7448,8.6704,8.596,8.5182,8.4614,8.4614,8.4614,8.4614,8.4614,8.4614,8.4614,8.4614,8.4614,8.4614,8.4614,8.4614,8.4614,8.4614,8.4614,8.4614,8.4614,8.4614,8.4614,8.4614,8.4614,8.4614,8.4614,8.4614,8.4614,8.4614,8.4614,8.4614,8.4606,8.5836,8.6414,8.6512,8.8906,9.0006,9.0067,9.1267,9.1803,9.1803,9.1803,9.1803,9.1803,9.1803,9.1803,9.1803,9.1803,9.1803,9.1803,8.3084,8.3186,8.3389,8.414,8.4275,8.4343,8.458,8.4614,8.4614,8.4614,8.4614,8.4614,8.4614,8.4614,8.4614,8.4614,8.4614,8.4614,8.4614,8.4614,8.4614,8.4614,8.4614,8.4614,8.4614,8.4614,8.4614,8.4614,8.4614,8.4614,8.4614,8.5053,8.5587,8.6129,8.6596,8.7347,8.8328,8.8328,8.8328,8.8361,8.8869,8.8795,8.8361,8.8897,8.91,8.91,8.91,8.91,8.91,8.91,8.91,8.91,8.91,8.91,8.91,8.91,8.91,8.91,8.91,8.91,8.91,8.91,8.91,8.9066,8.8801,8.8192,8.7448,8.6738,8.596,8.5283,8.4681,8.4614,8.4614,8.4614,8.4614,8.4614,8.4614,8.4614,8.4614,8.4614,8.4614,8.4614,8.4614,8.4614,8.4614,8.4614,8.4614,8.4614,8.4614,8.4614,8.4614,8.4614,8.4614,8.4614,8.4614,8.4614,8.4614,8.4606,8.5836,8.6841,8.7723,8.9306,9.0443,9.1267,9.1638,9.1803,9.1803,9.1803,9.1803,9.1803,9.1803,9.1803,9.1803,9.1803,9.1803,9.1803,8.3862,8.3964,8.4099,8.4512,8.4614,8.4614,8.4614,8.4614,8.4614,8.4614,8.4614,8.4614,8.4614,8.4614,8.4614,8.4614,8.4614,8.4614,8.4614,8.4614,8.4614,8.4614,8.4614,8.4614,8.4614,8.4614,8.4614,8.4614,8.4614,8.4614,8.4614,8.4945,8.5317,8.5817,8.6095,8.6738,8.7583,8.7888,8.7989,8.8057,8.8801,8.8632,8.8057,8.8497,8.8463,8.826,8.8564,8.8632,8.87,8.8998,8.91,8.91,8.91,8.91,8.91,8.91,8.91,8.91,8.91,8.91,8.91,8.91,8.91,8.91,8.91,8.8531,8.7854,8.7448,8.6501,8.5655,8.5182,8.4817,8.4512,8.4208,8.4411,8.4411,8.3802,8.3971,8.4167,8.4167,8.3903,8.3836,8.414,8.4167,8.4275,8.458,8.4614,8.4614,8.4614,8.4614,8.4614,8.4614,8.4614,8.4614,8.4614,8.4614,8.4614,8.4606,8.6326,8.7492,8.8246,8.9945,9.1116,9.1803,9.1803,9.1803,9.1803,9.1803,9.1803,9.1803,9.1803,9.1803,9.1803,9.1803,9.1803,9.1803,8.4614,8.4614,8.4614,8.4614,8.4614,8.4614,8.4614,8.4614,8.4614,8.4614,8.4614,8.4614,8.4614,8.4614,8.4614,8.4614,8.4614,8.4614,8.4614,8.4614,8.4614,8.4614,8.4614,8.4614,8.4614,8.4614,8.4614,8.4614,8.4614,8.4614,8.4614,8.5351,8.5689,8.5723,8.6399,8.6738,8.6873,8.7516,8.7786,8.7854,8.8598,8.8463,8.782,8.7888,8.7482,8.7008,8.7651,8.7888,8.7989,8.8666,8.8897,8.8903,8.8998,8.8965,8.8931,8.9066,8.9066,8.9032,8.91,8.91,8.91,8.91,8.9066,8.9032,8.91,8.8531,8.7989,8.7922,8.6771,8.5784,8.5648,8.5012,8.4242,8.3524,8.3964,8.3937,8.2611,8.2983,8.3389,8.3389,8.2813,8.2678,8.3321,8.3389,8.3727,8.4444,8.4512,8.4512,8.4614,8.4614,8.4614,8.4614,8.4614,8.4614,8.4614,8.4614,8.466,8.4819,8.7104,8.8246,8.8446,9.0735,9.1803,9.1803,9.1803,9.1803,9.1803,9.1803,9.1803,9.1803,9.1803,9.1803,9.1803,9.1803,9.1803,9.1803,8.4614,8.4614,8.4614,8.4614,8.4614,8.4614,8.4614,8.4614,8.4614,8.4614,8.4614,8.4614,8.4614,8.4614,8.4614,8.4614,8.4614,8.4614,8.4614,8.4614,8.4614,8.4614,8.4614,8.4614,8.4614,8.4614,8.4614,8.4614,8.4614,8.4614,8.4614,8.4783,8.485,8.4877,8.5019,8.5452,8.6027,8.6224,8.6291,8.6332,8.7076,8.6941,8.6332,8.6907,8.7042,8.6941,8.7076,8.7144,8.7177,8.7313,8.738,8.7482,8.8057,8.7854,8.7617,8.8734,8.8666,8.8361,8.8965,8.91,8.91,8.91,8.8694,8.8395,8.8998,8.8531,8.7854,8.7279,8.6433,8.5445,8.42,8.3862,8.349,8.278,8.2754,8.2754,8.2415,8.2543,8.2644,8.2644,8.2509,8.2475,8.2644,8.2644,8.2949,8.3693,8.3727,8.3998,8.458,8.4614,8.4614,8.4614,8.4614,8.4614,8.4614,8.4614,8.5066,8.6028,8.755,8.8746,8.9641,9.1135,9.1803,9.1803,9.1803,9.1803,9.1803,9.1803,9.1803,9.1803,9.1803,9.1803,9.1803,9.1803,9.1803,9.1803,8.4614,8.4614,8.4614,8.4614,8.4614,8.4614,8.4614,8.4614,8.4614,8.4614,8.4614,8.4614,8.4614,8.4614,8.4614,8.4614,8.4614,8.4614,8.4614,8.4614,8.4614,8.4614,8.4614,8.4614,8.4614,8.4614,8.4614,8.4614,8.4614,8.4614,8.4614,8.4614,8.4614,8.4614,8.4614,8.4817,8.5249,8.5621,8.5817,8.5885,8.6602,8.6467,8.5824,8.623,8.6163,8.5831,8.623,8.6602,8.6907,8.6907,8.6907,8.6974,8.7347,8.7211,8.7076,8.782,8.7786,8.755,8.7955,8.8057,8.8057,8.8057,8.7753,8.7753,8.8863,8.826,8.7482,8.7448,8.6264,8.4979,8.4167,8.3456,8.2746,8.2002,8.2171,8.2171,8.146,8.1663,8.1866,8.1866,8.1562,8.1494,8.1832,8.2205,8.2712,8.3422,8.3828,8.4174,8.458,8.4614,8.4614,8.4614,8.4614,8.4614,8.4614,8.4614,8.5222,8.6414,8.7666,8.8877,9.0026,9.1249,9.1803,9.1803,9.1803,9.1803,9.1803,9.1803,9.1803,9.1803,9.1803,9.1803,9.1803,9.1803,9.1803,9.1803,8.4614,8.4614,8.4614,8.4614,8.4614,8.4614,8.4614,8.4614,8.4614,8.4614,8.4614,8.4614,8.4614,8.4614,8.4614,8.4614,8.4614,8.4614,8.4614,8.4614,8.4614,8.4614,8.4614,8.4614,8.4614,8.4614,8.4614,8.4614,8.4614,8.4614,8.4614,8.4614,8.4614,8.4614,8.4614,8.4614,8.4647,8.5317,8.5587,8.5655,8.6264,8.6129,8.5587,8.5587,8.5182,8.4681,8.5351,8.5993,8.6507,8.6507,8.6507,8.6507,8.667,8.6636,8.6541,8.6812,8.6805,8.6738,8.6873,8.6907,8.6907,8.6907,8.6805,8.7076,8.8395,8.7685,8.6873,8.7313,8.5824,8.4309,8.4072,8.305,8.1968,8.1224,8.1629,8.1596,8.0378,8.0716,8.1088,8.1088,8.0547,8.0445,8.1054,8.1765,8.2509,8.3253,8.3998,8.4478,8.458,8.4614,8.4614,8.4614,8.4614,8.4614,8.4614,8.4785,8.5515,8.672,8.7929,8.9014,9.0026,9.1249,9.1803,9.1803,9.1803,9.1803,9.1803,9.1803,9.1803,9.1803,9.1803,9.1803,9.1803,9.1803,9.1803,9.1803,8.4614,8.4614,8.4614,8.4614,8.4614,8.4614,8.4614,8.4614,8.4614,8.4614,8.4614,8.4614,8.4614,8.4614,8.4614,8.4614,8.4614,8.4614,8.4614,8.4614,8.4614,8.4614,8.4614,8.4614,8.4614,8.4614,8.4614,8.4614,8.4614,8.4614,8.4614,8.4614,8.4614,8.4614,8.4614,8.4614,8.4614,8.4715,8.4749,8.4749,8.485,8.485,8.4749,8.4749,8.4681,8.4614,8.4715,8.4817,8.4918,8.4918,8.4918,8.5019,8.5723,8.5486,8.5155,8.6507,8.6433,8.6095,8.6738,8.6907,8.6907,8.6907,8.6433,8.6163,8.7008,8.6535,8.5757,8.5155,8.4336,8.3253,8.1968,8.1587,8.119,8.0479,8.0412,8.0412,8.0242,8.0276,8.0344,8.0344,8.0242,8.0242,8.0344,8.1021,8.1731,8.2509,8.3219,8.393,8.458,8.4614,8.4614,8.4614,8.4614,8.4614,8.4614,8.5643,8.6744,8.7975,8.9164,8.9863,9.0026,9.1249,9.1803,9.1803,9.1803,9.1803,9.1803,9.1803,9.1803,9.1803,9.1803,9.1803,9.1803,9.1803,9.1803,9.1803,8.4614,8.4614,8.4614,8.4614,8.4614,8.4614,8.4614,8.4614,8.4614,8.4614,8.4614,8.4614,8.4614,8.4614,8.4614,8.4614,8.4614,8.4614,8.4614,8.4614,8.4614,8.4614,8.4614,8.4614,8.4614,8.4614,8.4614,8.4614,8.4614,8.4614,8.4614,8.4614,8.4614,8.4614,8.4614,8.4614,8.4614,8.4614,8.4614,8.4614,8.4614,8.4614,8.4614,8.4614,8.4614,8.4614,8.4614,8.4614,8.4614,8.4614,8.4614,8.4647,8.5046,8.4911,8.4715,8.5425,8.5358,8.5215,8.5527,8.5317,8.5012,8.5012,8.4437,8.3998,8.4336,8.4133,8.4031,8.4512,8.3355,8.2069,8.1418,8.0953,8.0581,8.0242,8.0209,8.0209,8.0209,8.0209,8.0209,8.0209,8.0209,8.0344,8.075,8.146,8.2205,8.2949,8.3693,8.4242,8.458,8.4614,8.4614,8.4614,8.4614,8.4614,8.4614,8.5811,8.6648,8.7246,8.91,9.0364,9.1022,9.1565,9.1803,9.1803,9.1803,9.1803,9.1803,9.1803,9.1803,9.1803,9.1803,9.1803,9.1803,9.1803,9.1803,9.1803]}]]